GFSSGP_500_spd_000.txt.gz
Wind_Speed
29 26 24 22 18 16 17 20 27 28 25 21 20 23 26 28 28 28 25 26 23 19 20 21 19 18 17 18 16 13 12 12 10 10 10 9 9 13 16 18 17 15 14 15 14 14 15 17 19
32 31 28 25 21 17 19 20 23 24 20 21 20 23 26 27 28 27 26 24 23 20 19 20 18 18 17 18 16 13 13 12 10 10 9 9 10 12 14 19 19 18 16 16 16 17 18 19 19
34 33 32 29 24 21 21 20 19 20 16 18 21 25 27 25 24 26 26 24 23 22 19 17 17 18 18 17 14 11 12 11 12 11 10 11 11 10 12 17 19 19 19 19 19 21 22 23 23
40 36 34 32 27 26 23 21 17 16 16 19 25 25 28 24 23 23 24 20 21 20 19 17 18 19 19 16 12 11 11 11 11 12 13 13 14 13 13 13 17 21 22 23 23 24 25 26 27
30 40 39 32 28 27 26 23 19 17 20 22 24 26 27 26 22 21 21 19 20 17 17 18 18 19 19 15 11 11 11 12 12 13 13 14 14 15 17 18 17 19 20 22 24 24 24 25 26
33 33 38 38 31 32 31 28 22 20 21 22 23 25 24 25 23 21 20 19 18 17 18 19 20 20 19 16 13 12 11 11 11 11 11 13 15 16 17 19 20 21 23 24 25 26 27 28 28
33 33 32 36 35 36 31 29 24 21 21 19 21 24 24 25 23 20 20 19 17 16 17 19 21 22 20 18 15 13 13 11 10 8 8 9 9 10 13 16 19 21 23 25 27 28 29 30 30
32 35 31 31 36 32 33 32 26 23 23 19 19 25 25 27 26 23 21 17 18 18 18 21 22 23 22 21 18 15 14 12 13 10 10 13 13 14 13 14 15 17 19 21 23 25 27 29 31
31 33 28 30 28 29 34 35 34 27 25 21 19 23 27 30 29 27 24 20 19 17 20 23 26 24 24 23 21 18 17 16 14 12 13 14 16 18 19 18 18 20 20 22 23 24 25 27 29
34 29 24 25 29 28 37 40 39 33 27 22 21 24 28 30 31 29 25 24 24 21 21 22 28 27 26 25 23 22 20 19 18 15 16 18 20 23 23 23 24 25 25 27 27 27 28 29 31
34 28 27 25 27 35 34 43 42 35 28 24 25 26 29 29 28 28 28 26 24 20 22 23 26 29 27 26 24 25 21 20 20 21 23 27 31 30 31 30 28 28 29 30 32 32 33 35 36
38 34 33 29 30 33 37 37 43 39 29 30 28 28 32 30 27 28 29 28 23 26 22 22 23 29 27 27 28 25 24 23 24 23 26 27 29 30 32 34 33 33 33 33 34 35 36 37 36
41 40 40 37 34 36 37 39 38 37 37 32 32 30 33 35 26 27 29 27 29 26 26 25 22 25 27 29 29 27 28 28 26 25 26 27 28 30 33 35 36 36 34 33 33 35 36 35 34
44 43 44 44 40 39 41 41 42 34 32 40 35 34 34 37 25 25 28 26 28 27 28 27 26 24 23 26 27 28 31 30 29 29 28 30 31 31 33 32 29 29 33 32 32 35 36 34 32
42 42 42 44 44 42 43 44 41 35 30 39 38 38 36 34 27 25 28 26 28 27 28 27 27 25 22 22 25 27 31 30 29 29 30 29 33 30 26 27 26 27 29 31 33 36 37 36 34
42 43 44 43 46 47 47 36 40 39 36 39 41 39 36 34 28 28 27 26 28 26 27 24 25 24 23 23 23 23 27 26 26 28 29 31 31 25 25 26 28 30 32 34 37 40 40 37 35
46 45 45 45 46 47 49 41 41 44 35 40 39 40 37 31 27 27 27 26 26 27 26 24 23 23 23 21 21 22 23 23 25 26 29 29 26 25 28 29 33 34 36 39 42 43 42 38 37
46 47 46 45 43 45 45 45 44 43 41 39 40 40 39 31 27 27 26 28 27 27 27 23 21 22 23 21 20 21 23 25 27 28 31 29 29 30 33 34 37 39 40 42 43 45 44 40 38
47 47 46 48 50 50 51 50 49 44 39 43 42 37 38 32 30 28 26 27 30 28 26 23 19 25 25 21 20 21 25 27 29 31 30 31 29 32 35 38 40 42 42 43 44 43 42 41 40
50 50 48 49 51 52 52 53 53 49 44 45 45 38 36 32 30 28 27 26 28 28 26 24 22 24 26 23 22 24 27 28 29 29 28 29 31 35 38 41 43 43 44 44 41 37 38 41 42
53 53 52 53 50 55 53 55 55 49 47 47 48 42 37 31 29 27 28 28 27 29 28 26 24 24 26 26 26 28 29 28 27 26 28 32 36 39 42 42 42 43 39 36 37 39 40 43 47
51 48 46 47 49 52 47 58 55 48 45 50 49 45 36 31 26 27 28 29 28 29 30 29 27 25 27 28 29 30 29 28 28 29 33 37 39 40 41 42 41 37 37 38 40 43 44 46 49
46 41 44 46 49 51 50 57 56 54 50 50 47 43 36 31 27 27 27 28 27 28 29 29 29 28 29 31 32 31 28 29 31 33 38 40 40 41 41 40 38 39 39 42 44 46 49 52 55
44 42 46 47 49 55 50 57 58 50 50 45 44 43 34 31 26 26 26 26 27 28 28 28 28 30 30 33 32 29 30 32 34 38 40 40 40 40 39 38 40 41 42 44 46 49 52 55 59
44 44 40 46 53 60 53 55 55 44 46 40 46 43 33 30 26 26 26 27 28 29 30 29 28 30 31 31 31 31 33 35 37 39 37 37 38 37 39 40 41 42 44 47 50 53 57 60 63
37 41 47 40 52 52 46 56 52 41 36 43 43 39 35 31 28 27 27 28 30 30 30 28 28 30 31 31 32 34 36 38 38 37 37 36 36 39 40 41 42 45 48 51 55 57 61 65 68
35 44 36 40 35 44 46 50 48 38 34 41 39 37 34 26 24 25 28 29 30 29 29 29 28 29 30 32 34 36 38 36 37 37 37 37 38 40 40 43 46 49 52 55 58 61 66 68 68
37 33 42 46 39 40 47 49 43 34 32 37 36 29 29 27 26 25 26 30 30 29 28 28 27 30 31 33 35 37 34 34 36 36 36 39 41 42 44 46 49 53 55 59 63 67 68 68 66
35 38 42 47 46 37 33 38 33 34 32 30 25 26 25 24 26 27 28 27 28 29 29 28 28 30 32 34 34 32 33 34 34 35 39 41 43 45 47 49 53 56 59 64 68 69 68 65 66
26 32 37 49 44 28 28 29 31 31 23 22 22 27 27 26 26 26 26 26 25 26 28 28 30 32 33 31 30 32 32 32 34 39 41 43 45 48 50 53 57 60 64 69 69 68 65 66 69

GFSSGP_500_spd_003.txt.gz
Wind_Speed
31 30 30 27 23 20 20 21 26 26 26 24 23 23 21 24 25 28 23 23 24 19 18 19 20 19 19 18 18 18 15 13 12 11 11 10 11 10 14 17 18 19 20 18 18 18 19 19 20
33 31 32 31 26 22 22 23 26 26 23 23 25 25 23 24 25 27 28 23 22 22 19 20 21 21 20 18 17 16 15 13 13 13 11 11 11 10 14 16 19 20 20 20 19 19 20 20 21
35 34 33 34 30 24 24 23 23 23 21 22 24 23 23 25 26 26 27 23 22 21 20 21 22 21 20 18 17 16 15 14 12 12 12 13 13 13 12 12 16 20 21 21 21 22 22 23 25
29 38 38 36 30 29 27 27 24 21 19 21 24 27 25 26 26 26 23 23 20 20 22 22 21 19 18 18 17 15 14 12 11 13 13 12 13 15 15 15 16 15 18 22 23 24 24 25 25
29 28 39 38 30 30 30 30 26 22 19 23 26 28 27 26 25 24 20 20 20 20 20 20 19 20 18 17 16 14 14 11 11 11 12 12 13 15 16 16 18 19 21 22 22 24 24 24 26
33 31 30 33 35 34 34 32 29 25 22 23 25 26 27 25 23 21 19 20 18 16 17 18 19 20 19 18 16 15 14 12 10 10 10 10 9 12 15 17 17 19 21 23 25 26 28 28 29
36 35 32 29 31 42 34 34 29 29 27 23 24 26 27 26 24 21 19 18 17 14 15 17 19 20 20 20 18 16 16 15 12 10 8 6 7 8 10 12 14 15 18 21 23 25 27 28 30
35 35 31 28 29 29 40 37 32 31 30 26 24 26 27 29 26 22 21 18 16 14 16 19 20 21 21 21 20 18 18 17 15 14 12 11 12 12 15 17 19 19 20 21 22 23 25 25 27
32 36 27 24 26 24 32 37 34 33 32 29 27 25 26 28 29 25 22 18 17 16 17 17 20 22 23 23 22 22 22 18 17 16 15 14 13 15 19 22 24 24 24 25 26 27 27 28 29
35 34 24 22 24 28 36 37 40 36 32 29 27 28 27 28 29 27 22 19 18 19 20 19 20 21 25 26 25 25 24 23 20 20 18 16 17 21 26 29 32 32 31 31 30 30 31 32 33
36 32 29 28 27 29 37 40 36 40 33 28 29 33 31 29 28 27 23 22 22 21 19 20 22 22 23 27 27 26 25 26 24 22 21 21 23 27 29 32 33 33 35 35 34 33 33 34 35
44 38 35 31 30 31 33 38 39 37 39 34 32 34 34 31 29 26 27 26 23 22 21 24 24 23 23 22 26 26 27 27 27 24 23 23 26 29 33 34 35 38 37 36 35 33 33 34 36
48 40 40 37 34 33 34 36 36 36 33 40 35 35 34 32 27 27 27 28 24 21 25 27 25 25 22 22 22 25 26 28 29 28 27 26 29 30 33 33 33 32 30 30 27 29 30 31 33
44 45 45 45 41 40 40 38 41 36 35 33 39 38 36 37 31 30 26 23 25 24 23 26 26 26 25 23 21 23 25 27 30 32 29 30 32 32 33 33 31 26 25 26 27 27 29 32 36
39 43 46 46 44 42 43 44 42 38 38 33 34 41 40 42 33 30 26 24 26 24 27 27 27 25 25 24 22 22 23 25 27 29 29 29 31 32 32 31 26 25 26 28 30 31 33 36 38
42 43 44 44 44 45 44 41 42 42 41 38 37 36 43 43 37 32 29 27 25 26 27 29 27 24 24 24 24 22 22 21 23 25 25 28 31 29 32 26 25 27 30 33 34 37 39 40 41
46 45 44 46 46 47 46 40 40 43 44 39 39 41 39 43 38 32 31 30 27 27 28 29 28 23 23 24 25 23 22 20 21 23 25 27 29 31 32 31 29 31 35 37 37 39 41 43 44
44 48 50 50 50 50 48 46 47 44 46 41 39 38 43 38 37 33 32 29 27 28 28 28 27 23 23 25 25 23 21 20 22 25 28 30 31 31 32 29 30 33 36 39 42 45 45 45 43
48 54 54 54 53 53 50 50 48 46 44 45 40 41 41 39 36 37 31 29 28 28 30 27 27 25 24 25 26 24 21 21 23 25 28 31 31 27 27 29 32 37 40 42 43 47 46 39 34
49 52 55 55 53 56 53 54 52 50 46 45 44 43 44 38 36 36 33 31 31 29 29 30 28 28 25 25 27 26 24 25 26 28 29 29 26 26 29 33 37 39 41 43 46 44 37 37 38
51 51 53 55 52 53 57 54 54 52 50 47 45 43 47 43 39 35 35 33 32 30 27 31 30 28 26 24 28 29 28 28 29 31 31 30 30 30 34 38 39 41 43 46 42 38 39 41 44
52 51 52 54 56 56 57 60 53 51 49 48 49 48 47 44 41 36 35 32 32 32 29 30 32 30 27 26 26 29 31 32 33 34 32 34 33 35 39 40 41 43 45 43 40 41 42 44 46
58 53 55 57 59 61 58 63 56 56 50 47 49 50 48 45 42 36 34 36 34 33 32 31 32 32 30 29 29 30 32 34 35 35 36 36 37 40 41 42 42 43 43 41 42 43 45 48 50
54 53 53 55 56 64 58 60 60 54 54 53 54 53 50 43 41 36 36 35 32 32 32 29 29 30 30 32 33 34 34 36 37 38 38 39 41 42 41 41 42 41 41 42 44 46 50 52 56
54 50 48 51 58 66 60 60 60 52 49 51 51 50 50 44 42 38 36 32 33 30 31 30 29 29 30 32 33 34 35 36 37 39 41 41 42 40 41 41 40 41 42 44 47 51 54 58 60
37 38 44 48 54 58 52 66 60 55 47 48 49 48 50 48 42 40 35 34 34 31 30 29 29 29 29 31 33 35 36 36 38 41 41 42 39 40 41 40 41 43 45 48 51 55 58 60 64
32 34 30 41 44 45 46 57 55 47 42 40 48 47 50 44 41 39 35 35 32 30 30 30 29 28 28 30 32 34 36 38 39 39 40 38 39 40 40 41 43 45 48 52 55 58 61 65 67
32 32 33 39 41 34 37 43 46 36 36 38 41 44 40 40 42 39 38 35 33 31 31 30 29 29 29 31 33 34 37 38 37 37 38 39 40 40 42 44 46 49 52 54 58 62 66 68 72
30 35 36 39 40 37 37 33 35 37 35 40 35 37 33 32 35 37 35 33 34 32 31 30 30 30 31 32 34 35 36 36 35 37 39 38 40 42 44 46 49 51 54 58 63 66 69 73 75
28 28 33 37 37 37 33 16 22 26 33 33 33 32 34 37 40 38 36 34 31 29 30 30 31 33 34 34 35 36 35 34 36 37 37 39 42 44 47 50 52 55 58 62 65 69 75 76 72

GFSSGP_500_spd_006.txt.gz
Wind_Speed
33 32 31 28 27 24 21 20 24 26 25 25 24 24 25 22 22 24 20 20 20 15 15 17 18 18 16 17 16 16 15 15 14 12 11 9 9 11 11 13 14 15 16 16 17 17 18 18 19
29 35 34 32 29 26 24 23 24 26 24 23 25 26 27 25 23 23 23 20 19 20 16 18 19 19 18 17 16 15 14 12 12 10 10 9 9 9 10 11 12 16 18 19 18 18 19 19 20
26 31 36 36 32 25 27 24 24 24 22 22 23 28 29 26 27 25 23 24 21 19 18 20 20 20 18 16 15 14 13 12 11 10 10 10 11 10 11 13 12 11 13 17 19 20 20 21 22
29 28 32 39 31 28 28 27 26 26 22 19 22 26 28 27 27 27 27 27 23 20 18 21 21 20 17 15 15 14 13 12 10 9 9 9 10 12 11 13 14 15 16 16 17 19 22 24 24
34 31 29 25 34 28 30 32 29 28 25 22 22 26 27 26 25 28 28 26 22 21 19 22 22 19 17 14 15 15 13 12 10 10 8 9 9 11 12 13 15 17 18 19 21 23 25 26 26
36 34 31 23 22 33 34 33 31 29 28 25 24 24 27 27 28 29 28 25 22 19 19 20 20 19 17 16 16 15 15 14 11 10 8 7 7 7 7 8 11 13 16 19 20 22 24 26 28
35 36 34 28 22 28 33 38 31 30 32 29 27 25 25 28 27 27 24 22 21 18 19 19 19 20 19 18 18 17 17 16 14 12 10 8 7 8 8 11 12 13 16 18 18 20 21 22 23
35 37 34 29 24 25 30 34 37 31 34 32 30 27 26 27 28 25 25 21 18 18 18 19 18 18 19 19 20 19 18 18 16 15 14 13 12 11 13 16 17 20 22 23 24 25 25 26 28
34 37 29 25 24 24 31 34 34 37 35 34 31 28 27 28 28 29 24 21 19 18 19 20 17 15 18 19 21 20 20 20 19 18 17 16 15 14 16 19 21 26 29 32 32 31 30 31 31
33 33 23 22 24 26 33 37 37 36 41 35 33 33 31 29 29 29 25 21 18 19 20 21 19 18 18 20 21 23 22 23 23 22 21 20 18 17 20 22 26 29 31 33 35 36 35 35 34
35 34 28 25 28 29 32 37 39 36 35 37 37 37 35 32 29 29 27 23 23 23 20 23 23 22 23 21 20 21 24 24 26 26 25 22 22 21 22 25 29 32 34 35 37 35 34 34 33
41 39 36 31 33 34 32 36 37 35 34 37 40 39 36 34 31 29 27 26 28 26 24 24 24 27 25 22 19 18 22 25 26 28 29 26 22 23 25 28 30 34 36 34 29 25 24 24 27
38 35 42 40 38 39 37 37 36 32 30 37 37 41 38 36 34 31 29 27 26 24 26 27 28 30 27 24 20 20 20 23 25 27 29 28 26 27 28 31 33 34 33 29 25 23 25 26 27
34 36 34 41 42 42 41 37 40 29 33 32 35 38 41 39 37 35 31 26 25 25 27 29 30 31 29 27 23 22 22 22 22 24 26 27 28 29 31 32 33 33 32 27 25 25 28 30 32
34 35 36 34 39 43 45 43 42 35 38 37 34 35 37 42 40 39 34 27 25 27 29 28 28 31 29 28 25 23 25 22 22 23 23 24 27 29 29 29 31 33 30 27 27 28 31 34 36
36 37 36 35 38 44 47 47 43 42 41 42 38 36 35 35 40 43 38 31 27 28 28 29 29 29 29 28 26 26 27 22 22 21 20 22 24 25 26 30 32 33 32 31 29 32 34 37 40
35 37 37 39 41 44 48 50 45 47 46 44 43 40 37 35 35 40 41 36 33 31 29 29 30 30 28 27 27 27 28 25 23 21 20 22 23 24 27 31 33 33 30 30 32 33 37 40 41
38 41 42 43 44 48 49 53 49 49 46 43 43 42 40 40 38 36 39 39 37 34 32 30 31 30 28 29 27 28 29 26 22 21 21 22 23 26 30 33 32 28 28 32 34 37 37 39 41
43 44 45 45 46 47 52 54 51 50 47 44 43 39 39 37 39 38 35 37 38 35 34 32 31 30 28 29 29 29 30 27 23 23 23 23 25 28 30 30 28 29 31 35 38 38 39 41 41
44 47 47 49 48 49 50 52 53 53 50 47 46 45 41 39 40 38 35 34 38 36 35 33 31 32 30 29 28 28 27 27 26 24 26 26 28 30 31 32 32 33 36 39 39 39 42 43 39
47 48 50 52 53 52 52 50 56 52 53 50 48 45 43 42 43 38 37 35 38 38 35 36 32 34 34 30 28 26 27 30 28 27 29 30 31 33 34 35 37 38 40 42 41 42 44 43 41
53 53 54 55 57 55 54 56 51 56 54 51 48 48 45 42 43 39 38 37 36 39 36 37 35 34 36 32 28 29 28 29 31 31 33 34 35 36 38 40 41 42 44 42 42 44 42 41 42
57 56 57 57 58 59 56 60 52 49 53 49 47 49 48 46 45 42 38 40 39 39 37 38 38 36 33 33 31 32 31 30 31 32 35 37 38 40 41 43 44 45 43 43 44 43 41 43 45
57 57 59 59 60 62 58 63 53 52 48 48 48 47 49 48 46 43 39 41 40 40 38 38 38 38 35 32 34 35 34 33 34 35 37 38 41 43 44 45 46 45 43 44 43 43 44 46 50
55 54 55 56 59 62 60 62 53 55 48 48 47 49 51 50 49 43 40 42 40 40 38 38 38 37 35 32 34 35 34 34 36 37 39 40 42 45 46 46 45 43 44 42 43 45 47 51 54
44 43 47 50 54 58 58 61 54 58 53 45 43 49 52 52 51 42 39 42 41 41 38 39 37 36 35 34 34 34 34 35 36 38 40 42 44 45 45 44 43 43 42 43 46 48 52 55 58
33 37 34 39 43 49 58 60 56 60 56 50 43 39 45 48 48 42 42 43 41 38 38 37 36 36 35 33 33 32 32 34 36 39 41 43 42 43 42 43 43 42 43 46 48 52 55 58 62
25 30 32 40 42 44 49 55 59 52 49 51 43 46 44 45 45 42 41 43 41 39 37 35 36 36 35 32 32 31 32 34 36 39 40 39 40 41 42 43 42 43 46 49 52 55 57 62 66
30 30 33 36 39 37 36 39 36 28 29 31 37 46 46 46 43 37 38 41 42 39 37 35 35 34 34 33 34 34 34 35 36 37 37 38 40 41 41 42 44 47 50 53 56 58 63 65 66
25 29 30 34 37 40 40 30 30 21 28 32 37 45 39 36 38 38 40 42 42 40 36 36 36 36 35 35 35 36 36 35 36 36 36 38 40 40 42 44 47 51 55 57 60 64 62 66 71

GFSSGP_500_spd_009.txt.gz
Wind_Speed
23 28 33 32 29 27 23 23 24 22 23 22 21 24 25 23 21 18 16 18 18 15 15 16 16 15 13 13 14 14 13 12 11 10 9 8 7 6 7 10 9 13 12 14 15 16 17 17 18
24 23 29 34 32 28 25 25 24 24 22 20 21 24 25 26 22 20 18 18 17 17 16 16 16 15 14 13 15 14 13 11 10 10 9 8 7 8 9 9 8 10 13 16 17 18 18 18 19
28 27 26 28 33 26 26 26 25 26 24 20 19 22 27 26 20 22 19 21 21 20 19 18 17 15 13 15 14 13 12 10 9 10 10 9 7 8 9 11 13 10 10 9 12 16 18 19 21
31 32 30 27 23 28 26 29 27 29 25 21 20 22 24 28 26 26 28 27 23 21 24 20 20 17 14 15 15 13 11 10 10 10 9 10 8 7 9 10 12 13 14 14 15 17 18 19 19
32 34 34 25 18 24 28 32 30 29 27 24 23 23 23 25 27 28 28 27 26 28 27 24 22 19 15 15 15 14 12 11 10 10 10 9 9 9 9 10 10 11 12 14 17 18 20 21 22
34 33 35 26 20 22 31 35 31 30 30 28 26 25 23 23 25 27 28 29 27 26 24 24 23 20 17 16 17 15 13 12 12 12 10 9 9 9 8 7 5 5 6 8 11 14 15 18 19
31 32 32 28 23 25 25 32 35 32 31 32 30 28 26 25 24 27 28 29 28 26 25 25 22 21 19 17 18 18 15 14 14 14 13 11 11 10 10 10 11 13 14 15 17 19 21 22 22
29 30 31 27 23 25 29 30 29 35 35 36 34 31 30 28 26 26 28 26 24 22 23 23 23 22 19 17 18 19 17 17 17 17 16 15 16 15 14 13 13 15 20 22 25 27 29 29 28
29 32 24 23 25 27 32 35 35 34 35 39 37 34 32 31 30 29 28 28 21 23 24 24 24 22 19 18 17 17 19 19 19 19 19 18 19 19 18 17 16 18 22 25 26 29 32 32 31
31 31 20 21 26 30 35 39 39 35 34 37 42 37 36 36 33 31 30 27 23 25 26 26 25 24 20 19 19 17 18 22 21 22 22 22 21 22 22 20 20 20 25 27 28 32 31 27 25
28 25 23 22 25 29 34 38 41 36 33 33 36 42 38 38 34 31 30 28 25 27 27 27 27 26 22 24 22 20 20 22 25 24 24 24 26 25 23 22 20 22 27 27 31 33 25 19 19
24 23 25 25 27 29 31 37 40 35 28 33 35 35 41 38 36 33 32 30 27 29 29 29 28 26 26 27 25 22 21 22 24 27 26 26 27 28 26 22 22 25 28 29 32 30 22 19 22
23 24 25 26 31 33 33 33 36 35 27 32 33 35 35 41 38 36 34 31 28 27 31 31 31 30 30 29 29 25 22 23 23 26 26 25 28 28 26 25 25 27 30 31 32 28 23 23 24
25 25 26 25 27 30 37 36 45 35 33 33 31 31 32 34 39 39 35 31 31 30 29 31 33 33 34 32 31 29 26 25 26 26 27 25 26 26 25 25 27 30 30 31 30 28 25 26 28
26 27 27 25 26 28 32 40 44 39 42 38 32 29 30 31 34 38 38 35 32 31 32 32 32 32 32 33 33 32 31 27 26 27 26 25 24 23 23 25 27 28 30 31 31 29 29 29 31
27 27 26 27 29 28 30 31 42 42 43 42 38 37 33 31 32 35 41 39 36 31 32 33 33 31 32 34 34 35 33 29 27 28 26 24 23 22 23 24 25 27 31 31 31 30 28 30 33
26 28 29 31 31 32 31 32 34 44 46 46 46 45 40 36 35 34 37 40 43 37 34 35 33 31 32 35 36 34 33 28 28 28 29 24 24 23 24 24 26 29 32 33 30 28 28 32 36
31 34 34 36 35 36 35 37 32 39 48 49 48 47 45 39 39 38 39 39 34 40 39 37 35 33 33 35 36 35 33 29 28 28 29 25 27 24 25 25 28 30 33 30 29 29 31 36 39
33 35 38 39 40 40 39 44 41 36 42 48 50 49 47 43 41 40 40 42 36 33 40 42 38 35 36 38 38 35 33 29 28 28 27 28 27 27 26 27 28 30 31 31 32 34 36 38 38
36 39 40 43 44 48 48 49 46 40 38 45 48 49 47 45 40 42 41 42 38 36 37 43 41 38 38 39 39 33 32 30 27 27 31 30 29 29 29 29 30 32 33 35 37 39 41 40 39
41 44 47 49 51 51 54 54 48 45 43 43 48 48 46 46 44 42 42 44 39 38 37 40 42 39 40 39 37 32 31 30 28 29 32 32 31 32 33 33 34 35 37 39 41 44 45 43 42
46 49 52 55 58 58 57 63 55 47 45 46 45 49 46 48 45 41 44 45 39 38 38 38 43 40 40 38 34 33 33 32 31 29 32 35 35 36 37 38 38 39 40 43 45 47 46 45 45
51 55 59 62 64 64 61 66 60 55 46 44 47 47 47 47 48 43 42 45 39 40 40 38 42 43 40 37 34 33 36 33 32 32 34 35 37 38 39 39 40 42 44 46 49 49 47 47 45
52 57 63 67 68 72 65 67 58 57 54 46 46 45 49 48 50 47 44 44 39 41 42 40 39 42 40 37 35 35 36 36 35 35 37 38 37 38 40 40 42 43 46 50 50 49 48 46 45
55 56 55 58 64 70 66 66 59 56 59 53 47 45 47 51 48 48 46 45 40 41 43 40 40 42 41 37 37 37 36 37 37 37 40 41 40 40 41 42 43 46 48 50 49 48 47 47 48
47 54 49 46 46 49 53 64 58 58 57 59 51 46 47 50 48 48 46 43 40 42 45 43 41 41 40 39 37 37 37 36 36 37 39 41 42 41 41 42 44 46 48 47 47 48 48 49 52
37 57 33 40 37 41 43 51 54 56 58 57 51 47 43 51 50 50 47 42 38 41 46 43 41 41 40 39 38 37 37 37 37 37 38 40 42 41 40 41 44 45 46 46 48 49 50 53 56
44 48 38 38 39 48 45 38 44 49 46 48 49 45 43 44 49 50 48 44 38 41 45 45 42 41 40 38 37 37 36 37 38 37 37 37 39 38 39 41 43 44 47 48 48 50 53 56 59
41 44 41 37 40 42 38 33 21 25 28 40 48 47 43 47 42 48 45 44 39 41 45 45 40 41 38 35 35 35 36 38 39 38 36 37 38 38 39 41 43 46 47 48 50 54 57 60 61
39 40 38 36 36 37 39 36 37 33 23 26 39 43 43 49 45 42 40 38 37 41 46 44 41 38 35 34 33 34 36 39 39 38 37 38 38 39 40 42 44 46 48 51 54 57 58 57 62

GFSSGP_500_spd_012.txt.gz
Wind_Speed
20 21 26 29 28 28 26 26 25 24 24 23 21 21 22 22 22 21 17 20 17 18 17 17 18 18 17 17 15 14 13 14 13 10 9 10 11 11 11 11 12 13 14 14 16 17 17 17 17
21 21 23 23 28 28 27 28 28 27 25 24 21 21 22 25 22 21 20 21 20 18 17 17 18 18 17 16 16 15 15 14 13 12 10 10 11 12 12 12 12 13 15 17 18 18 19 18 19
24 24 25 25 22 22 28 30 31 29 26 25 23 22 24 23 23 22 19 20 24 20 21 19 17 18 18 18 16 16 15 14 13 12 10 11 11 12 12 12 13 14 13 12 11 12 14 15 18
26 27 28 27 21 19 26 34 32 31 28 26 24 24 24 25 23 22 20 20 17 22 25 22 24 21 19 18 16 15 15 15 14 13 12 12 12 12 12 12 13 13 14 15 16 16 16 17 19
29 29 31 25 21 20 23 32 34 32 30 29 27 27 26 26 24 23 26 28 29 28 26 25 28 28 23 19 17 16 16 15 15 13 13 13 12 12 12 12 12 11 12 13 14 14 14 15 17
32 30 31 25 21 25 25 29 34 33 33 31 29 29 27 26 25 24 25 27 29 27 27 26 25 28 25 20 17 17 17 16 16 15 15 14 14 13 13 12 11 9 8 7 9 11 13 15 17
31 30 30 27 24 28 27 29 26 34 33 33 32 31 30 29 28 27 27 27 28 27 26 28 27 28 25 21 19 19 18 17 17 17 17 16 16 16 14 13 12 12 12 14 16 20 22 24 26
30 30 28 23 21 25 29 32 29 28 34 36 35 35 34 31 31 31 28 28 29 28 26 28 29 27 25 22 20 20 18 18 18 18 19 19 19 19 18 17 17 16 15 17 21 21 24 24 28
30 30 23 20 20 24 31 35 34 32 31 33 39 37 35 35 34 33 32 31 30 27 26 28 30 27 24 24 21 20 19 20 20 20 21 21 22 22 22 21 21 20 19 19 20 23 24 26 24
30 29 22 22 24 29 35 38 38 35 34 34 34 38 40 36 37 35 33 33 31 28 27 30 31 29 26 25 22 21 20 19 21 22 22 23 25 25 23 24 24 23 22 21 21 25 25 27 20
31 25 26 25 26 30 34 36 40 38 34 33 33 36 36 40 38 37 35 35 34 32 29 30 33 30 29 29 27 26 23 20 21 23 26 27 28 27 28 27 27 27 25 23 23 27 27 28 23
30 26 26 26 27 27 28 32 33 37 30 33 33 34 34 34 40 38 36 36 35 34 31 32 34 34 32 31 29 28 26 24 23 24 27 30 30 29 29 31 30 28 27 26 25 28 30 29 25
29 26 25 25 27 27 30 29 32 36 32 32 32 31 31 31 32 39 38 36 36 35 33 32 35 37 35 38 33 31 29 28 27 27 27 29 31 31 29 31 31 30 29 26 27 31 30 30 28
28 26 25 24 25 26 27 31 36 32 33 33 35 30 29 30 31 33 38 38 36 36 36 34 34 37 38 37 36 33 32 33 31 27 28 29 30 29 30 31 30 30 29 28 30 31 30 31 30
30 27 26 24 25 25 27 26 28 32 40 39 37 33 31 29 29 30 34 39 39 37 37 35 34 36 36 37 36 35 37 37 34 28 27 30 31 30 30 31 29 30 29 29 29 31 32 32 33
32 29 27 24 25 26 28 25 29 32 37 43 42 38 36 34 30 30 33 36 39 41 38 37 35 35 37 37 36 36 38 38 35 31 30 30 33 33 30 31 30 30 30 30 30 31 33 35 33
31 30 29 30 30 30 29 29 26 31 31 36 45 45 41 39 37 32 33 37 39 39 42 40 38 37 38 36 34 37 39 39 36 33 32 33 33 33 32 31 32 31 30 30 31 32 35 33 31
31 31 30 30 30 30 31 32 29 29 29 31 37 45 46 45 43 41 38 38 41 40 40 45 42 41 40 37 35 37 39 39 35 35 33 33 34 34 34 33 32 31 30 30 32 32 33 32 34
28 29 31 32 33 35 35 37 36 33 32 32 34 40 48 51 49 46 43 40 42 44 41 39 46 44 44 40 38 38 38 38 36 34 34 34 32 34 35 33 31 31 32 32 33 34 35 36 38
28 30 32 36 38 40 42 41 42 42 39 38 38 41 45 49 53 52 48 44 44 46 45 40 40 47 47 42 43 40 40 38 35 34 34 34 33 36 36 35 34 34 34 35 36 36 38 40 42
31 35 38 42 46 48 50 51 49 50 48 44 42 42 44 48 51 52 50 45 43 47 48 43 42 45 49 46 44 42 42 38 35 35 35 34 34 35 38 37 36 37 38 39 40 41 42 43 45
37 38 43 47 49 52 54 61 57 57 53 51 50 47 46 46 50 52 52 48 44 45 48 43 43 46 45 47 45 41 41 37 36 35 35 36 34 34 37 39 39 40 41 43 43 44 45 47 48
40 42 46 49 53 55 53 64 66 65 63 58 56 52 49 51 49 51 52 51 46 46 45 42 44 46 45 46 45 42 39 36 35 37 37 36 36 35 37 39 41 42 43 45 46 47 47 49 50
44 48 50 53 54 59 56 66 72 67 73 70 63 60 57 54 51 50 52 53 51 47 44 42 44 45 45 44 43 41 38 37 36 36 38 39 37 37 39 40 41 44 45 47 48 49 49 51 53
45 48 51 56 59 60 61 56 63 67 67 70 70 64 61 55 52 50 52 52 52 46 41 40 43 43 43 42 41 41 40 37 37 36 37 40 41 42 42 42 44 46 48 48 49 49 51 52 52
46 46 49 50 55 55 52 57 53 42 55 59 66 67 61 56 51 50 50 53 52 48 43 40 42 42 43 43 40 41 41 38 36 37 38 40 42 43 42 43 44 46 47 48 49 51 51 51 52
41 43 44 49 49 53 50 58 56 42 42 36 44 54 59 54 50 47 48 52 50 47 43 42 42 41 42 42 40 40 42 40 36 37 39 40 41 41 41 41 41 43 45 47 49 51 51 52 52
40 38 40 45 49 53 56 57 43 31 35 29 20 32 46 49 49 46 48 49 50 46 44 43 43 42 43 43 41 40 42 39 36 37 38 40 40 39 39 39 41 42 45 48 49 50 51 52 54
34 34 37 44 50 57 60 41 37 29 31 23 21 27 28 41 44 44 47 48 47 45 43 43 42 40 42 43 40 40 40 38 37 37 38 39 38 39 40 41 43 43 46 48 49 50 51 54 57
35 35 36 42 40 42 41 23 29 28 33 30 20 27 31 39 43 44 42 47 46 42 43 42 41 42 43 43 39 40 39 39 38 38 39 38 38 40 42 43 43 45 46 48 50 52 54 57 59

GFSSGP_500_spd_015.txt.gz
Wind_Speed
23 23 24 25 28 27 26 28 28 26 25 26 22 22 23 21 24 23 23 20 22 22 21 18 19 19 20 19 21 21 20 19 17 16 15 14 15 14 14 14 14 14 16 16 15 16 17 17 18
21 21 22 23 24 25 23 29 29 31 28 25 25 24 23 26 24 23 23 22 23 24 23 20 18 19 20 19 19 19 19 19 18 17 16 15 14 14 14 15 15 16 16 17 18 19 18 18 19
24 24 25 24 21 17 21 33 31 31 30 28 28 25 27 29 22 22 23 23 23 24 24 22 19 18 19 20 20 20 19 19 18 17 16 15 14 14 15 16 17 17 17 16 14 14 15 14 14
27 28 29 27 21 18 23 29 33 31 31 29 29 27 29 27 26 24 24 23 22 22 23 25 24 23 21 20 21 22 21 19 19 18 17 16 16 16 16 16 16 16 16 17 18 18 18 17 17
30 30 31 28 21 22 26 28 26 31 33 31 32 32 31 28 25 24 22 22 23 25 24 25 27 26 26 26 23 23 22 19 19 19 18 16 16 16 16 16 16 15 15 16 15 15 15 14 14
34 32 32 28 23 24 28 30 28 27 32 33 30 33 32 28 29 26 24 24 27 30 29 30 29 27 25 26 23 24 24 20 19 19 19 17 17 17 17 17 16 15 15 14 13 13 13 14 16
36 35 31 29 27 26 27 34 30 27 28 31 34 33 36 34 31 30 28 27 27 28 29 29 28 27 27 26 23 23 23 22 21 20 21 19 18 18 18 18 17 15 15 15 16 18 19 22 22
37 37 34 29 26 23 29 35 33 31 27 33 31 31 36 37 33 32 31 30 29 30 30 28 29 28 28 28 24 23 23 21 21 21 22 22 21 20 19 19 19 19 19 19 20 20 22 22 25
37 39 33 26 22 23 33 34 37 34 31 29 29 34 40 34 34 34 34 33 32 31 30 30 29 30 26 28 26 25 23 22 21 21 23 24 24 23 22 23 23 23 24 24 24 23 23 23 25
38 39 32 27 27 28 33 34 40 35 33 33 30 32 32 38 35 36 36 35 34 34 32 32 31 29 28 31 29 27 25 23 21 21 23 24 25 26 26 25 26 27 27 28 27 26 25 25 27
37 39 30 33 31 32 33 34 37 36 35 33 33 34 37 33 35 38 37 38 37 36 33 34 32 32 31 30 30 26 28 27 25 23 22 25 27 27 28 29 30 30 30 30 30 28 27 28 29
39 37 35 33 31 33 31 33 36 33 34 34 35 36 32 30 32 34 40 38 38 36 35 35 35 34 33 32 31 31 30 31 29 27 27 27 28 30 31 31 33 34 34 32 31 31 30 30 31
38 37 36 33 32 33 33 32 32 37 34 31 30 29 31 31 30 30 33 39 40 36 36 37 36 34 35 34 35 34 37 33 31 33 31 30 29 28 29 32 34 35 35 35 34 35 32 30 34
40 37 35 33 31 32 32 32 35 34 33 35 34 31 29 31 30 30 31 33 38 39 37 38 37 36 35 36 36 36 35 34 34 35 36 32 29 28 28 30 33 35 35 35 36 35 32 33 34
39 37 35 32 32 31 31 32 33 32 35 34 33 33 34 34 32 29 29 32 35 39 40 37 37 37 37 36 36 37 37 38 37 37 38 35 31 32 30 31 34 36 35 35 35 34 33 33 33
40 38 36 36 33 32 32 31 32 33 34 35 33 34 35 36 35 32 31 32 35 36 38 41 39 37 37 36 36 37 38 40 38 38 38 36 34 34 33 34 36 36 36 35 36 35 35 34 34
40 39 38 37 35 35 34 32 33 32 33 32 35 34 35 35 39 37 35 35 35 35 36 37 42 41 39 38 38 38 39 38 37 38 38 37 34 35 36 36 37 37 36 36 37 36 35 35 33
40 40 39 36 35 36 35 34 32 33 34 34 34 34 33 34 35 41 39 39 38 38 39 37 37 41 43 41 40 40 41 38 37 37 37 38 36 37 39 38 36 38 38 37 37 36 36 35 35
37 35 35 35 36 37 37 36 36 36 35 36 36 36 36 37 37 39 45 44 43 42 39 41 39 40 42 45 43 43 42 39 39 38 37 36 36 38 40 38 37 39 39 39 37 37 37 38 37
32 32 34 35 36 38 37 36 39 38 37 37 39 38 38 40 42 43 42 46 49 48 45 44 45 43 43 41 47 48 47 43 40 39 38 37 36 37 39 39 39 39 40 40 40 40 40 41 42
27 30 32 35 37 38 41 42 43 44 43 43 42 43 43 44 44 46 47 46 48 52 48 47 45 48 45 42 47 48 50 45 43 39 41 39 38 38 38 38 39 40 40 42 42 43 43 44 46
27 30 34 37 41 43 44 49 49 48 51 54 56 54 54 52 48 48 48 47 49 50 51 51 48 51 49 42 47 47 47 48 44 42 40 40 39 38 37 38 39 40 41 43 45 47 47 47 47
31 33 38 41 45 48 48 59 53 57 58 62 65 66 62 60 57 54 51 50 48 51 53 51 50 49 49 42 46 49 48 43 41 41 41 40 39 40 38 38 41 42 42 43 45 47 47 48 49
33 37 40 45 49 54 54 61 61 58 59 63 66 70 72 69 67 62 57 53 53 51 52 52 51 48 46 44 46 49 46 41 42 41 42 40 40 39 40 40 42 44 45 46 47 49 49 49 50
36 39 43 50 53 54 57 63 62 53 61 62 67 73 76 77 72 70 65 57 52 53 52 52 50 50 46 44 47 46 44 44 41 41 40 40 38 37 39 42 44 46 48 49 49 49 48 48 49
36 41 44 51 54 55 57 66 62 57 56 59 61 59 61 57 68 68 68 64 57 53 53 50 49 49 45 45 46 43 43 44 42 40 39 37 37 38 40 42 44 46 47 48 47 47 47 47 48
40 42 44 49 49 52 54 57 57 52 49 53 54 55 56 55 54 67 66 65 57 54 52 50 49 46 44 45 44 42 42 42 42 40 39 36 38 40 41 43 44 45 45 45 45 46 47 48 50
42 42 42 43 47 51 54 56 57 43 40 38 44 44 38 43 49 61 64 58 55 53 51 50 49 48 46 44 42 43 43 42 42 40 39 37 39 40 41 42 41 41 42 44 46 47 49 51 51
36 39 41 43 44 48 56 55 35 35 30 33 36 34 29 32 40 46 46 50 52 51 49 49 49 47 44 42 42 43 42 41 41 39 39 39 39 40 41 41 41 42 44 46 47 48 50 51 51
33 32 41 41 40 48 49 46 37 30 28 28 30 32 31 41 41 46 47 46 47 49 46 46 46 46 43 44 44 43 42 41 39 39 39 39 39 40 41 42 43 45 46 46 46 49 51 51 53

GFSSGP_500_spd_018.txt.gz
Wind_Speed
31 30 30 31 32 30 27 24 29 25 23 26 23 20 20 20 28 26 26 24 23 22 22 20 19 21 21 21 20 23 24 23 23 22 20 19 18 17 17 17 16 15 15 15 15 16 16 15 16
29 28 28 30 28 27 22 26 33 28 32 23 24 25 23 26 28 25 23 22 21 23 23 22 19 21 22 23 22 22 22 22 23 22 21 19 19 18 17 17 17 16 16 16 16 17 18 18 17
28 28 28 27 24 19 19 29 33 32 27 27 26 27 26 33 25 21 25 23 23 23 23 23 21 20 20 22 22 22 21 20 22 23 22 20 20 19 18 18 17 17 17 17 17 17 17 15 14
29 29 28 28 20 17 20 26 31 28 26 28 29 24 32 31 24 23 27 24 24 23 23 23 24 25 22 21 21 21 22 22 23 24 23 22 21 20 19 17 18 17 17 17 17 17 19 18 18
32 30 30 28 21 19 23 28 29 21 27 29 30 27 35 31 25 27 26 25 25 23 24 24 24 25 25 23 23 23 25 23 24 25 24 23 22 21 19 18 17 17 17 16 16 16 16 17 17
35 33 32 27 21 23 26 28 29 26 26 27 29 29 37 30 30 27 28 27 27 25 25 26 28 27 27 25 25 23 23 24 24 25 25 23 23 21 19 19 18 17 17 16 16 16 16 15 16
35 36 34 30 28 25 24 26 33 27 29 26 27 32 34 38 30 30 30 30 29 30 26 28 28 28 28 27 25 26 22 22 23 24 25 24 23 23 20 18 19 17 17 16 16 16 17 18 21
35 38 36 33 30 21 24 31 36 29 30 29 29 23 34 40 29 32 32 30 29 29 28 28 28 29 28 26 26 25 24 22 23 24 24 24 24 24 23 20 20 19 19 20 19 20 21 22 23
37 39 39 33 28 24 29 35 40 29 34 32 29 23 35 36 29 31 32 32 31 30 30 29 29 29 28 25 25 27 24 22 22 22 24 24 25 25 26 24 23 23 22 23 24 25 25 25 25
39 39 35 32 31 33 33 36 36 28 35 32 33 30 32 30 31 31 35 36 35 33 32 32 29 28 29 28 27 26 26 25 25 22 23 24 25 26 27 27 27 27 26 27 28 29 31 30 28
42 40 36 31 34 35 33 34 33 37 33 30 34 33 35 33 29 28 34 38 37 37 35 33 33 31 30 29 29 28 28 27 26 26 25 23 23 24 26 27 29 29 30 30 30 31 33 32 32
43 43 39 34 34 35 31 35 36 35 32 34 36 34 36 32 29 28 30 34 38 40 36 35 35 36 32 32 30 30 30 29 29 28 28 28 26 27 25 27 28 31 32 33 34 34 34 33 34
44 45 41 38 36 33 34 36 35 36 37 33 34 33 33 26 22 31 30 31 33 36 38 38 38 37 36 35 31 31 31 31 31 32 32 31 30 30 28 29 29 28 31 32 33 34 34 36 36
43 43 43 40 35 35 37 36 38 37 35 36 36 32 31 30 27 32 30 30 33 35 34 40 40 37 39 36 32 31 32 31 33 33 31 31 33 33 30 30 31 30 30 30 32 34 35 35 35
42 41 44 42 37 38 39 37 36 37 38 35 33 33 31 32 32 32 31 31 30 33 35 36 38 39 38 37 35 33 33 32 33 33 36 36 36 36 34 31 32 32 31 33 33 34 34 34 34
42 44 43 42 40 40 39 35 34 38 36 34 33 33 31 31 32 34 33 33 32 32 34 34 35 35 38 38 37 34 33 35 33 35 36 36 36 37 35 33 33 34 34 34 35 36 35 35 35
43 43 41 42 40 41 40 38 37 37 34 33 34 33 31 30 31 32 36 36 35 35 36 34 29 30 34 38 41 38 36 36 35 36 35 34 36 36 37 35 35 35 36 37 36 37 35 36 36
42 42 42 40 43 41 42 40 39 38 37 35 35 35 35 33 33 33 34 39 40 38 38 37 33 28 32 33 39 41 40 39 36 36 34 36 36 36 36 35 36 36 37 38 37 38 37 37 36
42 41 38 39 39 40 41 42 41 40 38 35 37 39 39 38 38 35 34 34 41 42 43 43 39 33 33 32 36 37 41 43 42 38 35 36 37 36 35 35 38 39 38 39 38 39 39 39 38
38 37 34 34 36 41 40 41 41 40 38 40 39 40 41 42 42 42 39 37 37 41 46 46 46 42 37 37 36 39 40 40 41 41 41 37 37 37 37 36 39 39 39 40 40 40 40 40 41
33 34 32 32 34 34 38 39 38 39 39 39 40 41 43 45 46 46 46 44 40 41 42 47 50 48 48 44 40 38 39 40 41 40 42 42 41 39 39 38 39 40 39 40 40 39 40 42 44
28 29 26 27 28 31 34 41 37 39 41 43 45 46 49 51 51 51 51 50 48 44 45 47 48 52 53 50 44 42 40 41 45 43 41 40 41 38 39 39 40 41 40 40 41 42 42 43 44
23 22 24 26 30 33 35 43 42 43 46 48 56 58 58 59 59 60 58 57 54 52 49 47 48 48 52 52 48 46 43 42 45 46 42 39 39 37 38 39 40 40 41 42 42 42 44 46 47
21 23 27 31 34 38 42 47 41 49 51 54 59 62 65 67 70 69 67 64 61 57 55 51 49 47 48 48 49 49 47 43 47 44 44 40 41 38 37 39 41 40 40 41 43 44 46 49 50
24 27 32 35 38 40 49 52 45 45 47 51 58 58 58 62 67 69 70 69 66 62 61 58 54 49 46 47 47 49 47 45 46 45 45 41 40 39 38 38 41 40 41 42 43 45 46 48 49
26 29 31 38 42 44 50 49 40 43 44 51 58 61 61 59 62 69 70 72 71 66 61 64 61 54 48 47 46 47 49 44 44 45 44 41 41 39 38 39 40 41 42 43 45 45 46 46 45
26 32 36 39 43 44 45 46 46 49 46 45 51 51 51 55 64 66 65 66 67 66 63 58 65 57 49 47 48 49 48 45 45 44 42 41 41 38 40 40 40 41 42 43 44 45 45 45 47
33 32 34 38 43 45 49 49 48 45 47 50 56 53 53 45 55 53 51 56 54 55 55 56 59 63 53 48 49 48 43 46 45 42 41 41 39 39 39 39 39 40 41 42 43 44 46 49 51
31 31 34 38 40 45 44 52 48 42 44 48 49 48 50 48 48 47 40 44 52 53 50 52 61 65 57 47 47 46 45 44 42 41 40 38 39 39 37 37 38 40 41 42 43 44 47 50 51
28 28 29 33 36 44 45 43 39 46 52 50 51 47 40 42 44 43 40 41 51 53 52 60 64 61 54 46 45 48 44 43 41 40 39 37 38 38 36 38 38 38 40 41 43 45 50 49 50

GFSSGP_500_spd_021.txt.gz
Wind_Speed
32 33 34 35 33 30 26 24 28 26 25 23 17 17 16 20 23 24 22 21 22 20 20 20 19 18 21 22 22 20 20 22 24 24 23 23 22 20 20 19 18 18 17 16 16 15 15 15 16
36 36 36 37 35 33 25 31 34 34 29 23 20 22 22 27 25 21 21 21 22 20 21 20 18 18 20 21 22 22 22 21 21 23 23 24 23 23 21 20 20 19 19 18 16 15 15 16 17
37 36 35 36 32 23 22 32 34 36 32 26 27 24 27 33 22 21 21 21 23 22 20 19 20 19 21 21 22 23 24 23 23 23 22 23 23 23 22 21 21 21 20 19 18 17 17 16 17
37 36 35 33 26 21 21 29 33 33 24 25 28 26 32 34 24 23 27 22 23 22 21 20 21 22 23 22 22 21 23 23 23 23 23 23 25 24 23 23 22 22 21 20 19 19 18 18 19
36 36 35 32 24 21 20 27 30 26 21 23 26 29 32 33 25 26 29 26 23 24 24 23 23 24 24 26 23 23 23 24 25 25 25 25 26 26 25 24 23 21 20 19 19 18 19 18 17
38 36 35 30 23 24 25 26 31 27 24 27 21 29 34 32 29 27 31 28 26 25 27 25 25 25 26 26 27 24 23 24 25 26 27 26 26 26 26 25 23 21 20 20 19 18 17 16 16
36 37 33 31 27 25 22 27 33 30 27 28 28 27 35 31 31 30 32 32 29 27 27 26 25 25 25 26 24 23 24 22 23 23 23 24 25 26 25 25 24 21 20 19 18 17 17 17 17
36 38 36 32 28 20 22 28 34 34 29 29 32 27 33 30 29 29 32 32 29 27 27 27 26 25 24 24 24 24 24 22 20 22 21 21 22 23 24 24 24 23 22 20 20 20 20 21 21
39 41 36 28 26 19 26 31 37 39 31 29 33 28 31 31 26 28 30 33 31 29 29 28 28 26 25 25 24 24 24 23 21 20 21 22 21 20 22 23 24 24 24 23 23 24 25 26 26
41 39 34 29 29 25 31 34 36 38 27 27 31 28 30 32 28 23 28 33 35 33 33 32 30 28 28 27 26 25 24 24 24 23 22 22 23 20 19 21 23 25 26 27 26 27 28 29 30
40 38 36 33 32 32 32 32 33 36 32 24 32 30 33 33 32 26 24 28 30 33 34 34 33 32 32 30 30 27 26 25 24 25 26 24 22 23 20 20 21 24 26 28 30 31 30 31 32
43 41 40 35 35 36 30 29 32 32 35 31 30 35 30 32 31 26 25 27 29 30 32 33 34 34 34 33 32 31 28 27 26 27 28 28 27 23 24 23 24 25 26 27 28 30 31 32 33
46 45 42 39 38 38 32 29 33 34 36 34 33 35 33 30 29 28 26 29 32 30 30 32 33 35 37 35 35 33 33 31 29 29 30 29 29 28 24 26 24 28 29 29 29 27 27 28 30
49 47 44 39 38 39 36 31 37 35 35 36 35 36 34 32 28 27 30 32 31 31 29 29 32 34 35 35 36 34 34 33 31 30 31 30 31 27 29 28 29 29 32 32 30 29 30 31 32
48 47 43 41 39 40 41 36 37 35 37 36 35 35 37 33 33 29 33 37 32 34 33 29 30 33 34 33 34 36 35 32 31 30 30 30 31 32 34 31 32 32 32 32 32 32 33 34 33
48 47 45 39 41 41 42 37 36 38 38 37 36 35 36 33 32 33 33 36 33 34 35 32 28 28 31 30 31 34 38 35 31 31 31 30 30 31 33 31 32 33 33 32 31 31 33 34 35
47 45 44 41 42 43 41 40 39 41 39 37 37 35 36 35 33 31 31 33 35 35 35 36 34 29 29 30 29 30 32 34 33 33 32 29 29 32 31 31 33 33 32 33 33 33 34 34 35
40 44 45 43 43 45 43 42 40 41 41 38 38 37 37 36 34 33 35 35 35 36 38 39 39 34 30 32 31 28 28 29 33 34 34 32 31 31 31 32 34 34 32 33 34 35 36 35 35
41 42 40 39 41 42 41 42 40 41 41 41 41 40 39 40 39 38 37 37 37 37 41 43 42 39 35 32 34 33 34 34 32 30 33 35 35 31 32 33 33 35 34 34 35 36 37 36 36
37 36 35 36 40 44 40 39 41 41 41 43 42 41 40 42 43 43 42 42 41 40 40 42 44 42 38 37 35 40 37 37 34 32 33 33 35 35 36 36 36 36 38 37 37 38 38 38 38
30 35 34 34 35 37 39 38 38 38 38 40 42 42 42 43 45 45 46 45 44 43 43 42 44 45 42 41 43 44 42 37 36 33 37 38 37 34 33 34 37 38 40 38 38 38 39 39 40
26 27 27 29 29 32 35 39 32 35 37 37 37 41 43 43 44 44 46 47 49 48 46 46 46 46 44 41 45 46 46 44 42 39 40 41 40 36 35 36 34 36 37 38 38 38 39 41 41
22 22 21 24 26 27 28 35 32 29 31 36 40 42 45 47 49 51 52 53 53 53 52 50 50 50 49 45 44 47 48 49 48 44 43 41 43 37 37 38 35 35 35 38 37 38 40 41 42
18 18 20 21 22 26 27 31 33 33 36 40 45 50 53 54 57 59 60 60 61 61 60 60 57 55 53 50 47 48 45 46 48 48 49 43 45 39 38 38 36 36 36 38 38 40 41 42 43
16 17 20 23 25 26 30 33 31 38 43 45 46 47 48 50 51 53 54 55 58 62 64 66 65 62 61 56 51 48 44 46 47 50 51 46 46 41 38 38 39 38 37 39 38 40 41 42 43
18 18 22 25 27 31 35 37 37 37 39 43 45 48 51 55 58 57 56 54 55 60 63 60 65 64 63 62 57 50 46 46 47 48 48 46 45 42 39 40 41 41 39 38 37 40 41 42 42
15 19 22 27 30 35 36 35 32 38 36 40 45 51 51 52 57 60 55 50 50 51 60 57 61 64 64 61 61 55 49 49 47 46 47 46 43 42 40 41 42 42 40 37 37 40 42 43 43
19 20 24 27 33 34 31 31 35 36 32 40 46 50 51 56 58 57 53 46 41 45 50 55 61 60 60 61 58 57 52 51 47 46 47 45 43 42 41 41 41 41 38 37 38 41 42 43 43
20 22 25 26 26 30 32 31 30 34 39 43 47 51 53 54 56 59 55 41 35 40 48 53 58 57 54 56 58 55 55 50 48 47 47 41 44 43 40 39 40 38 37 37 38 41 43 43 44
18 20 21 21 23 25 28 28 29 28 33 42 53 58 51 55 58 52 42 32 31 37 41 41 54 58 56 54 53 53 54 50 47 48 42 41 42 40 39 38 38 37 37 37 39 41 43 42 45

GFSSGP_500_spd_024.txt.gz
Wind_Speed
32 32 31 31 29 27 25 25 29 27 27 23 20 21 23 22 21 22 18 20 21 20 18 18 18 17 17 19 19 20 20 19 19 21 23 23 23 22 22 22 21 20 20 20 19 19 19 18 18
35 35 34 34 33 30 26 30 33 30 30 27 26 26 27 26 22 22 21 21 19 19 18 18 19 19 20 19 18 20 20 21 22 21 21 22 23 24 24 24 23 22 21 21 20 20 19 19 18
37 37 37 38 36 28 27 38 38 35 33 29 30 31 33 28 23 22 21 21 21 21 18 18 19 18 21 22 21 20 21 22 22 23 23 23 23 23 24 24 24 23 22 22 21 21 21 19 18
39 39 39 38 31 26 29 37 38 38 38 31 34 35 35 32 26 24 23 23 23 22 20 20 20 21 22 23 23 22 21 21 22 22 22 23 24 24 23 24 24 24 24 23 23 22 21 20 20
43 42 42 38 29 25 29 34 35 35 30 29 31 34 35 34 30 27 26 26 24 23 22 22 22 23 23 23 23 22 23 23 24 24 24 23 24 25 26 25 26 25 25 24 23 22 21 20 20
45 45 43 36 26 26 27 32 36 33 30 27 27 33 33 34 29 29 28 27 27 26 26 26 23 23 23 24 24 23 21 23 22 23 24 27 27 26 24 25 26 26 25 24 23 21 20 19 19
46 44 41 33 30 31 26 33 36 33 30 27 27 31 31 30 29 28 29 29 29 29 27 26 25 24 24 24 23 22 21 19 18 20 21 22 23 24 23 22 23 24 24 23 22 21 20 21 20
46 45 42 36 33 27 28 32 34 36 32 30 30 30 30 29 29 26 28 29 27 28 27 27 27 25 25 24 23 23 22 21 19 19 19 20 21 21 22 22 21 22 22 22 22 22 21 22 23
45 47 41 35 31 25 28 31 33 36 35 30 29 30 30 31 29 27 28 30 30 30 30 29 26 27 26 26 25 24 24 23 22 20 19 21 20 20 20 21 20 21 22 23 24 23 24 26 27
47 46 39 33 30 30 35 38 37 36 33 27 27 31 31 31 31 29 28 29 30 32 33 33 31 29 27 28 28 27 25 25 24 23 22 21 20 21 20 20 19 19 20 23 25 26 28 28 30
47 45 38 34 33 36 36 36 36 37 31 24 27 33 31 33 30 28 27 27 28 30 31 33 32 31 30 30 29 29 28 27 25 25 24 22 22 22 21 20 20 21 21 21 22 25 28 30 32
46 44 39 36 38 37 38 37 37 36 31 25 24 31 31 31 28 24 24 24 24 26 29 31 32 32 33 33 33 33 31 30 28 27 26 26 26 27 22 21 23 22 24 24 25 24 25 26 29
48 46 42 40 40 40 37 35 34 34 33 30 28 32 34 30 28 27 25 25 27 27 29 28 29 29 31 32 33 33 33 31 30 30 28 28 28 30 27 24 25 23 25 26 28 28 28 28 27
50 49 47 43 41 39 36 32 33 34 36 36 31 31 34 33 29 29 29 27 32 33 32 31 29 30 31 32 32 34 36 34 32 31 30 29 29 29 28 28 26 29 30 29 29 29 28 29 30
52 50 48 44 41 43 44 38 34 35 39 39 35 31 33 33 32 30 29 32 36 36 33 30 30 31 31 31 29 31 33 35 34 34 32 31 29 28 28 30 30 30 28 29 30 30 29 30 31
51 52 50 44 47 45 46 38 36 38 41 42 38 34 33 32 31 31 32 34 37 38 33 32 32 31 32 32 29 29 30 31 32 34 34 30 29 29 29 29 29 30 30 30 29 30 30 31 32
50 50 48 47 48 47 47 41 37 41 41 42 40 38 34 33 35 33 31 34 38 41 39 37 35 32 31 33 32 30 29 29 28 31 31 29 31 32 31 30 30 31 33 32 32 31 30 31 33
48 48 48 46 47 47 46 44 38 39 41 41 40 42 39 36 35 37 36 36 37 41 41 39 36 34 34 36 35 33 31 27 27 28 28 31 34 34 32 32 31 31 32 33 33 32 32 33 35
47 46 47 44 44 46 45 45 40 35 41 42 43 42 42 40 38 39 39 38 39 40 41 40 39 37 37 38 37 37 36 34 32 31 29 27 30 31 33 34 35 34 34 34 35 36 36 37 37
43 42 40 42 43 45 44 42 40 38 39 41 41 43 42 41 42 43 42 42 42 43 43 44 44 42 40 41 41 41 43 40 38 34 32 30 31 32 31 32 32 31 33 36 38 38 37 37 38
34 37 38 41 42 42 41 42 38 36 38 39 40 42 43 42 44 44 44 44 44 44 44 45 45 45 46 44 43 45 45 45 40 36 33 33 37 38 35 33 33 31 31 34 36 36 37 38 37
33 31 31 32 34 37 36 41 31 33 35 34 36 39 40 40 41 41 43 45 45 45 46 46 46 48 49 49 47 44 46 46 46 45 42 42 40 38 37 36 36 35 34 34 35 34 35 37 38
29 28 24 26 28 31 28 37 28 25 29 29 29 33 36 39 40 41 42 44 46 48 48 47 47 48 50 51 51 48 45 44 47 49 48 47 48 44 42 39 37 37 38 36 34 35 35 37 38
24 23 24 23 22 27 20 28 30 24 26 31 35 37 40 43 45 47 48 50 52 54 56 57 57 55 54 54 54 54 51 47 44 47 51 51 51 50 45 45 41 40 40 39 36 36 37 38 39
23 23 22 20 19 17 18 24 24 27 29 34 36 41 43 47 49 52 54 55 56 58 60 62 62 64 63 61 59 59 57 54 48 46 48 51 50 49 47 47 46 42 41 41 40 39 39 38 39
23 19 16 17 16 19 23 25 26 31 33 38 41 42 44 46 48 49 50 52 55 57 58 58 60 61 62 61 65 66 63 61 55 51 50 50 49 48 49 47 46 44 42 43 42 41 41 40 41
16 17 16 17 20 23 23 24 27 29 32 34 36 38 40 42 44 48 51 53 53 54 57 61 63 66 67 65 62 63 68 67 63 55 54 53 50 48 48 46 45 45 42 43 43 43 41 40 42
15 14 15 17 22 23 23 22 20 26 30 32 36 36 37 39 43 51 57 60 60 60 60 58 59 63 63 65 60 60 61 66 63 60 57 55 51 47 49 44 44 44 42 42 43 43 41 41 42
12 14 16 18 20 22 20 13 16 24 30 30 31 35 41 45 54 60 56 55 53 55 54 52 56 60 62 61 59 57 57 62 60 63 61 57 53 48 47 43 44 44 40 42 44 42 41 42 42
13 14 15 16 18 18 19 4 22 25 24 27 32 41 44 52 54 51 51 49 46 45 39 42 47 52 57 59 55 52 57 59 63 60 61 56 50 48 44 43 43 43 40 39 42 37 48 43 42

GFSSGP_500_spd_027.txt.gz
Wind_Speed
36 34 32 31 30 26 24 25 26 26 25 25 26 27 26 27 26 24 19 21 20 18 16 17 16 17 18 18 18 17 17 18 18 19 19 20 22 23 22 22 22 22 21 21 20 19 19 18 18
37 35 34 33 31 27 24 27 28 26 27 25 25 27 25 26 24 23 21 21 20 18 17 17 16 16 19 20 20 18 18 18 19 20 20 20 20 21 23 23 23 23 23 22 21 20 20 20 18
38 37 37 36 32 26 24 30 32 29 29 28 27 27 28 29 26 24 23 22 22 19 17 18 17 18 18 19 20 19 19 19 20 20 20 21 20 21 22 23 22 22 22 22 22 22 22 22 20
40 40 39 38 32 27 28 37 35 33 32 31 32 33 33 30 29 27 25 23 23 23 21 20 21 21 20 21 20 19 20 21 21 20 22 21 21 22 22 22 22 22 23 23 23 24 24 23 21
43 43 43 39 32 28 33 39 37 36 35 32 34 36 37 34 32 31 29 28 27 27 25 24 23 23 21 21 22 20 20 21 21 22 23 23 24 24 22 22 23 22 23 23 23 24 24 23 22
45 45 43 38 28 29 34 39 37 36 33 32 31 37 38 34 34 34 32 31 30 29 29 27 25 23 23 23 23 21 19 20 21 21 21 21 22 24 25 24 23 23 22 21 22 22 23 23 21
47 45 42 37 28 33 34 40 38 38 34 30 31 34 34 33 30 32 31 31 31 30 29 28 27 25 25 23 22 21 20 21 18 18 18 17 18 19 21 21 21 21 22 21 21 21 21 21 21
50 48 45 39 32 31 35 40 40 37 32 30 32 30 27 29 27 27 28 31 31 31 30 30 29 27 26 24 24 22 22 22 21 19 19 17 16 18 18 18 19 20 21 21 21 21 22 22 22
51 50 46 41 34 33 36 39 39 38 34 31 31 29 27 30 30 26 26 26 30 32 32 32 30 28 28 27 26 25 24 22 22 21 21 19 17 17 18 19 19 19 20 21 22 23 23 24 25
52 50 46 42 35 36 39 40 40 39 39 31 28 28 29 32 31 26 26 27 29 30 32 32 31 30 30 29 29 27 25 24 24 23 23 22 21 20 18 19 20 19 18 19 20 20 22 24 26
48 49 47 40 38 38 41 42 42 40 38 29 25 27 28 32 30 28 27 27 29 32 31 31 32 32 31 30 30 29 29 27 26 25 25 25 24 23 22 21 21 21 22 22 22 21 21 22 23
45 46 43 39 39 41 43 45 42 40 34 31 27 28 31 34 31 28 28 29 30 30 29 29 29 30 31 32 32 32 32 32 29 29 27 27 27 26 24 25 25 23 22 24 23 23 23 24 24
44 44 41 39 40 42 42 42 39 37 36 35 30 32 34 36 33 28 27 29 29 29 28 28 30 29 29 29 30 31 33 33 33 31 28 28 28 27 26 27 28 26 25 25 24 26 27 27 27
45 45 43 43 43 43 42 40 39 37 36 36 33 35 35 35 31 30 27 28 30 32 31 34 33 32 32 32 32 32 33 34 32 31 29 29 29 28 27 28 29 28 27 26 28 28 28 28 28
49 46 46 44 43 43 43 40 38 36 39 40 39 37 37 35 32 28 28 31 30 32 34 35 35 34 31 33 33 33 34 34 31 30 30 31 30 27 28 29 28 28 29 28 27 28 28 28 28
50 48 48 44 45 45 46 40 40 39 38 42 43 38 36 36 36 33 30 29 32 34 35 36 37 35 33 33 36 34 34 34 31 29 30 31 30 29 29 30 30 29 29 28 29 30 30 29 30
50 50 49 47 48 47 48 43 40 43 41 43 42 40 38 37 37 36 34 31 33 36 38 38 39 37 35 36 38 37 33 32 31 30 30 29 31 31 31 31 30 30 30 29 31 32 31 31 32
48 47 47 46 48 48 48 47 41 42 42 43 43 43 41 39 36 39 40 38 37 37 40 42 41 40 38 39 39 39 36 33 33 32 31 30 30 32 33 33 33 33 33 33 33 33 35 35 34
50 50 48 44 45 47 47 48 42 42 45 44 45 45 44 42 39 41 43 41 39 39 40 42 44 43 41 40 39 40 38 36 38 37 34 32 30 30 31 33 35 36 35 35 35 36 37 37 38
48 48 45 44 46 47 44 44 41 41 43 45 46 44 42 43 41 41 44 45 43 42 42 43 45 47 46 43 41 41 41 43 42 40 38 34 33 34 35 35 36 35 33 32 33 34 35 34 34
41 40 41 42 44 44 43 44 42 39 41 42 42 43 41 40 39 41 43 45 46 44 44 44 46 49 50 49 46 45 45 44 44 43 40 37 37 40 42 39 38 37 35 34 35 37 36 35 35
31 33 33 35 39 41 42 43 35 36 37 36 37 38 38 38 38 39 41 43 44 47 48 48 47 49 51 53 53 50 47 46 43 43 47 46 43 44 43 42 39 37 37 37 36 38 38 37 37
31 29 28 29 33 37 35 42 31 28 30 31 31 35 37 38 39 39 41 42 44 46 48 49 49 49 49 52 53 53 51 49 48 46 43 49 49 48 47 47 45 43 41 42 38 39 40 40 39
28 30 30 29 28 33 24 33 33 21 25 26 26 29 33 35 38 40 41 43 45 47 49 51 51 52 52 51 52 54 55 53 51 48 45 46 48 50 51 50 49 49 47 47 46 41 41 41 42
24 26 27 27 27 25 22 28 23 19 19 25 29 33 35 38 41 43 46 49 51 53 56 57 58 59 59 60 59 59 59 57 55 54 51 48 48 49 48 49 49 49 48 46 49 46 43 44 43
26 26 24 22 20 20 21 23 19 21 22 26 32 35 38 41 44 47 50 52 54 56 59 62 63 65 66 66 66 67 66 65 63 62 58 54 51 48 49 49 48 48 48 48 48 47 45 45 45
22 21 21 19 20 21 19 17 18 22 27 30 32 35 37 40 43 46 48 51 54 57 58 60 62 65 67 68 68 68 69 70 71 70 68 62 57 55 50 50 49 49 48 49 47 47 46 45 46
20 20 18 17 19 18 16 16 17 23 26 27 28 32 35 39 41 43 46 49 53 56 60 63 65 66 68 69 70 70 68 67 69 69 70 69 63 56 54 53 50 49 48 48 47 47 45 45 47
17 15 15 15 16 17 15 13 17 23 21 23 27 28 31 33 38 44 46 51 53 55 59 61 62 60 63 70 70 68 69 69 70 68 65 64 63 58 58 57 52 50 49 47 47 47 45 47 43
12 13 15 16 15 15 18 12 20 18 21 23 23 27 30 36 41 44 45 47 49 56 60 59 57 53 54 60 64 67 64 67 70 71 68 64 60 60 58 58 57 53 49 49 48 47 46 45 51

GFSSGP_500_spd_030.txt.gz
Wind_Speed
39 37 35 35 34 32 30 30 30 30 29 28 28 28 27 25 26 25 20 22 22 20 17 16 16 17 19 18 16 16 16 16 17 17 17 17 17 18 21 22 21 20 20 20 20 21 21 20 19
40 38 36 35 35 29 28 30 29 28 27 27 27 27 26 27 26 23 23 23 22 19 18 17 17 18 18 18 18 18 18 18 17 17 18 17 17 18 18 18 19 20 21 20 20 20 21 21 20
41 39 39 39 35 27 27 29 30 26 27 27 25 25 25 24 25 23 22 22 21 19 18 19 18 18 17 16 16 17 17 17 18 18 17 18 18 18 18 18 19 19 19 20 20 20 21 21 21
42 41 41 40 31 28 28 31 30 28 28 27 26 27 25 24 24 22 22 23 23 23 22 21 21 20 20 17 17 17 16 18 19 19 18 17 18 19 19 19 18 19 20 20 20 20 20 21 22
44 43 43 41 32 28 29 34 32 30 30 29 29 28 27 25 26 26 26 27 27 27 26 25 24 23 23 21 20 20 18 19 19 19 19 18 19 18 20 21 21 21 21 21 22 21 21 21 21
46 45 45 39 29 27 31 36 36 33 33 31 31 32 32 32 32 31 31 30 31 31 30 30 28 26 26 26 24 22 19 20 20 19 17 17 17 17 17 18 19 21 20 20 21 20 20 20 20
46 45 43 37 32 32 32 38 38 36 35 32 32 34 33 33 31 32 31 31 32 32 33 31 30 28 27 27 24 23 22 21 20 19 17 16 15 15 15 15 16 17 18 18 19 20 20 19 19
49 47 46 41 36 30 36 39 40 37 34 31 33 31 28 30 27 27 26 27 29 31 32 31 31 30 28 27 26 25 23 22 21 20 19 18 16 15 15 16 16 16 16 17 19 19 20 21 21
50 49 46 42 39 31 35 38 40 37 33 33 33 29 28 29 27 25 25 23 24 27 30 31 31 31 30 28 28 28 25 22 22 21 20 19 18 16 16 17 18 18 18 18 18 19 19 22 23
51 49 44 43 40 34 36 39 39 39 35 35 32 30 30 28 28 27 26 26 27 28 30 29 29 30 30 30 29 29 27 25 24 23 22 21 20 19 19 19 18 18 18 19 21 21 18 19 19
51 48 47 43 41 36 36 37 39 40 39 34 32 31 29 26 26 27 26 27 29 31 28 26 28 28 29 29 29 29 29 28 26 25 25 24 23 22 21 21 20 20 21 22 23 23 23 22 21
50 48 48 46 44 40 39 40 41 43 38 37 32 30 29 26 26 28 28 29 31 31 31 28 26 25 26 27 28 30 30 30 30 29 28 27 27 25 25 24 24 23 23 24 24 24 24 24 24
46 46 42 40 42 40 41 43 45 42 39 39 32 32 32 31 29 29 29 29 28 30 31 32 31 27 27 28 28 29 30 30 32 31 30 30 29 28 28 28 27 27 26 26 25 24 24 26 27
44 44 38 36 36 38 41 45 46 41 39 39 36 35 36 35 33 31 27 27 27 28 29 34 35 33 33 31 31 31 32 33 33 32 30 30 31 30 29 29 30 29 28 27 26 24 25 25 25
46 44 41 36 34 39 43 45 45 41 41 40 39 36 38 37 36 34 30 27 27 27 30 33 36 40 36 34 34 34 34 34 33 32 30 29 31 31 30 30 30 30 29 28 28 26 26 25 25
48 46 42 37 34 40 44 43 45 42 41 40 41 40 38 37 35 34 34 33 31 31 32 35 37 40 42 39 36 36 36 35 33 31 29 29 30 30 30 30 31 30 30 28 29 29 28 28 28
47 46 43 39 38 40 44 43 43 42 40 41 41 41 39 36 37 36 35 37 37 35 34 37 39 40 42 42 40 39 38 35 33 33 31 30 31 31 30 31 32 32 31 29 31 30 30 31 32
47 45 42 40 40 40 43 45 41 42 42 42 41 42 42 42 41 41 41 40 41 40 38 40 40 41 42 41 41 40 39 36 34 35 34 34 34 33 32 32 33 34 32 33 33 33 34 34 35
45 44 42 42 42 42 43 47 41 42 43 42 43 44 45 44 43 44 44 44 43 42 42 41 42 42 42 42 42 42 41 39 38 38 40 37 35 35 35 33 32 33 33 34 34 35 33 34 34
48 45 41 38 40 43 42 45 41 40 43 45 46 45 46 46 44 43 45 47 46 45 45 44 44 46 47 44 43 43 45 44 43 43 43 41 37 38 37 37 37 37 37 34 34 33 32 34 35
44 43 39 40 41 43 41 42 38 38 40 42 43 43 44 45 45 46 47 48 49 48 46 47 47 48 50 49 47 47 46 45 45 44 42 41 42 42 42 41 42 43 41 38 36 36 37 37 38
39 40 39 39 41 42 41 42 35 37 39 40 40 40 41 42 42 43 45 47 47 47 48 49 49 48 50 52 51 48 47 47 47 47 46 46 46 46 47 45 47 45 44 41 39 40 37 38 39
34 35 35 35 37 38 37 40 27 31 35 35 34 35 38 40 41 42 43 45 47 46 46 46 50 52 51 53 54 54 52 48 48 48 48 47 48 47 47 47 50 48 47 46 43 43 44 42 43
26 29 28 28 29 33 27 32 27 23 29 31 32 32 35 38 41 42 43 43 44 45 45 47 48 50 54 55 57 59 60 59 57 52 50 49 49 50 49 47 50 50 50 49 48 47 48 48 46
24 26 27 27 27 28 23 25 26 21 23 27 30 32 35 36 39 40 41 43 44 46 49 50 52 53 55 57 58 59 60 60 60 59 57 54 52 51 51 49 49 48 49 50 49 48 47 46 46
25 26 26 26 23 23 20 22 23 21 19 25 31 33 34 35 37 40 42 44 46 49 52 55 58 60 63 64 65 66 67 65 63 62 61 59 55 53 53 52 51 49 47 48 48 46 46 45 45
23 24 22 21 21 20 19 17 20 22 23 24 25 26 29 33 37 39 43 46 47 50 53 55 58 62 66 68 70 72 72 73 73 71 69 67 65 58 56 56 54 53 52 48 48 47 46 47 46
22 22 22 20 20 18 16 14 18 21 23 23 23 23 24 27 31 34 38 41 44 46 48 51 54 57 61 66 69 72 74 75 75 75 75 74 71 67 60 58 57 56 47 56 51 49 47 47 47
20 19 20 18 16 14 13 13 18 21 21 22 23 22 27 29 30 32 33 38 41 41 42 46 50 53 60 65 67 71 73 74 75 75 75 74 72 69 67 63 60 57 55 58 56 52 48 47 48
15 15 13 14 14 12 14 14 17 20 18 19 21 26 30 34 37 37 37 34 33 36 38 41 45 50 59 63 68 70 68 70 73 75 75 74 73 69 66 64 65 60 57 58 57 55 52 48 48

GFSSGP_500_spd_033.txt.gz
Wind_Speed
42 40 39 38 37 34 30 29 28 28 27 25 24 24 23 22 20 20 19 18 19 20 18 17 19 19 19 18 16 16 16 15 14 14 14 14 15 16 16 16 18 19 20 20 20 19 19 18 18
43 42 41 40 39 35 30 31 31 30 28 27 26 26 26 24 22 19 20 19 20 20 19 18 19 21 18 19 18 17 17 17 17 17 16 16 16 15 16 16 17 16 16 17 17 18 18 19 19
44 43 43 43 41 33 31 35 33 31 30 31 29 28 27 25 22 19 19 19 19 19 19 18 17 18 18 18 18 17 16 16 16 16 16 17 18 18 18 16 16 17 17 17 17 17 18 19 19
44 45 45 45 37 32 33 35 33 31 31 30 27 25 24 23 21 18 17 17 17 18 19 20 20 20 20 18 18 18 18 19 19 19 18 18 17 18 18 18 18 17 16 16 17 17 18 19 19
45 45 46 44 35 33 35 37 34 33 32 29 27 25 24 21 20 18 18 19 20 21 21 23 24 24 23 22 20 20 20 21 20 20 20 20 19 19 18 19 18 18 18 18 18 18 18 19 20
46 47 47 42 33 34 35 37 35 34 33 31 29 28 24 23 23 23 23 23 24 25 25 26 27 27 26 25 24 23 23 22 23 22 21 20 19 18 17 17 17 17 17 18 17 18 19 19 19
47 46 44 38 34 37 36 38 36 37 35 34 31 29 25 27 28 29 29 28 27 28 29 29 29 28 27 27 25 24 23 22 22 22 21 19 18 18 16 16 15 15 14 16 16 17 18 18 19
48 46 46 41 38 36 38 40 38 36 33 31 29 29 28 31 31 30 29 29 29 30 31 31 30 28 29 26 25 25 24 23 22 22 21 20 18 18 17 16 16 16 16 16 17 17 17 18 19
49 48 46 40 38 36 37 38 37 34 33 30 30 29 29 30 30 27 26 26 26 29 31 31 30 29 29 28 26 26 26 24 24 22 21 22 21 19 19 18 18 18 18 18 18 18 18 19 20
51 48 42 40 39 38 38 39 38 35 33 31 31 30 29 29 28 26 25 25 25 28 29 28 28 29 28 29 28 27 27 26 25 23 24 22 22 22 21 20 20 21 20 20 19 20 20 21 21
50 48 45 44 41 41 41 40 40 37 34 33 34 31 30 29 28 26 27 28 28 28 28 28 29 29 28 29 28 28 29 27 26 25 26 24 24 23 22 22 21 22 22 23 23 22 22 22 23
53 49 47 44 43 41 42 42 42 39 35 35 34 32 31 30 29 27 29 31 28 28 30 30 29 30 29 28 28 29 29 28 27 28 27 27 26 26 26 25 25 24 25 25 24 24 24 23 24
55 48 46 45 43 42 41 42 42 38 38 36 35 33 33 33 30 28 28 29 27 27 29 31 33 32 32 31 30 28 28 28 30 30 29 27 28 28 28 28 28 28 28 27 27 27 25 24 24
51 53 47 44 44 42 42 42 43 39 42 40 37 36 34 33 33 30 29 28 27 28 28 31 32 32 33 33 32 31 31 32 32 31 30 29 29 30 30 30 30 30 30 29 28 29 27 26 26
46 50 47 41 40 40 41 42 41 44 45 44 40 38 36 35 34 32 32 29 29 29 32 31 33 33 33 33 34 35 35 35 34 32 31 29 29 30 31 30 31 31 31 30 28 28 28 27 27
46 49 49 43 40 39 38 37 40 44 45 43 41 39 37 36 35 33 30 29 32 33 33 35 35 36 35 35 37 37 38 38 36 34 33 31 30 31 32 29 30 32 32 31 30 29 30 29 29
47 45 45 42 40 37 35 35 40 43 44 43 41 39 37 35 37 35 34 36 35 36 36 38 39 38 39 39 39 40 40 40 39 37 35 34 33 34 33 32 32 32 33 33 32 31 32 30 31
46 45 42 39 38 36 34 36 37 41 42 42 41 40 39 38 38 40 39 38 38 38 39 39 40 40 41 43 44 43 42 42 41 40 39 38 38 37 35 34 34 34 33 34 33 33 33 32 32
44 43 41 38 38 38 38 39 34 38 40 40 42 42 41 42 42 42 41 41 41 41 40 42 42 41 43 44 46 45 45 45 46 43 42 44 42 40 39 37 37 34 34 35 35 33 35 33 32
43 41 39 38 38 39 40 40 33 35 39 42 43 42 42 43 44 44 44 44 44 44 43 43 45 45 44 45 45 46 47 47 48 48 46 45 44 42 41 41 40 39 38 38 38 37 35 33 34
46 42 39 38 39 40 39 39 33 35 39 42 42 42 43 44 45 45 45 45 45 46 46 44 44 46 48 48 48 47 47 48 49 49 47 48 47 47 46 45 43 43 43 42 43 41 39 38 37
42 41 39 39 40 39 37 40 30 35 37 38 39 39 41 42 43 44 44 45 46 46 46 46 46 46 47 50 51 51 51 49 48 49 50 50 50 50 50 49 47 47 47 46 46 45 42 41 41
39 38 39 39 39 39 36 38 29 33 34 35 36 38 39 41 41 42 43 44 45 45 46 45 45 46 49 51 51 52 52 53 53 51 52 53 55 54 53 53 51 49 51 51 49 49 46 45 48
37 36 36 36 37 36 33 34 27 29 31 31 32 34 36 38 39 40 40 40 42 44 44 45 46 46 48 50 52 53 53 53 54 55 57 56 57 59 57 56 54 52 51 52 50 51 51 49 49
28 33 33 33 33 31 28 29 25 22 25 27 29 31 34 36 37 37 38 39 39 41 43 44 45 47 48 49 51 52 54 56 56 56 57 59 58 59 59 58 57 55 53 54 52 52 52 51 50
21 22 23 28 26 26 22 24 22 21 23 25 27 29 32 32 33 35 37 38 38 39 41 44 46 49 52 55 57 59 60 62 62 63 63 62 62 60 60 61 61 60 57 56 55 54 52 51 49
20 21 21 22 23 24 22 22 21 21 21 25 26 25 26 29 31 31 34 36 38 40 42 44 46 49 52 54 56 58 61 64 66 68 70 71 69 66 64 62 62 61 59 58 57 55 53 52 52
21 22 23 22 22 22 19 19 20 21 22 21 20 22 25 28 31 30 31 32 33 35 36 39 43 46 49 51 52 54 59 63 65 67 69 71 74 74 72 68 64 61 60 58 57 56 54 52 59
22 23 24 22 20 17 16 17 19 21 21 20 23 24 25 25 26 29 33 34 37 41 42 41 41 40 41 45 49 55 58 61 65 69 70 71 75 74 75 73 71 67 61 60 60 59 57 52 48
20 20 19 17 15 15 16 17 19 19 19 21 20 19 20 24 27 31 31 29 29 32 34 37 34 37 41 45 49 54 55 64 68 67 69 73 75 76 73 73 72 68 68 66 63 59 59 57 63

GFSSGP_500_spd_036.txt.gz
Wind_Speed
42 42 40 39 39 38 35 33 31 30 29 26 25 24 22 20 18 19 15 15 16 17 15 15 16 16 17 17 16 17 17 17 17 17 17 17 17 17 17 18 19 19 21 22 22 23 22 20 18
42 43 42 41 41 39 36 34 34 32 30 28 26 25 24 22 19 18 17 16 16 17 17 16 16 17 18 18 19 17 16 16 17 17 17 17 16 17 17 17 17 17 18 19 19 20 20 20 19
45 44 45 45 44 39 35 36 36 32 31 30 29 27 25 23 21 20 19 17 18 17 16 16 17 17 16 15 17 18 17 17 17 16 16 17 18 18 19 19 19 18 17 17 18 19 18 18 19
47 46 47 47 43 37 35 39 36 34 33 32 30 30 27 25 23 22 20 18 17 17 16 15 16 17 17 17 17 18 18 19 19 19 19 19 19 20 21 22 22 22 22 20 20 20 19 19 19
49 48 48 48 42 38 38 41 40 37 36 34 32 30 29 25 23 21 20 19 18 18 18 19 20 20 19 20 18 20 21 20 21 21 22 22 22 21 22 22 22 22 21 21 21 21 21 20 20
49 51 50 49 40 39 40 42 40 38 36 34 32 31 28 25 23 22 21 21 21 21 21 22 23 24 24 23 23 22 23 22 21 21 21 21 21 20 19 20 20 20 20 20 20 20 20 21 20
51 50 49 46 38 40 41 43 41 39 37 36 33 31 28 26 25 25 25 25 25 26 26 27 27 28 27 26 24 24 23 22 20 21 20 19 20 19 19 19 19 19 19 19 20 19 18 18 18
53 50 50 47 39 39 42 44 42 41 40 36 34 33 29 27 28 27 28 28 28 28 31 31 30 30 29 28 26 25 25 23 23 20 21 19 19 19 20 19 18 18 17 17 17 18 19 19 20
54 52 52 44 40 41 44 45 44 42 40 37 33 31 28 29 30 30 31 32 32 32 33 34 34 31 30 29 28 27 27 26 24 22 21 21 21 21 21 21 20 20 19 19 20 20 19 20 20
52 55 47 43 40 41 43 46 44 42 39 37 34 31 29 30 30 30 29 30 29 30 31 31 31 30 30 30 30 29 28 27 25 25 24 23 24 23 22 23 24 23 22 21 21 21 21 21 22
52 53 48 41 40 43 46 47 45 42 40 37 35 32 29 30 30 30 28 28 28 27 27 27 27 28 29 30 31 31 30 29 27 27 28 26 26 24 24 24 25 25 25 25 24 24 23 23 22
53 53 49 42 42 44 47 46 44 40 40 38 35 32 30 29 30 30 28 27 27 26 27 28 29 30 30 32 32 32 31 31 30 29 30 29 28 25 24 25 25 26 27 27 27 27 27 26 25
55 49 54 43 43 45 47 47 45 40 40 39 36 34 31 31 31 30 29 28 29 28 29 29 31 31 32 33 33 33 33 32 33 31 31 29 28 28 27 27 27 27 28 28 28 30 30 29 28
53 50 53 45 42 45 47 48 46 42 43 41 39 36 33 32 31 31 30 29 29 30 29 31 31 33 33 33 33 34 34 35 34 34 33 31 30 29 29 29 28 29 30 30 31 31 31 31 30
50 53 51 51 40 43 45 47 45 44 45 44 41 39 36 33 33 32 31 30 30 30 31 32 35 35 35 34 34 33 34 36 37 36 34 32 31 31 30 31 30 31 32 33 33 32 32 31 30
49 52 50 51 44 40 42 43 46 46 45 44 43 41 38 36 34 32 31 31 33 33 34 37 36 36 36 36 36 36 37 37 37 37 35 34 34 34 34 34 33 33 34 35 35 32 32 33 31
49 47 47 44 47 44 41 41 44 45 44 45 45 44 42 39 37 35 36 37 38 37 36 36 37 38 39 39 39 40 40 40 39 38 39 37 36 36 38 37 37 37 36 37 36 34 34 34 33
45 45 44 42 41 46 43 38 38 40 42 44 45 46 44 41 39 40 39 38 37 37 36 37 37 38 39 40 42 44 43 43 43 42 42 43 42 40 41 40 40 40 40 39 39 38 36 35 35
45 41 41 41 40 41 44 43 37 37 39 40 42 43 43 42 40 39 38 38 37 37 38 38 38 38 39 41 42 44 45 45 46 46 46 49 47 46 45 43 43 43 43 42 41 39 39 37 37
47 47 41 40 39 40 42 44 38 37 36 38 38 39 42 43 42 41 40 40 39 40 39 40 41 41 41 41 43 45 47 49 48 48 48 49 50 50 50 48 48 48 46 45 44 42 42 40 40
45 45 42 38 40 39 38 40 37 36 34 35 37 39 41 42 43 42 42 43 42 42 43 43 44 44 43 43 43 45 48 49 49 49 49 50 52 52 52 53 53 52 51 48 47 46 46 45 44
44 42 39 37 37 40 39 38 34 34 34 35 37 38 40 41 43 44 44 44 44 44 44 44 44 45 44 44 45 45 46 48 50 51 52 53 55 56 55 54 56 56 54 52 49 49 49 49 48
44 43 39 37 38 38 38 35 32 34 34 35 36 36 38 40 42 42 42 42 43 43 43 44 43 42 42 43 45 46 47 48 50 52 53 54 56 58 59 57 56 58 56 55 52 52 53 53 53
40 39 38 38 39 40 39 37 35 34 34 34 35 37 38 39 40 40 39 38 39 40 41 41 41 41 41 42 44 45 46 48 49 51 52 53 53 56 61 63 61 60 61 59 57 56 56 55 55
37 38 38 39 41 42 38 37 35 33 34 33 33 34 36 35 33 33 34 35 37 38 40 41 42 42 42 42 44 46 48 49 51 51 52 54 55 56 56 60 65 66 65 64 64 61 59 58 56
34 37 38 38 40 39 35 35 34 30 29 31 31 29 28 28 29 31 33 34 35 37 39 39 40 41 42 44 46 49 52 54 56 57 59 60 61 62 63 63 62 63 67 70 67 65 63 62 60
22 25 30 33 33 33 31 30 28 28 28 28 27 26 26 28 29 30 31 32 32 33 34 37 39 41 42 44 46 48 50 52 55 57 59 61 63 64 66 67 67 67 65 65 68 67 65 63 62
24 24 25 23 25 27 27 27 27 25 25 26 26 26 26 27 27 29 29 29 32 33 34 36 40 42 45 49 50 51 52 52 52 54 57 60 64 66 67 67 67 67 68 67 66 66 66 64 63
25 23 23 22 22 22 23 25 25 25 26 24 23 23 23 24 26 28 30 31 32 35 37 37 39 43 44 45 47 49 48 50 54 57 63 66 69 71 72 70 70 68 67 67 67 66 66 64 63
22 23 22 22 20 19 20 25 26 26 23 21 22 22 22 23 24 26 28 32 33 33 33 35 35 36 38 42 44 46 49 51 52 58 63 66 71 72 74 72 70 69 68 66 63 65 63 63 62

GFSSGP_500_spd_039.txt.gz
Wind_Speed
45 43 41 40 39 38 35 36 33 32 30 31 26 25 25 25 25 24 19 17 17 16 14 14 14 14 14 15 14 14 16 17 18 18 18 19 19 19 19 20 20 20 21 21 21 22 22 22 21
46 44 44 42 42 40 36 36 34 35 32 28 28 26 25 26 24 22 18 18 18 16 16 15 16 15 15 15 17 15 15 15 15 15 16 17 17 18 18 18 19 19 21 21 21 21 20 20 20
47 46 46 45 44 42 38 42 38 35 33 31 30 29 27 29 22 21 19 19 17 17 17 16 16 16 15 13 13 14 14 15 15 16 16 17 18 18 19 20 21 21 21 21 21 20 18 18 18
48 48 48 48 45 41 42 45 42 36 36 34 31 31 29 26 24 22 21 19 20 19 17 17 16 16 15 15 14 15 16 17 17 17 18 18 19 20 20 21 22 22 22 23 23 23 22 21 20
49 46 47 48 46 42 42 46 42 40 37 37 34 34 32 28 26 25 24 22 21 20 19 19 18 18 18 19 19 18 18 19 20 21 22 22 22 22 22 22 22 23 23 23 23 22 22 22 21
49 48 49 48 45 42 44 44 43 41 40 38 36 34 34 30 28 27 26 24 23 22 21 21 21 21 22 22 22 21 21 23 24 23 22 21 21 21 21 21 20 20 21 21 21 21 21 21 21
42 46 52 48 47 42 41 44 43 41 40 39 40 34 35 32 30 28 26 25 24 24 24 25 26 24 25 25 25 25 24 24 24 23 23 22 20 19 19 20 20 20 20 20 20 20 21 21 21
49 50 52 51 47 39 41 46 43 44 39 43 36 35 37 30 30 29 28 27 27 28 28 28 27 27 28 29 28 28 27 26 25 23 22 22 21 21 20 20 20 20 20 20 20 20 20 21 22
54 53 50 53 46 39 43 45 45 44 43 37 39 41 31 30 30 29 28 29 28 28 29 29 30 30 30 29 29 30 29 28 26 25 24 23 23 22 22 22 21 22 21 21 21 21 22 22 22
54 53 47 47 42 41 44 42 46 43 42 39 37 38 34 32 30 29 30 30 30 30 30 30 31 31 31 30 30 29 29 28 27 26 26 25 23 24 24 24 24 24 24 23 23 23 24 23 23
52 54 48 47 47 44 44 43 49 43 44 42 40 40 35 33 31 31 31 31 29 29 29 29 29 30 31 30 29 29 29 29 28 28 28 28 27 26 26 25 24 24 25 25 24 25 26 26 25
52 49 52 48 46 40 43 44 50 47 45 46 43 36 36 34 33 33 32 31 29 29 30 30 30 30 29 30 30 30 30 31 31 31 30 30 30 29 27 26 26 25 26 26 26 27 28 28 28
50 52 56 52 43 40 47 48 47 49 50 44 42 40 37 34 34 34 32 30 29 30 32 31 31 30 30 31 31 32 32 32 32 33 33 31 31 30 29 28 27 26 27 28 28 29 30 30 30
52 54 53 53 42 44 47 49 50 47 49 44 42 41 38 36 34 33 32 30 30 32 31 31 30 32 32 32 32 32 33 34 34 34 34 34 33 31 30 29 28 29 29 31 30 31 32 31 31
50 55 52 52 48 44 46 50 49 48 47 45 43 42 40 36 33 32 32 31 31 32 32 30 30 31 31 32 33 34 34 35 35 35 35 35 34 34 32 32 31 32 32 32 33 34 33 32 33
54 51 52 52 47 47 46 45 49 47 47 46 44 43 41 37 35 33 33 33 34 34 34 34 32 32 33 33 34 35 36 36 36 36 35 36 36 37 37 35 34 35 35 35 35 36 37 35 35
54 51 50 48 47 45 47 44 47 46 46 45 45 44 42 39 37 35 35 36 37 37 36 36 35 33 34 35 36 36 37 37 37 37 37 38 39 40 40 39 40 39 38 38 38 38 39 39 37
48 47 48 45 47 43 49 44 44 43 42 43 44 44 43 41 40 39 39 37 36 37 36 35 35 34 34 37 38 36 38 38 40 40 40 41 41 42 43 43 44 44 43 42 42 43 43 42 39
53 48 45 42 43 45 48 48 42 38 37 40 42 44 44 42 43 40 39 39 38 38 38 37 37 37 37 39 40 37 40 42 43 44 45 46 44 45 44 44 46 47 47 46 46 46 46 45 45
51 49 47 42 41 39 39 54 48 39 37 37 38 38 41 42 43 42 42 39 38 38 38 38 38 39 39 40 40 42 41 43 44 45 47 48 47 46 48 47 47 48 50 50 50 51 51 48 48
52 47 45 42 38 39 37 41 44 43 40 36 36 36 37 38 40 40 40 38 39 39 38 38 39 40 41 42 43 45 44 44 45 46 47 50 52 52 51 52 51 52 51 52 54 54 54 54 52
50 48 45 41 38 38 37 39 40 40 39 37 36 34 33 35 36 37 38 39 39 39 39 40 40 41 42 43 44 45 46 45 45 47 49 52 54 55 54 54 54 54 54 53 55 56 54 54 51
50 45 43 40 40 38 38 39 38 34 36 38 39 36 35 34 36 38 39 40 41 41 41 41 41 41 42 42 42 43 44 44 46 47 49 50 53 55 56 57 57 55 56 56 57 57 58 57 57
48 44 41 39 40 40 37 37 41 34 34 33 34 36 36 37 38 39 39 39 39 39 40 40 40 40 40 40 41 42 43 44 46 47 48 50 51 52 53 55 58 59 60 61 60 61 61 61 61
43 42 39 38 39 40 38 38 39 34 33 33 33 34 35 37 37 37 37 37 38 38 37 37 38 40 40 41 41 41 41 43 45 46 48 50 52 54 55 57 58 59 61 63 64 64 64 63 64
37 36 38 38 40 41 41 40 42 36 34 34 35 35 34 34 35 35 36 36 34 34 35 37 38 39 39 38 38 40 42 45 47 49 51 53 55 57 59 61 64 65 65 66 66 64 64 65 65
36 36 36 37 41 40 38 40 39 38 36 35 34 32 31 32 32 32 33 32 33 34 35 36 37 37 36 38 40 42 44 46 49 52 53 55 57 59 60 62 63 65 66 68 69 69 68 64 64
25 33 36 37 35 36 38 37 39 36 33 32 31 30 31 30 31 31 31 32 33 34 34 33 33 35 37 39 42 44 46 49 50 50 54 56 55 57 62 65 66 67 67 66 67 67 67 68 67
32 30 25 27 32 31 34 34 35 32 32 32 31 31 30 30 30 30 30 29 29 30 31 32 34 36 38 40 41 42 43 45 46 48 50 52 58 63 65 68 71 74 75 69 63 64 66 63 63
22 26 26 27 26 24 24 30 30 31 32 32 30 29 29 29 27 26 25 26 27 29 30 33 35 35 35 35 36 38 41 42 42 44 46 47 51 59 60 58 62 75 72 68 57 58 62 63 62

GFSSGP_500_spd_042.txt.gz
Wind_Speed
48 46 43 41 40 38 35 36 37 32 29 32 25 23 23 27 24 23 19 16 16 15 15 13 13 12 12 12 12 12 12 13 14 16 16 17 17 17 18 18 19 18 18 19 19 20 20 20 20
50 48 46 44 43 41 37 36 36 34 34 28 27 26 27 30 23 22 20 17 18 17 16 15 15 14 13 13 13 12 13 13 14 14 15 15 16 16 16 17 17 17 17 18 18 18 18 18 18
55 52 50 49 44 42 36 35 40 39 30 33 31 31 33 31 25 23 23 20 19 18 17 17 17 17 16 14 13 14 13 14 14 15 16 16 17 17 17 17 17 18 19 19 19 19 19 19 18
58 57 53 51 47 41 41 40 44 38 34 33 31 33 31 30 22 23 22 21 20 20 19 19 18 18 17 15 14 15 15 16 16 17 17 17 18 19 19 20 20 20 20 20 20 20 20 20 19
50 51 56 54 48 42 36 47 47 38 37 35 33 35 33 31 28 27 24 23 23 20 22 21 21 20 19 18 17 18 18 18 20 19 20 20 21 22 21 20 20 20 20 20 21 21 21 20 19
45 45 46 53 49 45 45 47 47 40 38 36 34 37 33 31 30 28 26 25 26 23 25 23 22 21 20 20 19 19 19 20 21 22 23 23 22 21 21 21 20 20 20 20 20 21 22 22 21
43 41 40 44 49 44 43 50 46 39 40 35 40 37 36 32 32 30 28 28 27 26 25 25 23 22 22 21 21 21 21 22 22 22 23 24 23 22 21 21 20 20 20 20 20 20 20 21 22
44 44 43 41 47 46 42 47 45 43 42 43 41 40 39 34 32 32 31 30 29 28 27 26 24 23 23 23 24 25 24 23 23 23 23 23 24 24 23 22 21 20 20 19 19 19 20 21 22
57 52 43 42 43 45 41 47 44 43 43 44 38 45 42 30 33 32 32 31 30 28 27 26 25 25 25 26 27 27 26 25 23 22 22 21 22 24 24 24 23 22 22 21 20 21 22 22 23
57 53 45 39 39 42 41 47 42 45 42 40 42 40 38 34 32 32 33 32 30 29 28 27 27 28 28 27 27 26 26 25 24 23 24 22 22 22 23 23 24 24 24 22 22 22 23 23 24
55 56 41 35 37 45 34 47 40 45 44 42 42 41 40 36 34 33 34 33 32 30 28 28 29 29 28 27 27 26 25 25 25 26 25 25 22 23 23 24 25 24 24 25 24 24 24 26 25
53 57 48 44 46 38 41 47 40 44 43 44 44 47 37 35 35 35 36 35 32 29 29 30 30 29 28 29 27 27 27 28 28 27 26 26 24 23 25 25 25 24 26 25 26 26 26 27 27
53 49 47 46 49 42 41 42 43 44 46 45 44 38 37 39 36 36 36 35 31 30 31 31 31 30 30 29 29 27 28 28 29 29 29 28 28 26 25 26 25 27 27 28 28 29 29 29 29
47 53 52 50 51 48 39 41 49 44 48 45 42 41 40 39 36 36 35 34 33 32 32 32 32 31 30 30 28 29 29 28 29 29 30 30 30 29 28 28 26 28 29 30 30 31 31 32 31
51 51 54 47 49 45 43 46 47 45 48 45 44 42 40 39 37 35 33 33 34 34 32 32 33 33 30 29 29 29 30 29 28 30 30 30 31 30 29 30 30 29 33 32 32 32 32 33 33
49 50 55 47 47 46 47 44 48 43 45 44 43 42 41 39 37 35 34 33 34 34 33 35 35 32 31 30 31 30 30 30 30 30 31 30 32 33 33 33 32 33 36 36 34 34 35 36 36
48 48 48 48 45 46 44 45 48 45 44 45 44 44 42 40 39 38 37 35 34 34 35 34 34 33 32 31 31 30 33 33 34 34 33 33 35 36 37 37 37 36 37 38 38 37 39 39 40
43 41 44 47 45 47 43 42 50 50 44 42 43 43 41 40 40 40 39 40 36 33 34 35 35 35 33 34 34 33 32 35 38 37 37 37 38 38 40 40 40 39 38 39 40 42 42 43 43
47 45 46 46 46 44 43 43 49 50 44 37 40 43 43 42 41 43 42 37 36 37 37 37 36 36 35 35 36 36 33 37 38 39 41 41 41 39 42 42 43 43 43 41 43 43 44 46 47
49 48 44 45 48 45 46 42 44 51 48 36 38 40 42 42 41 42 38 38 39 39 37 38 38 39 38 38 37 39 37 35 39 41 41 44 46 46 45 44 45 45 45 47 46 47 48 49 50
47 48 46 45 42 40 42 46 41 50 45 37 35 33 37 39 39 39 37 38 39 39 38 38 38 39 38 39 38 39 41 40 38 42 45 46 48 49 48 49 47 48 48 49 49 49 49 48 50
45 50 48 46 40 38 40 42 42 39 51 41 36 34 33 33 35 34 35 36 36 36 36 38 38 38 38 38 39 40 42 43 42 40 44 47 49 51 52 52 52 51 50 52 50 50 52 53 53
44 48 47 44 43 42 39 40 38 37 48 46 41 38 36 34 32 32 32 32 31 32 34 35 36 37 37 39 40 41 42 42 43 43 44 46 48 49 51 53 54 55 55 53 54 56 55 54 56
43 47 46 43 41 41 38 37 34 32 26 36 42 41 38 34 33 32 31 32 33 33 35 35 36 36 37 39 39 39 40 42 43 44 46 47 48 49 48 49 53 54 56 58 58 59 59 59 57
35 48 43 41 41 39 37 38 35 37 32 27 29 32 35 37 38 38 36 36 36 37 37 37 37 38 38 38 38 40 41 42 44 44 45 45 46 47 49 52 53 55 58 60 62 64 64 65 63
35 38 39 39 38 38 38 38 36 35 27 30 31 30 31 33 33 35 36 37 37 37 37 37 37 37 37 38 39 40 41 40 41 42 44 45 46 48 51 53 56 58 60 61 63 65 66 69 69
29 37 36 37 37 40 38 36 32 33 30 30 31 31 31 32 33 34 36 37 37 37 36 36 36 36 37 38 40 39 39 39 40 42 44 46 47 49 48 50 53 54 57 59 63 66 67 69 69
27 31 34 35 34 36 36 36 36 35 34 35 34 33 33 33 34 35 36 37 36 35 35 35 35 37 38 37 36 37 39 39 40 42 41 41 43 43 45 47 49 52 57 61 66 68 68 69 70
13 26 33 33 34 32 34 38 38 35 34 35 35 32 31 32 34 33 34 34 33 33 34 35 35 34 34 34 36 37 38 39 37 37 40 40 38 40 43 43 48 54 58 61 63 62 59 61 65
18 22 22 26 32 35 34 38 38 35 36 34 33 31 32 33 32 32 32 32 32 33 33 31 30 31 33 34 36 37 33 32 33 35 34 34 32 36 36 43 45 52 58 61 59 52 52 50 56

GFSSGP_500_spd_045.txt.gz
Wind_Speed
51 48 47 45 43 40 36 37 38 36 35 29 29 28 29 23 23 25 19 12 14 14 15 13 11 10 9 9 8 9 9 10 11 12 12 13 14 15 16 17 17 16 16 16 16 17 17 17 17
53 52 50 49 46 42 37 38 38 36 32 27 28 29 26 25 22 21 17 15 14 15 14 12 11 11 10 10 10 10 11 12 13 13 13 14 15 16 17 17 17 17 17 17 17 17 17 18 19
56 55 53 52 48 42 37 41 38 36 33 30 32 32 32 25 23 23 20 19 17 16 16 14 13 13 12 12 13 14 14 14 13 13 14 15 16 17 16 17 17 18 18 18 18 17 18 19 19
59 59 58 55 50 42 40 44 44 38 33 33 34 34 31 26 25 24 18 19 17 19 18 17 17 16 16 15 15 16 17 15 15 15 16 17 17 17 18 19 20 20 19 18 18 18 19 20 20
61 62 61 58 51 45 47 45 47 41 38 36 36 35 32 29 27 25 23 22 20 21 20 19 19 19 19 18 17 16 16 16 17 18 18 18 18 19 20 20 19 19 19 19 18 19 19 20 20
54 61 59 57 51 46 49 48 46 45 39 37 38 36 34 31 30 28 27 22 22 23 24 22 22 22 21 20 19 18 17 16 17 20 21 20 20 20 20 19 19 18 19 19 19 19 19 19 20
50 54 54 54 52 50 48 49 50 48 38 36 42 38 35 34 33 30 28 24 25 26 26 25 24 23 22 21 20 19 18 18 18 19 20 21 20 19 18 19 19 19 19 19 19 20 20 20 19
47 51 56 56 55 53 48 47 47 48 42 39 44 40 36 34 32 30 31 28 27 28 28 27 26 24 23 22 21 21 20 19 19 21 20 20 20 19 19 18 19 19 19 20 20 20 20 19 19
43 50 49 49 46 44 53 47 49 46 46 45 46 42 37 34 34 33 33 30 29 29 29 27 26 25 24 24 23 23 22 21 20 21 19 18 17 18 20 20 20 20 20 21 21 21 21 22 21
49 47 38 38 37 45 52 55 54 49 45 46 45 43 38 38 34 32 34 33 31 30 30 28 27 27 26 25 25 25 23 22 22 21 19 18 17 18 19 19 21 22 22 23 22 22 23 23 23
51 50 32 40 40 39 39 47 41 47 42 47 45 41 39 39 36 36 35 34 33 31 31 29 29 29 27 28 26 24 24 24 23 21 22 20 20 20 21 21 21 22 23 23 23 23 24 25 26
57 42 48 41 46 44 37 40 44 46 46 46 47 45 42 42 38 37 37 35 33 33 32 31 29 29 28 28 28 25 25 23 22 22 23 23 21 22 23 24 23 23 23 24 25 25 26 27 27
46 50 47 45 46 44 42 46 36 42 50 45 47 45 41 42 37 37 37 36 33 32 32 31 30 30 29 28 27 26 25 25 24 24 24 24 24 22 23 24 23 24 25 25 25 26 26 28 29
40 49 52 50 49 44 35 34 44 31 45 47 46 45 40 41 41 39 36 36 34 35 34 32 31 31 30 28 27 26 26 26 26 25 24 24 26 24 23 23 24 24 27 27 27 28 28 29 31
48 49 47 53 49 48 42 42 28 37 42 47 42 42 41 41 40 38 38 38 37 35 34 33 32 31 30 29 29 29 28 26 26 26 26 26 27 27 26 27 26 26 27 30 30 31 32 31 32
46 46 49 43 45 36 44 42 40 36 42 45 42 40 41 42 42 40 39 39 39 38 35 33 34 33 30 29 31 29 29 28 28 29 29 29 31 30 30 30 29 31 31 32 32 32 32 34 36
49 43 43 41 41 41 39 45 44 43 42 44 44 42 42 42 41 40 39 40 41 38 34 32 32 32 31 31 31 33 31 31 31 31 31 32 32 34 34 33 32 33 35 36 37 38 37 35 38
40 39 36 38 34 41 39 41 40 41 42 45 44 41 41 40 39 39 39 40 39 34 33 33 32 32 33 34 34 33 34 34 33 33 33 32 31 34 35 37 38 37 37 38 40 41 41 41 41
37 39 41 37 40 40 39 41 38 41 42 43 44 41 41 40 40 41 40 42 43 42 38 36 38 36 34 34 36 36 35 35 36 35 35 35 36 36 37 39 41 42 41 41 42 43 42 43 46
38 40 40 40 40 42 41 44 41 42 38 44 43 41 42 42 42 40 40 40 38 38 39 40 39 39 38 38 38 37 36 34 35 36 37 41 42 40 41 41 42 44 43 43 44 45 46 47 47
35 35 38 43 39 40 40 41 41 40 42 38 44 37 39 38 42 42 41 38 38 41 42 40 40 41 41 40 39 38 38 36 35 35 37 42 45 47 45 44 44 45 45 46 46 47 47 49 49
30 34 38 43 42 40 40 42 40 41 42 40 47 40 38 40 39 40 37 36 39 42 41 41 41 41 41 40 39 39 38 38 38 37 38 41 45 47 49 48 46 48 49 51 52 52 50 52 50
30 35 37 39 44 43 41 42 36 38 43 40 40 44 39 35 33 35 34 36 36 39 39 39 38 37 37 37 38 38 38 39 40 41 40 41 43 46 48 50 51 50 51 51 52 54 53 53 54
30 33 33 39 44 47 40 39 38 31 36 41 35 48 39 38 38 33 33 33 34 34 34 34 33 34 33 34 35 37 39 40 41 42 41 41 44 46 46 47 48 49 50 51 52 53 55 56 58
28 33 34 37 45 43 39 42 35 32 34 36 35 42 49 42 39 37 35 35 33 32 32 33 35 36 37 36 37 38 39 40 40 41 42 44 45 46 45 43 44 46 48 51 54 54 55 58 61
22 28 30 35 38 38 39 39 35 32 33 35 32 30 43 43 40 42 40 39 39 38 39 39 40 40 39 39 39 39 39 39 39 42 43 43 44 43 43 44 46 46 48 49 50 52 52 54 59
23 25 25 25 35 40 37 36 35 32 28 28 34 29 30 32 35 37 35 36 36 36 37 39 39 39 38 38 39 38 37 39 42 42 40 41 41 42 43 43 43 44 45 47 48 50 53 57 62
23 26 31 31 28 35 37 35 35 32 28 26 30 30 28 30 31 33 34 35 35 37 37 37 37 37 37 37 37 38 40 42 40 39 39 39 40 39 40 41 39 40 42 41 44 47 52 57 60
23 20 21 26 29 30 32 35 31 30 30 28 28 33 32 32 31 32 34 35 37 37 37 36 35 35 35 35 37 40 39 38 37 38 38 36 36 37 37 37 37 37 39 42 44 44 50 51 54
21 19 25 32 31 30 30 32 29 30 29 29 29 30 31 33 33 33 34 35 35 35 34 34 33 33 35 37 37 36 35 35 35 34 33 34 33 35 33 33 34 37 40 39 41 45 44 45 49

GFSSGP_500_spd_048.txt.gz
Wind_Speed
52 51 48 46 45 45 39 37 39 37 37 35 34 36 34 32 31 27 24 20 16 18 18 15 13 13 12 10 7 5 6 6 7 9 10 10 12 13 14 16 17 18 17 17 18 18 17 17 16
53 52 51 49 47 43 39 42 41 37 36 34 34 35 34 31 27 23 22 17 13 13 14 12 12 12 11 9 7 6 7 8 10 11 11 12 13 14 15 16 15 15 15 15 16 17 16 16 17
56 53 54 52 48 41 39 44 41 38 38 35 36 35 31 25 24 23 21 19 16 16 15 13 13 12 11 9 9 10 10 11 12 13 13 13 14 15 15 15 16 17 17 17 16 15 15 16 17
60 55 55 55 49 41 44 45 43 40 38 35 36 36 31 29 26 24 21 20 18 18 17 15 14 13 12 11 11 13 14 14 13 14 14 15 16 16 17 17 17 17 16 16 16 16 16 16 17
59 60 57 57 50 45 48 46 45 43 41 39 39 37 32 30 25 26 20 22 20 19 18 17 16 15 15 14 13 14 14 15 17 16 16 17 17 18 18 18 16 16 16 16 16 16 17 17 18
57 61 59 55 49 48 50 50 49 47 43 41 40 38 35 32 28 26 24 25 24 21 21 19 19 18 17 17 16 15 15 15 17 19 19 18 18 19 19 17 16 15 15 16 16 16 17 18 20
60 57 59 54 52 49 53 54 51 48 43 43 42 37 37 33 29 26 25 26 25 23 23 22 21 20 19 19 18 17 17 18 18 18 20 21 20 19 17 16 15 15 16 17 16 17 18 19 20
62 56 58 63 59 54 58 56 54 52 49 46 44 41 36 35 30 29 28 28 27 26 25 24 23 23 22 20 21 20 20 21 20 19 19 20 19 19 17 15 16 16 17 18 18 18 19 19 20
59 57 59 58 63 59 53 56 56 54 52 49 47 43 40 39 34 31 30 29 28 28 27 26 25 24 24 23 24 22 21 21 21 20 19 17 16 17 18 19 19 18 19 19 19 20 21 21 22
57 59 56 50 53 56 61 55 59 56 57 52 48 47 43 40 36 33 32 32 31 29 28 27 27 26 27 26 26 24 22 21 22 22 19 18 17 17 18 19 20 21 21 21 22 23 23 23 23
57 55 56 49 56 53 59 56 57 58 55 52 49 47 42 41 39 38 33 34 32 31 30 30 29 28 28 28 26 24 23 23 23 23 21 19 18 19 19 20 20 23 23 24 25 25 24 24 24
54 53 53 39 51 49 48 57 60 59 59 58 47 46 47 44 42 40 38 36 34 33 32 32 31 30 30 29 28 25 24 23 23 23 23 21 21 21 21 21 22 24 25 26 26 27 26 26 26
49 57 52 50 43 37 50 43 52 53 58 53 54 46 45 47 46 43 41 39 38 34 33 32 32 32 32 30 29 26 25 25 24 24 25 25 22 21 23 24 23 24 27 28 27 28 28 29 29
49 53 56 54 53 42 52 58 43 41 43 49 56 51 46 46 46 45 43 41 39 37 36 34 33 33 31 29 30 28 27 27 26 26 26 25 23 23 24 26 27 27 28 30 28 29 29 29 30
49 49 53 44 37 46 54 51 38 38 41 49 50 54 48 45 46 45 45 42 40 38 38 37 36 34 32 31 30 28 29 29 28 27 26 26 26 26 27 27 28 29 29 30 31 31 31 32 32
47 48 50 58 45 44 48 44 30 39 41 38 44 48 47 41 43 44 44 42 40 40 39 39 36 34 32 31 30 29 29 28 28 29 29 28 29 29 29 29 30 31 31 31 32 34 34 35 36
48 45 44 43 47 48 47 44 37 36 34 36 39 46 48 43 42 43 44 43 41 39 38 37 35 33 33 32 31 32 30 28 30 31 31 32 31 32 33 32 31 32 33 34 35 37 37 37 38
42 40 35 36 39 46 51 43 41 42 39 36 36 40 44 43 43 44 44 44 42 40 39 36 35 35 36 34 33 32 31 30 31 32 32 33 33 34 36 36 34 36 36 37 39 39 40 40 41
35 41 43 35 37 39 35 43 36 42 44 38 33 35 41 45 44 43 44 44 44 43 40 37 35 35 36 36 34 33 34 35 34 35 34 35 35 36 37 37 37 38 40 42 43 43 43 43 44
34 36 39 40 36 37 38 39 45 40 45 44 39 39 41 43 47 44 44 44 43 40 39 38 40 42 41 39 37 36 37 37 38 39 39 38 38 38 39 39 39 41 43 44 45 45 45 45 46
33 32 36 37 39 37 37 38 40 41 43 45 40 40 42 44 44 45 44 44 44 44 44 45 46 44 43 43 42 39 39 39 39 41 42 42 41 41 42 43 43 43 44 43 46 47 48 48 48
34 33 34 36 36 37 37 36 34 41 44 43 39 37 41 43 46 45 45 44 43 43 44 45 45 44 44 43 42 41 41 41 41 40 40 40 42 45 46 48 48 47 44 46 48 49 48 49 48
31 30 30 31 35 35 39 39 33 40 43 41 41 39 39 46 46 47 45 42 42 42 44 44 44 44 44 44 43 42 42 41 40 39 38 40 43 45 46 48 49 49 49 49 49 49 48 49 50
29 27 27 30 34 37 36 41 37 37 39 38 38 42 38 42 47 47 43 43 39 40 41 41 41 41 41 42 41 40 39 38 38 39 40 42 43 44 45 46 48 49 50 50 49 49 49 50 51
28 27 27 30 35 35 38 45 36 38 38 39 39 41 43 39 47 48 42 38 40 39 39 39 39 39 39 38 36 36 37 37 39 41 42 43 43 43 44 46 45 44 45 47 48 49 50 50 50
32 31 29 30 34 33 34 41 37 37 37 40 35 37 40 41 44 47 42 43 41 38 37 36 36 35 35 35 37 39 41 44 44 43 43 43 42 44 46 46 44 44 45 47 47 47 48 47 46
28 24 23 25 28 30 33 36 38 38 35 36 31 34 34 38 36 51 48 40 40 43 45 42 43 42 42 41 42 43 44 44 43 43 42 42 45 46 46 45 45 46 45 45 45 42 42 42 44
23 23 24 26 28 26 25 32 35 34 33 32 30 31 34 34 34 38 46 46 44 45 46 48 47 45 44 47 47 45 43 42 41 41 42 44 44 44 44 44 44 42 41 38 38 37 40 41 42
26 23 21 26 32 31 27 25 30 30 28 30 29 33 33 39 31 33 35 39 42 43 43 43 44 45 44 43 42 41 39 38 39 41 42 41 42 42 42 41 39 38 34 34 35 37 39 42 43
23 27 27 28 30 30 27 23 21 25 25 26 28 30 32 36 36 32 31 32 34 36 37 38 39 40 39 38 36 35 36 37 38 38 39 39 39 38 37 36 33 33 33 36 39 37 38 41 43

GFSSGP_500_spd_051.txt.gz
Wind_Speed
56 53 50 49 48 49 45 40 37 38 39 38 38 38 35 31 32 30 24 21 19 19 20 18 18 17 15 14 11 7 5 3 4 6 8 9 10 11 13 14 15 15 15 15 14 15 15 15 15
58 56 53 51 50 49 43 40 40 38 39 39 39 39 36 32 31 30 23 22 18 19 19 16 16 15 14 12 8 7 5 5 7 8 9 10 12 13 14 14 15 15 15 16 16 15 14 14 14
60 57 56 54 51 46 41 42 43 40 40 39 40 39 37 33 31 28 23 22 19 17 16 15 15 14 12 10 9 8 6 7 8 10 11 12 13 14 15 15 16 16 16 15 14 14 13 14 15
55 63 58 57 52 44 44 45 45 42 42 41 40 40 39 34 29 26 23 22 18 19 16 15 14 12 11 9 10 10 10 10 10 12 13 14 16 17 16 17 17 17 16 15 14 13 14 14 15
55 61 63 59 52 47 47 48 47 45 45 43 40 39 37 33 29 27 25 21 19 18 17 16 15 13 11 10 9 10 11 13 14 14 14 16 17 17 18 18 18 17 16 15 14 14 15 15 16
62 59 61 61 52 48 50 49 46 45 45 45 41 39 37 32 30 28 26 23 22 20 19 17 15 14 13 12 11 11 12 14 14 17 19 19 19 19 19 18 18 17 16 16 16 16 17 17 18
54 56 58 58 51 48 53 51 49 49 47 47 42 40 37 32 30 29 28 25 25 22 20 18 17 16 16 15 14 14 15 15 15 16 18 22 22 20 19 18 18 17 17 17 17 18 18 19 20
55 52 57 60 60 48 52 52 54 52 50 48 43 42 37 31 31 31 30 28 25 23 21 20 19 19 18 17 17 17 18 18 18 18 18 20 22 21 19 18 18 18 18 18 18 19 20 20 21
70 62 57 57 61 54 54 55 56 55 52 50 46 41 39 36 35 32 30 29 28 25 24 23 22 21 21 20 19 19 20 20 20 20 19 20 21 20 19 19 19 18 19 19 20 21 21 21 21
68 53 56 53 53 53 55 56 57 57 54 53 49 45 43 38 36 34 31 30 29 27 26 25 24 24 23 23 21 21 21 21 22 22 21 21 21 20 19 20 20 21 22 23 23 24 24 24 24
70 52 52 54 51 57 62 57 60 58 56 55 52 48 45 42 38 35 34 32 31 30 28 27 27 26 25 25 23 22 22 22 23 23 23 22 21 21 20 20 21 22 23 23 24 25 27 28 28
60 60 55 56 47 52 56 60 60 59 59 55 54 50 51 48 43 39 38 37 34 32 30 30 29 29 28 27 25 24 23 23 24 25 23 23 22 23 22 22 22 24 25 24 25 26 28 29 30
56 56 58 49 56 42 49 58 56 61 58 59 57 50 50 49 47 44 42 39 36 32 33 34 33 32 30 28 27 26 25 25 25 25 26 25 24 24 24 25 25 25 25 25 27 28 28 30 31
52 51 54 51 44 53 47 50 54 52 61 58 59 57 53 51 48 47 43 40 39 38 36 34 33 32 32 30 29 29 28 27 26 27 27 27 26 26 26 26 26 27 26 27 29 30 31 31 32
50 52 51 52 44 44 44 51 53 51 46 53 57 54 54 52 53 49 46 44 42 42 41 38 38 37 33 33 32 31 30 29 29 29 27 28 27 27 27 28 28 30 29 31 32 34 34 34 34
48 49 51 50 49 50 43 39 49 55 61 51 49 53 55 47 54 50 47 45 44 44 43 42 40 37 35 34 34 33 30 31 31 30 29 29 28 28 29 29 30 32 32 33 34 36 37 37 37
49 48 43 46 45 50 45 43 60 55 47 44 44 46 49 50 52 50 50 49 46 44 43 42 40 39 38 37 36 35 33 33 34 33 31 31 30 31 32 31 32 34 35 35 36 37 38 40 40
39 43 42 39 44 50 46 49 50 49 36 42 50 48 49 47 47 52 54 52 48 43 42 43 41 40 40 39 38 37 37 36 34 33 32 33 33 34 34 34 34 36 36 36 39 39 41 42 43
41 39 39 38 38 43 46 49 45 52 40 35 37 47 46 46 47 48 50 49 46 43 42 43 43 41 41 41 39 38 37 35 34 33 33 34 35 36 36 36 38 39 38 39 41 43 44 45 45
39 36 38 34 33 36 44 53 48 52 40 32 33 36 37 37 41 45 48 48 47 44 42 42 42 41 42 42 40 38 37 35 35 35 36 37 38 38 39 39 39 40 41 42 44 46 47 47 47
36 31 32 37 37 35 35 39 38 49 47 35 38 35 35 35 36 41 46 47 47 46 44 44 44 43 43 43 41 39 39 39 40 40 40 41 40 41 40 40 41 41 43 45 46 47 47 48 48
33 33 32 35 37 38 35 34 34 40 37 38 34 41 41 38 37 37 39 44 47 46 46 46 45 43 43 43 45 45 45 43 41 41 42 44 45 44 42 41 42 45 47 49 48 47 47 49 49
36 34 31 30 32 34 35 39 32 36 38 31 37 39 45 47 45 42 43 44 45 47 46 46 49 50 50 48 47 45 45 45 44 44 45 45 46 45 44 45 47 49 51 51 49 48 50 49 48
35 32 31 30 30 31 31 33 23 32 32 33 40 42 41 45 44 42 44 44 45 45 46 47 48 48 47 47 46 46 47 46 45 45 45 45 44 43 45 47 48 50 51 49 49 51 52 51 49
32 30 30 29 29 26 29 31 15 25 35 39 43 46 45 46 46 44 42 44 46 45 46 44 44 45 46 46 45 44 44 44 44 43 40 40 41 44 46 48 49 49 48 48 50 51 50 50 51
29 29 28 29 29 26 28 28 24 27 35 41 41 45 45 48 48 49 50 46 46 46 44 44 45 43 45 45 45 46 44 42 39 38 40 43 45 47 48 48 46 46 46 47 47 48 48 49 47
26 28 27 30 30 28 29 29 31 31 34 43 43 41 40 41 42 43 48 48 47 47 44 42 43 44 44 44 42 39 38 37 40 42 44 47 47 48 47 46 45 46 46 45 47 47 45 43 38
26 26 29 30 28 25 25 25 25 29 34 36 45 40 35 38 38 40 44 49 46 48 45 47 46 45 42 42 42 42 43 45 45 47 49 49 47 45 44 44 45 45 45 46 45 43 38 36 37
20 23 27 26 28 27 26 25 25 26 31 34 40 38 36 34 34 38 40 45 43 46 49 45 46 48 49 50 50 51 49 49 51 52 48 45 43 42 42 42 43 44 44 42 40 35 35 38 40
24 25 27 29 28 25 28 27 23 21 27 29 32 34 34 36 38 38 35 33 37 40 44 50 49 44 47 48 50 50 51 49 47 44 41 40 39 40 40 40 41 41 40 38 35 34 36 37 39

GFSSGP_500_spd_054.txt.gz
Wind_Speed
56 53 51 50 49 51 47 42 38 38 39 39 39 39 34 32 28 27 25 22 21 18 17 16 16 16 14 12 11 9 7 4 3 2 3 6 8 10 11 12 13 13 13 13 13 14 13 13 13
57 57 54 52 52 52 47 42 40 40 41 41 41 38 36 35 30 28 28 26 20 15 18 16 16 15 14 12 10 9 7 5 4 4 6 8 10 11 13 13 13 14 14 14 14 14 13 13 13
58 57 56 55 54 51 46 44 43 42 42 41 40 38 37 35 32 30 28 25 21 17 18 15 14 14 13 11 9 7 6 6 6 7 8 9 11 13 15 14 14 15 15 15 15 15 15 14 14
64 61 61 57 55 50 47 46 45 43 43 42 41 40 38 35 32 31 28 24 22 19 19 16 14 13 11 10 8 8 8 7 7 8 9 11 13 14 15 15 16 16 16 16 16 16 15 16 16
58 57 61 59 56 50 48 47 48 46 45 43 41 41 39 38 34 31 27 24 22 19 18 16 14 13 11 10 9 9 9 10 10 10 11 13 15 16 16 17 17 16 16 16 15 15 16 17 18
55 62 61 52 56 49 49 48 50 48 46 45 43 42 41 38 33 30 28 24 22 19 18 16 14 13 13 11 10 9 9 10 12 15 17 16 17 18 18 18 17 16 16 16 16 16 16 18 19
65 58 59 57 53 49 49 49 50 48 48 47 44 42 40 37 33 30 28 26 23 21 19 16 15 14 13 12 11 10 10 10 11 12 16 19 21 20 18 18 18 17 16 16 16 17 17 18 20
42 59 59 62 52 55 49 50 51 50 50 48 46 43 39 35 33 31 30 27 25 22 19 17 17 16 14 14 13 13 12 12 13 13 15 18 20 19 19 19 18 17 17 17 17 18 19 20 21
57 52 60 61 53 53 55 51 53 52 52 51 48 43 39 38 35 33 30 28 27 23 21 20 19 18 17 16 16 16 15 14 14 16 16 18 19 19 19 20 20 19 19 18 19 19 19 20 21
69 56 50 56 59 46 57 56 52 54 54 53 49 45 42 41 36 35 32 31 30 27 25 23 22 20 20 19 18 17 17 17 17 18 19 19 20 19 20 20 20 22 22 22 22 22 23 23 23
64 59 52 48 59 53 59 61 56 55 56 54 51 48 43 44 40 36 34 34 32 29 26 26 25 23 22 22 20 19 19 20 20 19 20 21 21 22 22 21 22 23 23 23 23 24 24 24 24
56 63 59 50 50 49 54 58 62 60 56 55 53 49 44 43 43 39 36 35 33 32 29 27 26 25 25 24 23 22 22 21 21 21 21 22 23 23 23 23 22 23 23 22 23 24 25 25 27
46 57 61 57 53 51 49 58 57 58 58 54 53 50 47 43 43 43 40 38 34 33 32 31 30 30 30 28 25 24 24 24 23 23 23 24 24 25 25 24 24 24 24 24 25 26 27 28 28
44 51 58 61 50 45 49 50 60 55 58 56 53 50 48 47 45 45 43 40 35 35 35 34 34 33 32 31 28 27 27 26 25 26 25 25 25 26 26 25 25 26 25 26 27 28 28 29 30
47 45 50 53 63 41 44 44 51 53 57 56 55 54 53 49 47 42 48 45 42 39 38 38 36 34 33 31 30 30 30 28 27 28 27 27 27 27 27 27 28 29 28 29 30 30 31 32 32
46 47 46 51 53 50 43 43 37 55 60 56 54 55 55 56 52 48 43 46 44 42 39 39 39 39 37 36 35 34 33 31 30 30 29 30 30 29 28 29 30 31 31 31 32 32 33 34 34
48 39 42 49 51 46 43 36 46 42 58 51 51 52 55 55 53 51 49 48 46 45 44 42 41 40 39 37 36 36 35 34 33 33 32 32 31 31 30 30 32 32 33 33 33 34 35 36 38
41 38 37 43 43 45 40 39 45 42 50 54 51 45 51 53 54 54 52 54 50 50 47 45 44 42 41 39 38 38 37 37 36 35 34 34 34 33 32 31 33 35 36 35 36 36 38 39 41
43 40 35 37 38 45 41 42 46 42 47 51 55 59 57 50 47 47 51 50 55 58 51 49 47 44 42 41 40 40 39 39 38 36 36 36 36 35 34 35 36 38 37 39 39 38 40 41 44
45 43 37 32 37 36 41 43 47 41 41 58 42 53 52 55 49 45 46 49 53 55 53 48 47 46 44 44 43 43 42 41 39 38 38 37 36 38 38 39 39 41 41 40 41 42 42 44 46
44 39 37 35 33 35 37 39 37 50 44 45 45 43 48 46 47 46 45 47 48 49 50 51 48 47 46 46 46 45 44 42 40 41 40 39 40 41 41 40 43 44 43 43 43 44 45 47 47
40 35 35 35 36 35 35 37 33 45 49 50 48 32 29 33 37 38 41 44 45 45 46 47 48 46 44 44 44 43 43 41 41 42 42 44 45 45 43 45 45 45 45 43 43 47 49 50 48
37 32 32 32 36 37 38 41 32 33 49 48 47 42 27 32 35 35 38 41 44 46 46 46 47 46 46 45 44 42 42 42 43 44 46 46 45 46 47 48 47 47 44 43 46 50 51 49 48
35 34 33 33 32 30 27 30 29 33 33 37 33 32 32 35 39 42 42 40 37 38 42 46 46 46 47 47 48 49 48 48 48 48 47 47 47 48 48 49 48 46 45 47 50 51 50 48 48
38 35 32 33 32 27 24 21 10 21 24 30 30 29 34 40 41 43 45 45 43 43 43 44 46 47 49 49 49 49 49 48 47 47 47 47 47 48 48 45 42 44 48 50 51 50 48 47 48
33 33 33 34 32 27 23 18 16 18 24 30 37 37 39 40 44 45 45 47 47 47 45 45 45 46 47 48 50 50 48 45 44 44 44 46 46 43 41 42 43 47 50 50 48 47 46 46 46
27 28 32 31 30 28 26 23 22 25 28 34 36 41 43 44 49 50 51 49 48 51 49 45 47 46 46 47 50 50 47 45 45 46 45 42 41 41 42 44 48 50 48 46 44 44 44 45 44
25 24 26 28 29 29 28 26 24 26 27 32 35 39 45 44 42 45 46 47 48 51 53 53 49 47 47 46 45 45 45 46 45 44 43 43 44 46 48 50 51 47 44 42 42 43 43 42 40
20 23 26 26 28 30 30 28 24 26 29 33 34 35 39 46 43 40 44 43 48 49 50 52 51 51 50 47 46 45 44 44 45 45 47 49 49 50 52 49 46 42 41 41 41 41 41 39 37
23 26 29 30 27 27 28 25 27 25 27 32 34 33 37 41 46 43 41 44 42 43 45 47 49 49 50 50 52 53 52 53 51 52 50 51 51 50 46 43 40 40 39 39 39 38 37 36 37

GFSSGP_500_spd_057.txt.gz
Wind_Speed
57 56 54 50 50 52 49 42 39 41 41 44 41 37 34 31 28 25 24 19 18 16 16 14 13 11 11 9 9 8 6 3 2 2 1 2 3 6 7 9 11 11 11 12 13 13 13 13 12
60 58 58 53 54 53 50 44 42 41 44 39 38 38 36 33 30 28 28 24 21 16 15 15 14 13 12 10 9 7 6 4 3 2 2 4 6 7 9 10 11 11 12 12 12 13 13 13 13
60 58 57 59 56 53 50 47 43 43 42 40 39 37 36 34 33 30 30 26 23 17 15 15 14 13 12 10 9 8 7 5 4 3 4 6 7 9 10 10 11 11 12 12 12 12 12 12 13
61 62 59 58 59 53 50 49 45 44 44 42 40 39 38 35 34 31 31 26 24 19 17 17 14 14 12 10 10 9 7 5 4 4 5 7 8 10 11 12 13 13 13 13 12 12 12 13 14
57 58 61 61 58 54 52 50 48 46 45 44 43 41 39 37 34 31 31 28 24 20 19 19 15 14 12 10 10 9 7 5 5 5 6 8 9 10 12 13 13 14 14 14 13 14 15 15 15
59 57 62 59 55 55 53 50 49 49 46 44 44 42 41 38 36 32 31 28 25 21 20 19 17 15 14 12 10 8 7 6 7 9 11 11 11 13 13 14 14 15 15 14 14 14 15 16 16
62 46 56 62 54 54 51 50 50 50 48 45 44 43 43 40 38 34 30 28 25 23 22 20 18 17 15 13 12 9 7 7 7 9 12 14 15 16 15 15 14 15 15 15 15 15 16 17 18
54 61 47 56 58 51 54 50 49 52 51 48 45 46 44 42 39 36 31 28 24 25 23 21 19 18 17 15 13 12 10 9 9 10 10 12 15 17 18 18 16 15 15 16 16 16 18 19 19
58 54 64 49 57 51 54 56 50 52 52 50 48 46 44 42 39 37 33 30 25 26 23 22 20 20 18 16 14 13 12 11 11 11 12 13 14 15 17 18 18 18 17 17 17 18 19 19 20
62 55 61 56 48 53 53 55 56 51 52 51 50 47 45 42 39 37 36 34 29 28 26 23 22 21 19 17 16 15 14 13 13 13 14 15 16 16 17 17 18 19 20 20 19 19 19 19 20
59 58 45 52 58 52 56 47 57 56 53 54 52 49 46 44 41 41 37 35 34 31 28 27 24 23 21 19 18 16 16 16 15 15 16 17 17 17 18 19 19 19 19 19 19 20 21 21 21
50 58 49 46 48 59 46 55 51 61 55 54 55 51 47 44 43 41 38 38 36 34 31 27 27 25 23 22 21 19 19 18 18 18 18 19 19 20 20 20 21 21 20 20 21 21 22 23 24
50 53 58 50 46 47 50 50 50 56 62 56 55 53 48 46 45 42 39 39 37 34 32 30 29 27 26 24 22 22 22 22 21 21 21 21 21 22 22 22 22 22 21 21 22 23 24 25 25
53 53 58 44 49 47 49 49 54 48 59 63 57 53 50 47 45 42 40 40 39 37 36 34 32 30 29 28 27 25 25 25 25 24 23 24 24 24 24 24 24 24 23 23 25 26 26 27 28
52 54 51 54 52 49 46 51 61 55 53 56 61 53 50 46 45 43 41 42 42 41 40 38 35 33 31 30 30 29 28 27 26 26 26 26 27 27 27 26 27 26 25 26 27 27 28 30 30
52 51 46 44 50 58 49 40 45 51 55 53 58 58 53 47 45 46 43 43 45 45 42 40 38 38 36 34 32 31 30 28 29 30 29 29 29 28 28 28 29 29 28 28 29 30 31 32 34
52 48 44 38 39 54 52 37 41 49 54 53 53 54 54 51 48 47 47 45 44 45 46 44 42 40 39 36 35 34 33 33 34 33 32 32 30 29 28 29 31 31 30 30 32 33 34 36 37
53 47 42 40 37 50 53 43 37 41 45 60 56 54 51 50 52 51 49 48 46 43 43 43 43 44 43 42 39 38 37 37 37 36 35 35 33 32 31 31 32 33 33 34 35 35 37 38 39
47 42 39 36 37 41 49 43 47 44 42 47 55 55 52 50 48 47 52 54 49 46 44 46 47 46 44 44 43 41 41 41 39 39 38 37 36 34 33 33 34 35 35 37 37 39 41 41 42
46 43 38 32 35 38 40 42 49 41 40 44 47 57 53 49 44 46 48 50 53 56 54 51 43 47 49 49 47 46 45 42 41 41 40 39 39 38 37 37 35 36 38 40 39 45 45 44 43
44 40 37 34 31 34 37 41 44 38 41 45 43 48 55 51 48 43 45 45 47 46 49 49 50 52 50 50 50 48 46 44 44 43 42 43 42 41 41 40 39 40 44 42 46 48 47 45 43
40 41 35 35 30 29 34 35 43 44 39 39 35 33 48 50 53 55 53 52 53 50 47 48 52 51 51 49 49 49 47 47 46 45 46 45 44 43 42 43 44 47 46 45 46 48 48 45 43
37 39 35 33 33 31 30 26 25 37 48 42 42 38 36 45 48 54 54 50 50 47 45 42 44 44 47 49 50 49 48 48 48 47 47 46 45 44 46 46 46 46 46 47 47 47 44 42 45
34 35 34 32 33 33 27 23 17 28 32 38 31 36 45 44 35 42 40 43 44 43 43 43 43 43 44 45 47 47 48 48 48 46 45 45 45 46 47 47 47 47 48 49 46 42 43 46 49
33 35 34 33 33 31 25 20 10 26 34 32 28 31 34 41 49 36 32 36 38 39 37 39 43 46 47 46 46 46 47 46 46 46 48 48 48 48 47 47 47 47 46 44 42 44 46 48 50
34 35 36 35 32 30 24 21 15 17 17 29 35 35 30 34 37 45 49 38 38 41 41 41 40 40 42 45 48 50 50 50 49 49 48 47 47 46 45 45 47 46 42 42 44 46 48 50 48
35 34 33 33 30 28 27 24 20 21 24 25 25 27 31 34 37 35 33 33 40 44 44 45 48 47 45 45 46 47 48 49 48 49 48 46 46 47 46 44 42 41 41 44 47 49 49 46 43
30 28 28 27 28 26 27 26 25 24 24 26 28 29 31 32 37 41 41 40 45 48 49 50 49 50 50 48 46 47 48 49 48 48 49 47 46 45 44 43 44 44 46 49 49 47 43 42 42
23 24 24 23 25 26 27 28 26 25 25 27 30 31 30 32 35 38 44 44 47 53 54 54 54 54 53 53 51 47 46 48 48 47 46 46 46 46 45 48 48 49 50 48 45 42 41 41 39
25 24 24 25 24 26 28 28 29 28 26 25 29 33 34 34 36 37 39 44 47 46 51 53 55 55 55 58 56 53 54 51 50 49 48 49 48 49 50 50 51 49 46 44 41 40 39 38 35

GFSSGP_500_spd_060.txt.gz
Wind_Speed
50 54 55 55 50 52 50 46 42 43 44 44 40 37 34 32 30 28 23 21 19 16 16 14 12 12 11 9 8 7 5 4 3 3 2 1 1 2 5 6 7 8 9 9 10 10 10 10 10
49 55 56 58 56 54 52 47 44 43 41 46 42 40 36 35 31 29 26 23 20 17 16 15 14 12 10 10 10 8 6 5 5 4 3 2 2 4 5 7 7 8 9 10 10 10 10 10 10
50 55 58 59 59 57 54 50 46 42 45 43 44 44 40 37 33 31 29 26 24 20 17 15 15 14 11 10 11 10 8 8 7 4 3 3 3 5 6 7 8 8 9 10 11 11 11 11 11
54 54 59 57 56 58 56 50 48 45 45 45 45 44 41 37 34 33 32 30 25 22 18 16 15 14 13 11 10 10 10 9 7 5 4 4 5 6 6 8 9 9 9 11 11 11 12 12 12
57 55 58 59 58 59 57 51 49 47 47 45 43 40 37 36 35 35 33 33 28 23 20 19 17 15 14 13 11 11 10 9 7 6 5 6 5 6 7 7 9 10 11 11 11 12 12 13 13
58 57 55 60 56 54 58 53 51 49 49 47 45 42 40 38 37 36 34 35 30 25 22 22 20 17 15 14 12 11 9 8 8 7 7 7 7 7 8 9 10 10 12 12 12 12 13 14 14
57 56 50 55 61 55 55 53 52 51 50 48 46 45 44 43 40 37 35 35 30 26 24 24 22 20 18 16 13 12 10 8 7 8 9 10 9 9 9 10 11 11 12 13 13 14 15 15 16
54 56 57 56 58 58 54 58 51 52 51 49 48 47 45 42 40 38 36 34 29 26 24 24 23 22 21 19 16 15 13 10 9 9 10 11 12 12 13 12 12 12 13 13 14 15 16 17 17
56 61 57 48 55 57 54 57 58 52 52 51 49 47 46 45 43 41 39 35 30 27 25 25 24 23 22 21 19 18 16 13 12 11 11 11 12 13 14 14 14 14 14 15 16 17 17 18 19
58 59 51 48 49 54 55 57 55 57 51 52 50 49 48 47 45 44 41 38 34 31 28 27 25 24 24 22 21 19 17 15 14 13 13 13 13 13 13 14 15 15 16 17 17 17 18 19 19
56 52 45 62 54 50 55 55 57 53 55 52 52 50 49 48 46 44 42 39 36 34 31 29 26 26 25 23 21 20 18 16 15 15 15 15 15 15 15 15 16 16 16 17 18 18 19 20 21
57 51 59 56 64 48 52 52 56 54 55 53 51 51 51 49 47 45 42 40 38 36 33 32 30 28 26 24 23 23 21 19 18 17 17 17 17 17 18 18 18 18 18 19 19 20 20 21 22
53 54 53 56 60 59 49 52 55 53 56 58 54 51 51 51 48 46 44 42 40 37 35 35 33 31 30 27 26 25 23 22 21 20 20 19 19 20 20 20 20 21 20 21 22 22 23 23 24
51 54 52 60 52 58 57 49 44 52 46 47 61 54 52 51 50 48 45 44 42 40 38 37 37 35 33 31 29 27 26 25 24 22 22 23 22 22 22 23 23 23 23 23 24 24 25 26 26
52 49 48 53 53 48 54 60 48 42 46 50 48 62 55 51 50 48 46 46 44 42 41 40 40 37 35 34 32 31 29 28 26 26 26 25 24 25 25 25 26 25 25 26 26 26 27 28 29
54 47 48 48 46 50 35 48 56 51 50 55 50 55 61 53 47 47 46 45 44 43 41 42 43 39 37 36 35 34 32 30 29 28 27 27 27 27 27 28 29 28 28 28 29 29 28 30 31
55 50 46 39 32 53 40 45 50 49 48 51 56 51 55 57 50 46 46 45 44 44 43 42 41 44 41 39 38 36 34 32 31 31 31 31 30 30 30 31 32 31 30 31 31 31 30 32 33
52 50 50 47 41 37 47 43 43 45 40 51 52 55 45 49 53 50 46 46 45 44 42 42 43 46 44 41 40 39 37 36 36 36 36 34 33 33 33 33 33 34 33 33 33 33 34 35 36
51 48 42 43 41 35 38 47 49 43 48 50 55 57 56 50 51 54 51 47 47 47 46 44 43 44 47 50 42 40 40 40 40 40 40 38 37 36 36 35 35 36 36 36 35 35 36 38 40
49 45 41 38 38 38 37 41 45 52 40 44 48 56 53 51 49 51 53 55 51 49 49 48 45 42 43 41 42 43 44 45 44 43 43 43 41 40 39 37 37 38 38 38 38 40 42 44 45
46 43 38 36 36 36 34 36 45 52 49 34 43 40 58 56 50 50 50 49 51 55 54 51 48 47 48 46 45 45 46 48 48 48 47 45 44 43 42 41 40 40 40 40 41 44 46 47 47
48 41 36 32 33 31 32 32 34 40 47 48 39 41 40 59 56 55 55 51 50 51 51 51 54 54 54 53 53 53 52 51 49 49 48 46 46 45 44 43 43 43 43 43 46 47 47 47 48
36 45 35 33 31 31 29 29 27 33 36 37 45 42 40 42 56 61 54 52 50 44 44 48 49 50 47 50 53 52 53 55 54 51 49 48 47 47 47 46 45 45 45 47 48 48 48 48 47
33 38 36 32 32 32 29 25 26 20 28 36 38 48 42 44 40 49 48 55 56 53 50 49 50 52 52 49 49 52 54 53 54 50 49 49 50 49 48 48 47 47 48 49 48 48 47 46 43
32 30 36 37 35 35 32 29 25 23 28 30 35 36 40 42 41 35 42 55 55 54 56 55 52 52 50 49 48 46 46 47 48 50 51 52 52 52 51 50 49 48 47 47 47 46 47 44 42
30 31 32 34 34 32 31 33 29 22 25 31 32 32 34 35 43 46 44 34 37 47 50 51 49 50 48 48 48 46 46 46 46 47 48 48 49 49 49 49 48 47 46 46 47 44 43 42 45
33 32 32 32 31 29 26 28 25 19 24 25 24 33 38 35 35 40 47 53 45 42 35 39 45 46 46 44 41 42 43 45 47 49 50 51 51 50 50 49 48 47 46 46 44 44 45 46 48
26 27 30 31 30 28 26 26 28 24 23 25 26 27 27 27 33 37 40 40 35 42 37 40 43 42 45 46 46 48 48 47 48 49 51 51 51 50 48 47 48 47 45 45 46 47 49 50 48
27 28 28 28 28 29 29 28 25 26 25 26 28 28 28 27 28 29 36 42 40 38 40 43 44 46 46 48 51 53 53 51 51 50 50 51 50 50 48 47 46 46 45 46 48 49 51 49 45
20 25 26 27 27 25 26 27 26 25 22 23 28 32 33 32 31 32 33 35 37 44 46 46 50 51 54 56 55 56 57 55 54 54 54 52 49 50 49 47 47 47 47 49 49 50 46 43 42

GFSSGP_500_spd_063.txt.gz
Wind_Speed
52 50 52 53 53 50 47 44 47 44 43 40 36 36 36 35 30 30 26 23 20 19 19 17 14 13 13 11 9 7 6 5 4 4 4 4 3 3 3 4 5 6 7 8 8 8 9 8 8
54 51 53 54 55 54 50 47 48 46 41 43 41 38 34 34 32 32 27 25 23 21 19 17 15 12 12 12 11 9 8 7 6 6 5 3 3 4 4 5 5 6 7 8 8 9 9 9 9
56 54 55 57 55 54 49 51 48 49 44 40 46 43 39 35 35 33 30 27 24 23 20 18 17 13 12 12 11 10 9 9 8 7 5 4 4 4 5 6 6 7 7 8 8 9 9 10 10
59 58 57 57 56 51 54 54 54 46 47 45 46 45 42 37 36 33 32 29 27 24 21 19 17 16 13 12 12 12 11 11 10 9 7 5 4 5 5 6 6 6 7 8 9 9 10 10 10
60 60 58 53 54 52 62 66 53 49 48 45 40 51 47 38 39 37 35 31 30 26 23 22 20 16 15 12 12 13 12 12 11 10 7 6 5 6 6 6 6 7 8 8 9 10 10 11 11
61 60 60 55 50 55 63 60 48 49 50 48 42 43 48 42 42 39 36 34 32 29 26 23 23 19 17 14 13 13 13 13 11 10 8 7 6 6 6 8 8 8 8 9 9 10 11 12 13
60 62 61 52 49 60 63 53 54 51 50 49 48 44 43 49 45 42 38 35 33 31 27 24 24 23 19 17 16 15 14 12 12 11 9 8 7 7 7 9 10 10 10 10 11 12 12 14 14
56 59 59 58 55 57 60 54 54 53 54 48 49 52 42 40 38 38 34 36 34 32 28 27 26 26 23 20 18 17 16 13 12 11 10 10 9 9 9 9 10 11 11 11 12 13 14 14 15
58 61 63 60 58 55 53 54 56 58 52 51 52 49 43 40 38 39 37 37 35 31 29 28 27 27 25 23 22 20 19 16 14 14 13 12 11 10 11 11 12 12 13 13 14 15 16 16 17
62 58 53 56 54 58 49 56 55 54 59 53 53 51 47 44 42 41 42 39 37 33 31 29 28 30 28 25 24 23 21 19 17 16 15 13 13 12 12 12 14 14 15 16 16 17 18 18 19
60 60 55 56 59 59 50 54 56 56 56 59 53 51 50 47 47 44 45 41 41 37 34 30 29 30 30 28 26 25 24 21 19 18 16 16 14 14 13 13 14 14 15 16 17 18 19 19 20
58 53 54 55 55 57 49 53 57 58 60 54 52 51 50 49 49 46 46 45 42 38 35 32 31 31 32 31 27 27 25 22 21 19 18 17 16 16 16 15 15 15 16 17 19 20 20 21 22
61 54 56 61 60 54 55 51 57 58 55 57 57 50 51 52 51 48 48 47 45 41 36 35 32 30 31 32 29 29 27 24 22 21 20 19 19 18 18 18 17 17 18 19 20 22 22 23 24
58 48 52 54 56 54 57 46 54 54 53 52 54 57 50 51 52 50 48 47 46 44 41 38 36 33 32 33 32 31 29 27 25 24 23 22 21 22 21 21 20 19 20 21 23 23 24 25 25
55 50 51 55 55 49 57 65 46 45 54 54 51 54 56 49 52 53 50 46 46 45 43 42 38 36 35 36 36 34 32 30 29 27 26 26 24 24 23 22 22 22 23 24 25 25 26 27 26
59 57 37 54 57 47 55 56 50 46 50 54 61 52 52 51 52 51 51 49 47 46 45 44 41 39 38 38 38 38 36 34 32 31 30 29 28 26 24 24 25 25 26 27 28 28 29 29 29
60 58 51 38 59 52 51 49 46 45 44 40 45 58 52 45 57 51 49 49 49 47 46 45 43 42 40 40 38 40 39 38 36 34 33 32 30 28 28 27 28 28 29 29 30 30 31 31 31
64 58 58 42 46 49 52 49 49 51 44 44 42 46 45 44 38 51 52 46 47 47 47 45 44 42 40 42 43 40 40 41 40 37 35 34 33 32 31 31 32 31 32 32 32 32 34 33 34
63 53 45 43 38 44 48 53 41 45 59 56 52 44 45 46 51 37 44 54 45 46 46 45 44 44 44 41 41 46 48 44 42 39 38 37 36 36 35 35 36 36 35 34 34 35 36 36 37
62 57 47 41 38 38 38 30 42 42 44 54 55 54 47 46 47 50 41 49 57 49 44 44 45 44 41 41 41 41 40 52 43 39 40 39 39 40 39 39 39 40 38 37 37 37 38 39 40
60 56 46 42 38 38 34 32 28 30 37 41 46 47 53 57 55 53 52 47 48 54 54 48 48 47 45 43 43 42 41 39 39 43 45 46 44 43 44 43 43 42 41 40 39 41 41 42 42
52 53 44 37 32 34 33 32 30 29 32 41 41 37 45 52 56 60 60 56 52 52 54 57 52 50 48 47 46 46 47 45 46 45 46 47 48 48 47 46 45 44 44 43 42 44 44 45 45
52 47 36 34 28 31 31 33 32 27 25 33 40 45 45 42 50 62 54 52 52 51 50 49 55 55 55 53 49 51 52 52 55 54 54 54 54 53 51 50 49 47 45 45 45 45 45 46 48
37 44 32 34 32 30 27 29 26 27 27 28 30 36 45 50 48 38 52 60 52 51 50 48 47 47 51 56 55 51 51 52 51 53 55 55 54 53 51 49 48 48 48 47 47 46 47 47 46
29 39 40 30 32 37 33 32 28 29 26 24 24 31 36 40 44 46 40 41 55 58 52 50 50 51 48 50 50 56 54 52 54 52 54 56 58 56 54 53 52 52 51 50 49 48 46 46 45
23 26 34 39 34 32 38 38 35 31 24 25 28 27 33 37 42 41 44 45 41 48 54 54 56 57 53 52 52 54 53 55 54 51 51 50 49 50 51 52 53 53 51 49 49 48 47 46 46
26 28 28 32 33 32 34 36 34 31 27 26 29 30 29 31 37 40 36 41 45 38 39 41 50 56 55 57 59 59 55 53 52 52 51 49 49 50 51 51 51 51 51 50 50 47 44 44 45
28 29 28 29 33 34 36 30 29 26 25 25 29 28 28 26 34 35 32 35 39 49 43 45 45 45 53 58 60 58 55 53 52 49 47 47 48 49 50 51 51 51 51 49 48 48 48 46 45
28 29 29 29 30 29 28 25 24 22 25 26 27 29 29 26 24 27 32 38 43 42 41 40 44 41 41 40 45 42 44 48 49 50 50 50 50 50 49 49 49 49 50 49 47 45 46 47 46
23 24 24 28 27 28 27 28 24 23 24 26 28 30 32 33 32 31 30 29 31 36 41 42 40 38 39 40 41 43 48 51 52 54 54 54 54 53 53 52 50 48 49 49 48 46 47 48 49

GFSSGP_500_spd_066.txt.gz
Wind_Speed
57 55 52 52 52 49 46 38 38 41 37 48 36 45 38 36 27 33 27 24 23 21 20 18 16 15 14 12 10 8 7 6 5 5 5 4 4 2 2 3 4 4 5 5 5 6 7 7 8
58 58 55 54 54 52 48 41 41 44 40 41 39 37 43 37 36 34 30 28 24 21 20 19 18 15 14 13 11 10 9 7 6 6 5 5 4 3 3 4 4 4 5 5 5 6 6 7 7
60 59 59 58 54 57 44 44 45 49 48 39 46 40 44 39 38 32 30 30 27 24 20 18 16 16 15 14 12 11 11 9 8 7 7 6 5 4 3 4 4 5 4 4 5 6 6 6 7
61 62 62 61 53 49 44 42 49 53 50 43 41 46 37 41 35 34 34 31 29 26 24 21 17 16 15 14 12 11 11 11 11 10 9 7 6 4 3 4 5 5 5 4 5 5 6 6 7
61 64 63 60 52 48 42 47 52 56 48 44 43 38 44 36 38 33 35 32 30 27 26 23 20 17 15 15 13 12 11 13 12 12 11 9 6 5 4 4 5 5 5 5 6 6 7 7 8
60 63 65 62 52 49 46 55 55 57 51 45 45 42 39 45 35 33 33 34 33 30 27 24 22 20 17 16 14 14 12 14 14 13 11 9 7 6 5 5 5 5 6 7 7 8 8 10 10
60 59 61 59 54 51 57 57 59 53 53 49 45 47 39 45 40 38 36 37 35 31 29 26 22 23 20 19 16 15 15 15 15 13 12 10 9 7 6 5 5 6 7 7 8 9 10 11 11
59 57 61 59 57 55 57 57 59 52 53 50 45 46 41 38 49 47 36 36 37 32 30 27 24 24 24 22 20 18 17 17 15 15 13 11 9 8 7 6 6 7 7 8 9 11 11 11 12
58 58 63 61 57 48 58 54 56 52 52 52 49 48 41 39 48 36 39 38 39 32 33 29 26 25 25 24 23 20 20 18 17 16 14 12 10 10 9 8 8 7 8 10 10 12 12 13 14
61 61 59 57 56 55 54 53 52 55 54 49 51 50 49 43 43 41 33 40 36 33 35 30 26 26 26 27 25 24 22 21 19 17 16 14 12 12 11 10 10 10 10 12 13 14 14 15 16
62 60 53 57 57 59 52 55 51 51 54 56 54 52 51 46 43 35 37 40 35 33 34 30 28 26 27 28 28 27 25 24 22 20 18 16 15 13 14 12 11 11 11 12 14 15 16 16 17
67 55 57 48 57 58 59 59 52 49 56 53 50 55 49 48 47 42 35 36 37 33 28 33 30 26 27 28 29 29 26 25 24 22 20 18 17 16 15 14 13 13 13 14 14 15 17 18 19
63 56 58 60 52 53 57 54 57 50 51 58 55 52 52 48 47 44 42 42 41 40 36 36 31 28 26 25 27 29 28 26 25 24 22 21 20 19 17 16 15 15 15 15 16 16 18 19 20
59 63 55 54 51 34 62 59 54 48 48 56 56 56 52 50 47 46 45 43 42 40 38 38 35 31 31 28 27 27 28 28 27 25 26 25 23 22 20 19 18 18 17 17 18 19 20 20 22
58 58 55 63 54 38 49 51 54 50 47 52 55 59 55 52 50 48 47 46 45 44 42 39 36 36 34 31 29 29 29 30 29 28 29 28 26 25 23 22 21 19 19 20 21 21 22 22 23
57 59 61 57 62 35 56 55 48 53 52 47 54 53 58 58 51 50 49 46 45 45 46 44 42 39 37 36 31 31 31 32 32 32 32 32 30 27 27 25 24 22 22 23 24 24 25 26 26
61 57 56 50 57 35 40 49 53 54 52 38 48 53 50 53 52 49 50 48 46 46 46 45 43 43 40 38 35 34 32 35 37 36 36 36 33 30 29 28 27 26 25 26 27 27 28 28 29
59 55 50 50 43 45 43 49 55 55 52 53 33 46 52 53 48 48 47 51 46 47 46 45 44 43 42 40 39 36 34 35 38 39 38 38 36 34 32 31 30 30 29 29 30 30 31 31 31
46 55 45 40 45 23 37 43 52 54 50 52 50 43 42 49 54 51 44 43 54 50 47 46 45 44 43 42 41 40 38 35 38 39 40 40 39 37 35 34 33 34 33 33 33 34 33 33 34
49 53 48 33 41 22 44 48 38 44 41 44 39 32 37 33 40 47 50 37 38 54 44 45 44 45 43 43 42 42 42 39 37 34 45 49 41 39 38 36 37 38 37 37 38 38 37 36 36
51 52 57 34 32 31 26 47 42 40 40 36 41 44 45 38 39 45 45 42 40 36 41 53 45 45 44 42 43 41 39 39 38 36 36 35 38 51 45 43 43 43 43 43 42 41 42 40 38
44 57 53 48 31 36 26 32 35 31 32 41 33 33 39 48 49 48 51 45 41 44 45 37 50 54 47 45 44 42 42 41 41 41 40 39 40 42 42 45 48 47 48 49 46 45 45 43 43
42 42 45 47 38 30 22 30 29 32 24 26 29 32 40 45 48 47 53 48 45 46 47 48 48 46 51 56 49 46 45 44 45 46 46 47 44 46 50 51 52 53 53 51 51 49 46 45 44
40 42 45 42 38 30 26 26 24 35 25 25 23 28 38 39 41 43 43 48 50 50 53 57 58 50 50 52 58 49 49 49 49 50 49 49 49 51 52 52 53 54 53 51 49 48 48 47 46
34 35 40 48 48 39 28 28 27 32 30 25 26 24 24 33 38 41 40 44 38 39 51 55 53 54 53 52 49 51 53 55 55 53 52 52 51 53 51 53 54 55 56 56 54 51 50 49 48
26 31 36 39 47 44 38 37 30 28 28 22 26 20 18 23 30 35 38 38 43 35 35 44 54 49 51 50 51 53 52 51 53 54 54 54 53 52 53 52 52 52 51 51 50 48 47 47 46
25 28 31 34 35 34 31 35 37 30 30 25 22 20 22 22 23 28 36 37 39 34 36 41 43 54 59 59 55 54 55 52 50 49 49 54 53 53 53 52 52 52 50 49 49 48 48 48 48
17 18 24 35 32 33 29 26 29 32 28 26 25 25 25 24 24 25 28 32 35 38 35 38 46 42 43 48 47 57 59 57 52 53 54 57 56 54 53 52 52 50 48 48 48 48 47 47 47
19 19 22 24 27 23 22 26 25 21 22 23 24 26 27 29 28 26 24 26 32 32 33 36 40 44 48 46 45 44 47 52 56 59 58 60 57 54 52 50 49 48 48 48 47 46 46 47 46
21 25 23 24 23 27 24 21 17 16 16 19 20 27 29 30 30 29 28 27 26 27 26 28 34 37 38 43 44 47 48 45 41 46 47 48 47 49 52 52 53 51 52 52 51 50 49 48 47

GFSSGP_500_spd_069.txt.gz
Wind_Speed
61 61 57 55 56 52 53 44 53 44 46 54 52 46 40 39 40 36 30 30 27 24 21 18 15 15 14 12 11 10 8 7 6 5 5 5 5 5 4 4 4 4 4 4 4 4 4 4 4
58 61 60 57 56 56 49 41 45 45 41 50 54 48 45 38 32 31 34 31 28 25 21 20 18 15 15 14 13 12 9 8 7 7 7 7 6 4 4 4 4 4 4 4 4 3 3 3 4
58 60 61 60 57 54 51 36 42 44 45 43 49 43 47 41 33 32 36 33 29 25 23 20 20 18 16 15 14 12 12 11 10 9 9 8 7 6 5 4 3 4 4 3 3 3 4 4 4
58 60 62 66 62 50 45 38 43 41 49 42 54 47 45 30 37 40 36 35 31 28 24 20 19 18 18 16 15 13 12 12 12 11 10 10 9 7 5 4 4 3 3 3 3 3 3 4 5
57 61 62 64 61 54 44 45 52 45 44 47 55 48 41 32 36 40 33 34 31 29 26 23 20 18 17 17 16 14 11 12 14 14 13 12 10 8 6 5 5 4 4 4 3 3 4 5 6
59 61 64 59 58 54 46 51 48 49 48 50 51 49 39 36 33 37 42 38 35 31 30 25 23 20 18 16 16 15 13 13 14 15 15 14 11 9 7 7 6 5 5 4 4 4 5 6 7
60 65 59 54 56 56 50 54 52 52 52 49 52 49 43 47 48 48 47 42 38 35 32 28 24 22 20 17 17 16 15 14 15 16 16 14 12 10 9 8 7 7 6 5 5 5 6 6 7
64 65 60 59 58 56 54 48 50 54 53 50 46 52 45 45 49 37 41 41 39 37 34 30 26 23 21 18 19 18 17 16 17 18 17 15 13 12 11 10 8 7 6 6 5 5 6 7 7
64 68 66 58 58 57 55 53 51 53 53 50 41 41 43 38 39 34 36 38 36 36 35 32 27 23 21 21 19 20 20 19 19 19 18 17 15 13 12 11 9 9 7 7 7 7 6 7 8
69 63 61 57 50 56 57 55 57 55 51 44 43 41 45 40 39 38 32 36 40 37 37 33 29 25 22 24 23 21 22 21 21 20 20 18 16 15 13 12 11 10 9 9 9 8 8 8 10
71 61 60 57 53 53 59 57 60 59 53 47 41 43 44 47 41 44 37 20 39 35 39 33 30 25 23 24 25 23 24 24 23 22 21 20 17 16 15 14 13 13 12 12 12 11 10 10 11
63 59 61 49 54 44 57 60 59 56 54 48 45 47 49 45 48 44 49 41 32 35 34 33 32 26 23 23 25 24 24 23 24 23 23 22 19 18 17 16 15 14 14 15 14 13 13 13 13
56 58 60 48 50 55 55 56 55 56 51 46 50 48 48 47 49 49 44 39 31 28 39 33 26 25 24 21 21 22 24 23 23 24 24 25 23 20 19 18 17 17 17 17 16 15 16 16 16
56 56 60 61 45 46 57 55 54 53 53 47 44 49 47 49 48 48 45 39 32 31 32 25 24 25 24 23 22 23 25 25 24 24 26 26 26 24 21 19 19 19 19 19 18 17 18 18 19
59 59 63 59 52 54 52 53 54 51 51 50 43 46 48 47 51 48 47 43 36 34 31 30 32 27 28 26 25 26 26 28 27 26 28 27 28 27 23 22 22 21 22 21 20 20 20 20 21
62 60 63 52 51 52 54 56 47 53 57 54 50 42 49 51 52 45 48 44 42 39 36 35 35 32 32 30 30 30 30 29 30 29 29 30 30 29 27 26 25 24 24 24 23 22 23 22 23
63 58 63 58 57 53 40 39 45 60 50 50 49 45 43 51 54 50 43 46 44 43 40 41 40 38 37 36 35 34 33 31 32 33 32 32 32 30 30 29 28 27 25 26 26 26 26 25 25
54 56 56 59 47 56 55 38 39 43 54 53 51 44 40 46 49 52 51 42 47 43 44 43 43 42 42 40 37 38 36 35 35 34 34 33 34 32 33 32 31 30 29 29 30 29 28 29 29
46 50 52 41 50 59 37 32 37 39 47 44 45 45 40 36 49 46 47 46 52 43 46 43 44 42 43 41 40 39 39 37 38 36 33 36 34 35 33 33 35 35 34 33 33 33 33 32 34
37 53 48 47 44 52 51 47 27 36 47 48 46 43 46 38 48 50 43 44 39 40 42 48 43 42 43 42 40 41 40 39 39 38 38 38 30 36 38 39 37 38 37 36 37 37 38 38 39
33 53 47 34 46 42 37 51 40 38 38 48 49 46 44 47 40 43 47 50 50 43 41 40 50 43 42 41 43 42 43 40 40 41 42 39 36 37 35 33 37 49 47 41 45 43 42 43 44
36 38 50 39 21 25 36 27 27 29 29 39 39 35 37 41 39 31 32 39 52 50 50 39 37 49 41 40 41 40 39 43 43 42 39 38 41 40 38 38 38 38 39 45 47 48 47 48 50
35 36 48 39 23 28 33 17 22 38 29 26 27 30 29 28 41 40 37 35 31 35 43 45 39 37 38 37 43 49 40 41 41 41 42 43 43 44 42 43 43 42 43 46 51 51 52 52 51
29 29 39 45 37 22 19 13 23 23 27 28 23 21 26 31 28 33 34 40 43 41 42 39 39 42 40 43 45 44 41 45 47 47 48 44 45 46 45 46 48 49 48 49 48 49 50 52 52
26 26 33 33 37 42 29 18 21 23 29 26 20 21 19 19 24 27 30 31 38 43 44 44 49 50 50 52 52 54 51 49 49 53 48 47 50 49 49 52 52 53 50 53 52 53 53 51 49
24 32 33 31 27 35 36 27 20 19 21 24 22 21 24 27 23 22 25 32 40 39 37 38 42 45 53 57 56 56 54 54 53 49 49 51 53 55 57 57 54 53 54 52 52 54 54 51 50
27 27 31 31 32 32 33 37 26 23 20 24 19 20 23 23 22 23 25 24 31 36 38 39 38 40 40 41 48 51 51 53 52 49 48 50 49 53 53 54 52 54 53 53 53 53 52 52 51
22 27 30 29 27 27 33 36 33 31 33 30 25 22 21 21 24 25 23 23 21 24 30 32 36 37 40 38 36 48 56 59 60 61 62 60 59 56 55 54 52 56 52 54 53 52 51 49 47
19 20 24 26 27 26 27 31 30 25 26 29 29 23 25 26 25 26 26 26 24 22 24 28 30 35 41 41 40 44 48 51 52 52 47 49 54 60 58 56 55 55 58 60 53 51 50 48 48
14 13 15 17 22 26 25 27 28 24 23 21 26 30 32 36 36 34 33 28 24 23 23 23 22 26 32 39 40 39 44 45 48 43 41 45 41 42 48 50 58 58 57 55 52 52 51 50 49

GFSSGP_500_spd_072.txt.gz
Wind_Speed
58 61 61 60 60 67 54 49 53 51 52 56 56 53 47 39 41 38 34 32 30 26 23 21 19 16 15 14 12 10 10 9 7 6 6 6 6 6 6 5 6 6 5 5 5 5 5 4 3
56 60 61 63 65 66 61 62 49 43 44 54 57 54 49 46 37 38 38 35 33 30 26 24 21 18 16 15 13 11 11 10 9 8 7 7 8 7 7 6 6 6 6 6 6 5 5 4 4
51 58 61 65 66 65 54 57 51 46 52 55 57 56 52 40 39 38 35 37 33 31 27 25 23 21 17 16 15 13 12 11 11 10 10 10 10 9 8 7 6 6 6 6 6 5 5 4 3
58 54 62 69 66 61 54 47 50 49 53 48 53 58 52 49 41 36 37 42 37 35 30 28 24 22 20 16 15 14 13 13 13 13 13 12 11 10 9 8 6 6 6 6 6 6 4 4 4
63 53 61 68 65 62 56 52 51 46 50 51 38 55 52 42 46 42 39 42 40 37 32 28 25 22 20 18 17 15 14 14 15 15 15 14 13 11 10 9 7 7 7 7 7 7 6 5 5
57 63 59 65 62 63 57 52 55 46 49 49 40 59 59 54 52 51 43 47 44 40 34 30 26 23 20 18 16 16 15 14 15 17 17 15 14 13 11 10 9 9 9 9 9 8 7 6 6
62 63 59 59 65 63 59 53 51 51 50 41 42 51 61 36 51 47 49 47 44 40 36 31 28 26 22 20 17 15 15 15 15 17 18 17 16 15 13 11 10 10 10 10 10 9 8 8 7
59 56 65 64 64 61 56 54 49 53 52 49 46 53 61 44 35 37 47 43 42 41 38 35 32 28 25 23 20 17 16 16 17 17 18 18 17 16 15 13 12 11 11 10 10 9 9 8 8
59 66 69 62 65 57 53 56 53 54 52 52 48 51 48 51 47 44 40 44 42 39 38 36 34 30 26 25 21 19 18 17 19 18 19 19 19 18 16 15 13 12 11 11 10 10 9 8 8
64 65 67 64 60 56 52 59 56 56 55 55 53 59 47 54 48 37 37 45 39 42 43 40 35 30 28 26 23 20 19 19 20 19 20 21 21 19 18 16 15 13 12 12 12 11 10 9 10
67 62 63 64 60 54 52 59 59 57 58 55 50 51 44 41 30 35 34 44 44 45 48 44 34 32 29 26 23 22 20 20 20 21 21 22 22 21 19 17 16 15 14 13 13 13 12 11 11
65 61 62 63 61 53 53 59 60 59 57 54 50 43 40 45 39 36 41 45 50 43 40 45 37 32 29 25 24 22 21 20 19 20 22 22 22 21 20 19 17 16 16 15 15 15 14 14 14
61 64 61 61 60 56 52 56 63 59 57 53 47 40 39 36 41 41 34 43 44 34 40 40 41 37 32 26 22 22 21 22 21 21 22 23 24 23 22 21 19 18 18 18 17 17 17 16 16
59 63 60 57 58 62 48 57 60 64 58 56 48 41 40 38 37 44 38 43 43 38 24 37 36 33 31 28 24 22 21 22 22 23 24 25 25 25 24 23 22 21 21 20 20 19 19 18 19
63 62 59 61 54 47 57 53 57 62 59 53 51 49 47 40 40 42 42 41 45 40 34 23 32 30 23 27 24 22 23 22 23 23 25 26 28 27 27 26 25 25 23 22 21 21 20 21 21
61 63 61 55 55 54 53 42 53 58 60 56 51 48 46 43 41 39 46 43 43 42 40 30 25 27 30 21 22 23 23 24 23 24 26 29 30 29 28 28 28 27 26 25 24 24 23 23 24
60 60 61 50 54 53 57 52 45 53 57 57 53 48 46 43 40 40 41 40 42 37 41 36 33 24 25 24 29 26 26 26 26 27 28 30 31 31 30 29 30 30 30 28 28 27 28 27 27
57 60 54 47 57 42 52 53 56 61 57 52 53 51 47 40 37 41 42 40 45 37 35 41 38 32 30 29 30 29 31 31 31 31 30 32 33 31 32 31 31 31 31 30 30 31 31 30 30
54 53 50 34 54 53 51 45 40 43 48 49 53 55 51 47 45 41 41 40 40 43 37 36 39 38 34 36 36 36 36 33 34 35 33 33 33 31 33 35 35 34 33 33 33 33 34 33 34
53 50 50 47 35 48 47 45 44 40 54 50 51 48 47 48 44 39 34 37 41 40 41 43 45 42 36 41 35 36 38 39 39 38 37 36 35 36 35 33 34 36 35 36 37 37 37 37 37
49 39 46 53 40 29 43 42 39 36 40 39 42 52 51 46 43 40 33 28 39 42 40 42 38 40 42 42 40 44 45 45 38 39 42 41 39 38 38 40 38 36 35 35 34 34 43 46 44
32 40 39 26 38 43 46 39 37 38 41 32 34 40 41 42 40 41 36 31 37 44 44 41 39 36 42 44 47 44 45 45 44 48 46 40 38 40 41 41 40 41 39 37 37 39 40 43 45
24 33 45 20 20 30 36 37 46 41 38 36 34 37 43 46 41 35 37 39 31 36 44 48 47 47 44 42 38 46 49 49 44 45 47 49 44 39 43 43 41 41 41 40 43 46 44 46 47
31 25 37 35 23 20 26 35 28 29 23 21 28 36 40 42 32 31 30 37 35 35 34 41 48 49 50 46 42 40 46 43 43 47 44 39 40 43 43 46 44 46 45 42 44 47 49 52 52
31 25 26 38 35 23 18 27 21 18 30 29 26 24 27 28 32 29 25 32 42 36 37 37 37 40 45 48 45 42 44 43 40 39 42 46 44 45 47 46 46 47 49 47 51 54 56 55 53
32 26 23 30 35 26 19 20 24 20 19 23 23 22 21 21 21 21 22 25 29 29 29 33 39 36 42 46 46 45 48 52 52 51 51 50 49 50 53 49 50 51 53 55 58 57 56 55 54
27 23 24 25 25 26 24 27 21 16 18 20 20 19 22 21 21 22 22 21 22 28 30 32 36 39 41 41 43 47 50 51 54 56 56 55 57 54 54 53 54 57 53 54 55 56 54 52 52
22 27 27 25 28 24 22 22 23 24 17 14 18 22 24 26 25 23 23 24 28 31 32 34 36 40 45 47 49 47 46 44 43 47 51 52 52 53 51 60 61 61 59 57 56 55 53 56 59
21 24 28 31 29 28 27 25 26 27 29 27 27 25 24 24 25 27 27 29 30 29 29 30 31 33 37 40 43 43 45 43 45 42 47 56 62 64 59 58 59 60 62 64 61 61 60 59 58
13 17 17 22 25 25 22 19 21 28 31 33 34 32 33 32 32 31 32 32 30 30 30 30 29 28 28 28 29 33 38 43 44 46 48 52 53 51 50 51 46 44 46 47 49 50 44 51 58

GFSSGP_500_spd_075.txt.gz
Wind_Speed
56 59 62 64 67 71 69 57 57 54 58 59 59 57 51 48 44 42 37 36 32 30 27 25 21 18 17 15 13 12 11 10 9 8 8 7 7 7 6 6 6 7 7 8 8 9 8 7 7
54 58 62 65 71 71 69 60 52 54 61 47 59 58 55 51 48 43 39 36 35 33 30 27 24 21 19 16 15 13 12 12 11 10 9 8 8 8 7 6 7 8 8 9 9 9 9 8 7
55 55 60 66 70 71 63 63 48 56 64 56 55 60 56 53 49 45 41 39 35 33 31 29 26 23 20 18 17 15 14 13 12 11 10 9 9 9 8 7 7 8 8 8 9 9 9 9 8
54 54 59 66 68 64 61 60 51 59 58 56 51 56 56 53 49 46 45 41 38 36 34 31 28 26 24 20 18 17 16 15 14 13 12 11 11 10 10 9 8 8 8 9 9 9 8 8 9
55 54 59 64 62 59 64 62 53 58 54 51 46 53 55 52 49 38 44 43 43 42 38 34 32 28 26 24 19 17 17 16 15 15 14 13 13 12 12 10 9 9 9 9 9 10 10 9 10
60 57 62 68 56 59 64 61 56 56 57 51 50 53 50 54 42 43 47 47 42 41 41 36 33 30 27 25 23 20 17 17 16 17 16 15 15 14 14 13 12 11 10 10 10 10 10 10 10
63 62 60 56 59 60 65 56 57 53 50 52 59 51 42 57 46 52 49 46 47 46 43 38 36 33 29 26 24 21 19 18 17 17 16 16 16 16 15 14 13 12 11 11 11 11 11 10 9
60 63 62 55 62 62 65 58 54 57 54 48 47 58 38 58 54 49 47 49 47 48 47 42 37 33 30 27 24 22 20 18 19 17 16 18 18 18 16 16 15 13 13 12 12 11 11 11 10
51 67 65 62 58 58 59 61 56 60 57 54 44 44 46 54 53 54 55 54 53 54 52 48 39 35 32 29 26 23 21 18 19 18 18 18 20 20 18 17 16 15 13 13 12 12 12 12 11
57 65 65 64 50 60 58 60 60 58 57 56 48 51 51 57 57 54 54 59 59 58 53 47 41 37 33 30 28 25 23 21 20 19 20 20 21 20 20 18 18 16 15 14 13 12 12 12 11
63 56 60 72 46 61 54 56 60 59 57 55 52 51 50 53 54 53 45 32 51 55 56 48 42 39 36 32 29 25 23 21 22 22 21 21 21 21 21 20 19 18 17 15 14 14 13 13 13
65 55 63 65 53 57 54 53 55 60 57 53 49 50 51 56 49 43 45 32 43 40 45 49 48 44 41 33 30 25 23 22 22 22 22 21 22 23 22 22 21 19 18 17 17 16 15 15 15
66 59 59 64 68 54 54 60 49 58 59 50 49 46 51 50 42 43 39 31 43 35 41 43 47 47 44 37 30 25 22 21 21 22 23 23 23 23 23 23 21 20 21 20 19 19 18 18 18
62 57 57 65 64 54 59 59 50 56 59 52 48 53 49 40 34 39 37 33 29 43 37 47 47 44 48 39 37 30 26 24 22 22 23 23 24 25 25 25 24 22 23 23 22 21 21 20 20
59 58 58 65 61 60 58 53 59 58 60 57 55 48 46 41 38 42 35 39 35 34 38 41 45 41 38 40 39 36 29 25 23 22 22 23 24 25 26 26 26 25 25 26 25 25 24 23 23
60 53 59 64 56 59 63 50 61 55 59 55 55 53 47 39 38 36 31 33 36 33 32 34 38 28 41 36 36 36 36 29 25 23 21 24 25 26 27 28 28 28 29 29 28 28 26 24 24
62 57 55 63 57 54 51 60 57 53 57 57 51 52 49 44 38 37 36 35 34 33 34 35 27 27 26 38 32 28 30 26 24 23 22 23 27 27 26 28 30 30 31 32 30 29 28 28 27
60 55 53 60 52 44 48 54 56 43 53 57 56 48 48 48 45 42 38 34 29 27 29 31 26 26 28 27 24 29 24 25 25 25 25 25 27 27 27 29 31 31 31 32 32 31 31 31 31
53 46 47 55 43 44 39 54 57 44 50 56 58 54 49 47 46 40 38 35 29 31 29 30 27 23 34 31 22 27 25 29 24 27 29 30 30 32 30 30 30 32 33 33 34 34 34 34 35
55 44 46 51 44 33 37 45 54 59 35 49 55 57 54 49 47 42 40 36 31 31 33 33 31 29 27 27 30 33 30 28 32 31 32 32 32 35 35 33 34 35 32 32 37 36 37 36 37
50 45 41 49 40 39 48 38 56 39 42 43 44 55 53 51 48 45 43 37 33 30 33 34 33 31 31 28 25 31 36 37 35 34 35 37 38 39 39 39 39 38 36 38 39 38 36 36 35
46 39 39 53 47 32 42 38 42 53 35 35 40 51 48 48 49 48 44 42 38 32 32 31 33 33 34 33 29 29 35 37 37 44 45 46 45 44 43 40 42 44 43 43 43 40 39 39 38
35 34 33 40 44 24 35 34 28 41 44 34 40 44 42 45 45 44 42 40 38 33 33 35 35 39 39 35 32 32 32 38 39 39 35 37 38 44 48 47 47 43 43 43 43 43 43 40 42
33 26 35 28 20 20 23 28 36 24 29 31 31 36 32 34 40 43 43 38 38 39 37 34 34 35 39 41 39 40 40 41 39 44 38 37 36 38 39 43 43 39 39 42 43 43 43 44 46
29 29 36 34 28 9 15 25 32 25 33 29 29 34 30 33 35 37 40 38 37 33 36 37 36 33 34 35 45 48 47 44 40 45 47 46 44 43 48 42 40 42 43 45 43 44 48 49 53
25 21 22 21 24 14 18 21 24 23 25 25 26 29 35 36 35 39 37 32 32 34 35 41 40 36 36 33 34 40 44 46 44 44 46 41 42 47 45 38 51 43 45 46 52 48 48 48 51
18 15 9 13 18 17 13 19 26 22 17 27 28 22 20 16 23 29 35 34 33 32 35 37 35 35 35 34 38 41 39 41 44 48 52 48 51 52 55 56 57 55 56 56 58 55 56 54 52
18 17 15 13 12 19 17 13 11 16 20 24 26 23 24 25 26 27 28 29 30 28 28 27 31 33 34 35 37 37 39 40 42 44 45 47 50 51 46 53 58 55 57 58 60 60 59 58 61
19 21 20 18 15 16 15 17 16 14 20 21 22 26 24 24 26 27 27 27 31 30 31 33 35 37 37 37 38 39 42 44 46 49 51 49 48 47 45 51 52 54 56 60 61 64 65 63 61
15 17 19 19 19 18 18 18 19 21 21 26 22 22 21 23 26 29 31 31 34 34 34 34 33 34 34 35 36 37 39 41 43 44 46 47 48 50 49 50 52 53 54 53 49 52 54 48 47

GFSSGP_500_spd_078.txt.gz
Wind_Speed
47 54 63 62 66 71 73 71 63 58 57 62 51 58 55 52 48 45 40 39 35 33 30 28 25 22 20 18 16 14 13 11 11 9 9 9 8 7 7 6 7 6 7 7 8 9 9 9 9
43 56 63 64 69 72 73 69 64 56 56 59 61 58 56 52 53 47 44 41 37 35 33 31 27 25 22 21 18 16 14 13 12 11 10 9 8 7 7 7 7 7 7 7 8 9 9 9 9
46 58 63 65 66 72 71 64 60 56 58 61 69 45 59 59 54 49 44 42 38 37 35 32 30 27 24 22 20 18 16 14 12 12 12 11 10 9 8 7 7 8 7 7 8 8 9 8 8
45 57 65 66 68 65 62 57 58 62 60 61 60 61 57 55 51 51 47 43 41 38 37 35 32 29 26 24 22 20 18 16 14 13 13 13 11 10 9 8 8 8 8 8 8 8 8 8 8
42 55 63 66 67 60 54 56 60 64 64 60 64 59 51 54 41 51 49 47 44 41 39 36 35 32 29 26 23 22 20 18 17 16 15 15 13 12 11 10 9 9 9 9 8 9 9 9 9
45 52 62 64 62 56 54 56 62 63 66 68 61 57 50 52 51 42 51 51 48 45 42 40 37 34 32 29 27 24 22 20 19 18 17 17 17 15 13 12 11 10 10 10 10 10 10 9 10
46 51 61 59 56 55 54 55 59 60 62 65 63 50 56 53 45 50 53 49 51 48 45 41 39 37 34 31 30 28 25 22 21 20 19 19 19 18 16 14 12 12 12 11 11 10 10 10 9
44 52 59 64 53 54 54 59 51 55 58 63 60 55 48 49 63 48 42 59 63 54 48 44 44 42 38 35 33 30 29 26 24 21 20 19 19 19 17 16 15 14 13 12 11 10 10 10 9
47 50 54 61 59 49 53 58 54 52 54 60 58 53 52 53 48 58 51 47 49 49 46 46 46 45 41 38 35 31 30 27 25 23 21 19 18 19 18 18 17 16 15 14 13 12 11 11 10
52 50 47 45 58 54 53 59 54 49 52 55 54 45 46 56 52 55 44 46 43 43 47 47 48 47 42 39 36 32 30 27 25 23 22 21 19 19 20 19 18 18 17 15 14 13 13 12 11
61 56 45 45 52 55 54 59 58 51 51 53 54 47 41 52 57 44 43 39 53 51 47 50 53 52 48 42 37 34 30 27 25 24 22 22 20 21 21 21 20 19 19 18 16 15 14 14 13
67 60 59 52 48 60 60 57 60 53 51 52 54 49 47 40 48 44 49 38 35 43 46 56 60 58 54 46 40 37 33 31 29 27 25 25 23 22 23 23 22 21 21 20 18 17 16 16 15
65 66 63 56 54 57 61 56 59 60 41 57 52 53 46 46 48 53 55 59 45 53 55 58 61 63 57 49 46 39 34 32 31 29 27 27 25 24 25 25 24 23 22 21 21 20 19 18 18
48 50 54 53 58 54 60 53 59 60 43 54 57 45 48 46 46 53 56 61 44 43 47 43 49 55 54 46 43 42 38 33 32 31 28 28 27 26 26 26 25 25 24 24 24 22 22 21 21
42 49 52 60 59 52 58 60 58 44 57 58 58 49 44 50 52 49 51 51 45 33 48 46 37 43 41 40 42 40 42 38 35 34 31 28 27 26 26 26 26 26 26 26 26 25 25 24 23
33 41 52 60 58 52 65 48 65 50 51 59 58 44 43 44 48 43 40 33 48 34 26 47 36 37 41 40 37 38 34 39 39 38 32 30 29 28 27 26 27 26 27 29 28 28 28 27 27
30 38 51 53 56 52 63 43 58 50 55 55 55 49 44 42 44 46 43 33 40 41 33 36 27 32 32 43 35 36 34 34 36 37 32 31 29 27 25 26 28 28 29 30 29 30 31 30 29
22 43 42 49 49 50 59 27 54 49 53 53 52 56 53 44 40 40 36 28 27 17 25 30 17 31 31 32 43 36 37 37 33 34 31 30 30 28 26 25 27 29 30 31 32 32 32 33 32
24 42 20 43 42 52 50 50 50 49 60 53 54 51 52 46 40 33 31 33 32 20 22 20 21 17 20 30 34 45 38 31 30 28 27 30 27 28 27 28 28 29 30 32 32 33 33 35 35
26 45 33 37 44 51 55 48 34 47 58 55 54 49 44 47 48 38 37 33 31 32 25 24 22 25 19 22 29 33 42 36 37 33 35 33 33 33 33 31 32 33 34 35 36 36 37 38 39
26 41 37 32 43 53 47 25 34 45 48 47 47 46 49 39 42 44 39 38 31 30 28 22 26 25 21 17 21 26 29 32 28 31 36 36 36 37 37 36 37 39 38 38 40 39 40 40 40
33 36 32 29 39 41 38 31 24 45 52 42 39 47 45 44 43 38 38 39 36 32 28 25 26 24 25 24 20 31 33 31 33 36 36 38 35 36 37 39 41 41 43 41 40 39 40 41 42
37 33 26 30 37 38 27 18 25 43 54 46 28 42 41 45 44 47 42 37 36 36 35 34 31 30 28 28 29 28 31 31 30 30 33 32 34 34 39 38 38 39 38 35 35 42 42 41 43
33 30 17 21 32 31 17 20 30 29 38 39 41 39 38 48 46 43 44 43 41 40 40 40 36 34 33 32 31 32 36 34 32 32 33 32 30 35 32 26 30 37 42 35 36 34 34 37 36
24 23 19 13 16 25 19 13 23 23 20 42 34 26 32 42 44 44 44 42 42 41 40 40 39 38 38 33 29 28 31 36 39 39 37 36 37 37 37 34 33 39 39 38 41 35 38 44 45
20 11 10 17 23 11 8 17 18 19 13 23 30 24 39 39 36 37 41 44 42 42 38 37 37 38 37 35 34 32 32 35 34 40 43 46 40 38 39 44 52 48 51 42 42 46 46 43 43
16 19 11 19 20 14 6 13 17 21 20 25 16 19 27 31 30 29 31 34 37 38 38 36 37 36 36 36 40 40 37 38 34 33 34 40 43 45 44 44 46 49 49 53 50 52 54 54 56
11 11 10 7 7 4 10 9 18 23 21 20 23 22 26 32 30 31 35 35 35 37 35 33 32 34 37 35 39 40 40 36 36 37 38 40 44 41 44 45 47 48 48 50 52 53 52 53 55
10 7 7 0 2 3 3 1 4 14 22 23 26 27 25 23 22 24 25 27 31 35 36 34 33 32 30 30 33 35 36 36 35 36 36 39 41 43 45 48 49 49 49 50 50 52 52 55 53
6 7 10 10 9 6 6 5 7 10 5 8 19 26 28 28 28 28 28 30 31 33 33 32 35 35 34 36 38 39 38 38 38 38 40 42 42 42 44 45 45 46 47 49 51 53 52 51 50

GFSSGP_500_spd_081.txt.gz
Wind_Speed
53 52 51 53 51 58 62 66 70 65 63 58 53 55 55 58 54 50 46 41 39 36 35 32 31 29 25 22 19 16 14 12 13 13 11 10 9 8 8 7 6 5 5 5 5 6 6 6 6
53 51 51 55 56 60 64 66 68 65 63 56 57 56 56 58 50 53 48 43 40 38 37 34 33 30 27 24 21 17 16 14 14 14 12 10 9 9 9 7 6 5 6 6 6 6 6 7 6
50 49 51 55 60 63 64 62 63 62 62 61 59 57 60 56 55 52 53 47 42 39 39 36 34 31 29 26 23 20 18 17 16 16 14 12 11 10 10 8 7 6 6 6 6 6 6 6 6
48 50 51 55 57 62 61 57 58 60 60 62 59 61 55 56 57 50 52 48 47 43 41 38 36 34 31 28 25 22 20 19 18 17 16 14 13 12 11 10 8 7 7 7 6 6 6 6 6
47 49 52 55 57 61 53 53 55 57 59 62 61 61 62 61 55 49 55 51 47 47 45 41 39 36 34 31 27 24 22 21 21 19 18 16 15 15 13 12 10 9 8 8 7 7 7 7 6
47 48 52 52 56 54 49 51 53 57 58 59 65 61 65 59 54 49 44 53 53 50 49 45 42 39 36 33 30 26 25 24 23 22 21 19 18 17 16 14 13 12 11 9 9 8 9 8 8
47 48 50 51 51 49 44 50 54 53 57 58 63 58 65 60 61 48 49 55 60 57 51 49 44 41 39 36 33 29 27 26 26 25 24 23 21 20 18 17 15 14 12 11 11 11 10 9 8
48 49 49 51 53 44 42 46 50 54 57 56 61 69 69 57 58 55 43 27 68 58 55 51 48 44 40 37 35 33 31 30 28 28 26 25 24 22 21 19 17 16 14 13 13 12 11 9 9
50 53 49 49 50 34 41 44 49 54 55 63 57 63 68 62 58 68 44 26 49 57 56 52 49 46 43 41 38 37 35 33 31 29 27 26 25 23 22 21 19 17 16 15 14 13 12 11 10
52 53 46 41 40 41 42 44 50 57 58 59 56 63 63 58 58 64 69 33 31 52 56 55 53 48 45 42 40 38 37 35 33 31 29 27 26 24 23 21 20 18 18 16 15 14 13 13 12
54 53 44 45 41 40 47 49 55 60 58 52 60 56 59 57 59 61 58 51 37 38 57 52 52 49 47 46 44 41 40 38 35 33 31 29 28 25 24 23 22 21 20 19 18 17 16 16 15
58 52 51 45 46 42 44 50 56 57 56 48 52 57 57 52 52 61 58 40 40 37 52 60 47 48 48 50 48 46 42 39 36 34 32 30 28 27 26 25 24 23 22 22 20 20 19 19 18
63 57 57 53 52 49 47 46 56 57 58 55 51 57 55 49 50 47 53 44 45 50 52 45 44 49 50 52 52 48 45 42 39 36 34 31 30 29 28 26 26 26 25 24 23 22 21 21 20
59 61 64 63 59 53 51 44 59 55 57 65 57 53 49 48 44 46 34 35 41 39 46 45 50 58 56 48 53 51 50 48 42 39 37 34 33 34 31 29 29 28 27 27 26 25 25 24 23
46 52 57 66 66 63 53 54 54 56 52 56 46 48 43 45 45 47 35 37 39 42 50 45 52 56 51 55 47 57 55 50 45 43 39 38 37 34 32 31 30 29 29 29 28 27 28 27 26
32 37 40 41 55 65 60 54 45 57 50 57 36 46 40 39 47 47 36 37 39 53 44 30 54 57 60 60 57 40 62 52 47 46 45 41 39 37 34 33 33 31 30 30 30 30 30 30 29
28 34 36 40 42 55 59 50 49 56 50 59 49 44 48 37 38 36 43 45 44 44 39 28 37 37 46 46 57 46 44 48 50 51 46 44 42 39 38 37 35 33 33 32 30 31 30 30 31
15 18 22 29 44 49 51 49 48 57 47 49 59 38 47 41 41 40 41 41 39 35 25 32 43 39 33 43 49 44 37 42 46 48 44 41 44 40 40 38 37 35 35 32 31 31 30 31 33
17 9 12 20 41 47 47 42 51 60 48 41 41 51 48 50 47 40 39 31 31 29 43 30 34 33 27 36 39 42 37 39 38 37 36 32 32 43 39 36 36 35 34 34 32 32 32 34 36
4 19 22 21 37 42 45 40 49 41 46 38 31 51 50 55 46 41 42 41 35 31 22 21 32 30 30 40 29 35 49 45 40 40 42 39 35 35 34 35 34 34 36 35 32 34 34 35 35
13 20 22 25 34 38 36 36 54 24 50 38 54 48 48 55 51 49 38 34 28 36 33 27 26 29 35 34 31 23 37 42 51 48 41 39 36 31 39 36 37 35 36 34 37 38 38 39 38
22 20 25 25 30 26 29 30 42 21 39 40 50 50 46 43 61 56 46 32 27 26 24 20 28 21 22 20 25 25 23 31 29 41 42 40 41 37 40 40 41 39 38 37 30 36 35 30 33
22 18 17 14 18 24 24 29 39 21 29 42 45 49 40 43 33 38 36 34 36 32 24 22 19 19 20 18 27 21 26 32 29 37 39 35 41 39 44 39 33 32 38 35 35 43 42 39 37
23 18 12 11 14 18 25 29 10 12 23 34 44 47 38 34 45 37 33 31 30 26 26 27 25 28 28 26 25 26 25 23 23 29 31 34 31 34 33 31 32 29 39 42 39 46 42 36 34
20 18 17 12 14 18 20 7 6 10 17 30 36 43 35 37 39 38 34 35 32 32 31 32 36 36 34 30 29 28 28 27 27 24 30 29 31 30 30 31 32 35 39 34 38 34 34 34 36
11 7 17 13 13 12 8 5 5 15 12 26 41 31 30 30 35 33 38 40 39 37 36 36 37 38 35 32 34 33 33 31 29 30 29 35 36 39 33 37 36 34 42 47 42 47 48 43 40
17 16 14 15 18 10 9 8 7 14 9 14 23 33 23 34 36 26 36 42 42 35 37 41 39 38 36 37 39 36 35 34 35 32 30 31 35 37 36 34 38 40 39 45 42 44 44 43 44
19 23 16 12 10 12 11 14 11 14 9 8 17 21 26 26 30 36 35 38 35 34 37 41 42 41 39 36 34 34 36 36 37 38 35 35 37 38 36 41 42 40 40 36 39 43 45 46 46
7 16 15 13 15 13 16 10 3 7 13 10 9 16 26 32 35 33 32 31 34 34 36 39 42 41 40 39 35 36 36 37 36 36 38 36 34 34 36 38 39 40 40 41 44 46 45 45 47
12 6 5 7 9 7 6 9 10 9 4 7 10 11 19 22 25 29 32 34 34 36 38 40 43 41 39 37 37 37 33 32 33 34 35 35 36 38 39 40 40 41 42 40 36 33 33 35 38

GFSSGP_500_spd_084.txt.gz
Wind_Speed
47 48 47 51 50 54 53 52 55 50 45 55 58 57 57 54 55 55 53 48 45 41 38 35 32 30 30 28 27 23 20 17 15 15 14 13 12 12 11 9 7 6 5 5 5 4 5 5 5
50 50 51 53 55 55 54 53 56 49 46 57 59 61 59 55 54 53 51 50 46 44 40 37 34 33 32 31 29 26 22 19 17 16 16 15 14 13 12 10 8 7 6 6 5 5 5 5 5
53 53 53 54 58 57 52 54 53 46 45 56 60 62 61 56 52 51 53 50 50 46 42 38 37 35 34 33 30 27 24 20 19 18 18 16 16 14 13 12 10 8 7 7 6 6 5 5 5
52 53 55 56 56 54 52 53 52 43 47 56 59 63 63 62 54 53 57 53 52 49 45 42 39 37 36 35 32 29 26 23 21 20 20 19 18 16 15 14 12 10 9 8 8 7 7 6 6
53 55 54 58 56 54 52 49 51 37 48 56 59 62 63 64 54 52 48 53 52 52 48 44 42 39 38 37 35 31 28 25 23 22 22 22 21 19 18 16 14 12 11 10 9 9 8 8 8
54 53 56 57 56 53 48 44 46 41 48 56 58 62 66 63 62 53 56 45 52 53 52 49 46 43 42 40 37 34 31 27 25 24 24 25 23 22 21 19 17 14 13 12 11 10 10 10 10
54 53 56 56 57 51 43 42 46 40 46 56 58 61 65 64 66 64 48 54 47 57 57 54 51 47 45 43 40 37 34 31 28 27 27 26 25 25 23 21 19 17 15 14 13 12 12 12 11
52 55 58 56 54 41 40 39 41 41 48 49 58 62 65 64 65 63 58 56 63 60 63 58 55 52 48 45 42 39 37 34 31 29 29 29 28 27 26 24 21 20 18 17 15 13 13 13 11
50 55 57 52 41 37 41 44 38 42 49 53 59 60 63 67 65 69 65 69 38 48 63 59 58 57 51 48 46 43 39 37 34 32 31 31 31 29 28 26 24 22 20 19 17 16 15 14 13
51 55 56 42 43 43 46 46 42 48 50 54 56 60 62 65 69 67 64 64 62 37 42 61 62 61 56 51 48 46 43 41 38 35 34 33 32 32 30 28 26 24 22 20 19 19 17 16 15
52 55 48 49 47 48 47 47 46 48 52 54 57 55 58 61 71 66 67 68 58 35 46 48 59 62 56 53 50 46 44 42 40 37 36 34 34 33 32 30 28 26 23 22 21 21 19 19 17
55 55 52 50 53 52 51 50 48 49 50 54 61 56 60 61 68 67 69 71 67 44 34 44 52 58 53 53 52 49 46 43 41 39 38 37 36 35 33 30 29 27 25 24 23 23 22 21 20
54 53 56 56 58 55 55 53 46 50 49 55 59 60 58 62 57 57 69 67 72 76 45 40 48 48 57 50 52 51 48 45 43 42 40 38 37 36 35 33 31 28 28 28 27 26 25 24 24
56 56 58 60 59 56 59 54 52 47 51 56 59 57 52 66 53 49 53 64 60 64 51 34 46 42 48 56 52 52 50 48 47 46 44 42 41 39 38 34 32 31 31 31 30 30 29 28 27
51 55 60 61 57 59 55 58 52 43 48 54 57 52 51 69 61 43 49 50 52 47 46 43 47 48 51 51 52 52 52 52 51 49 47 47 45 43 39 35 37 36 34 34 33 33 31 31 30
37 42 49 49 56 56 61 58 46 47 45 53 54 58 59 62 57 44 47 49 30 23 35 41 34 48 52 51 53 53 55 55 53 50 49 48 48 45 39 42 39 37 37 36 36 35 35 34 33
18 21 28 34 41 47 55 58 49 47 43 53 55 52 54 45 46 41 45 42 46 28 27 38 39 43 43 50 56 49 57 58 57 55 52 51 50 45 45 45 41 39 39 38 37 37 37 35 34
11 15 17 22 28 33 44 57 53 46 44 50 53 51 57 45 39 39 40 42 41 34 26 34 28 44 28 50 52 56 50 50 56 57 58 57 53 50 45 45 42 40 39 39 38 39 39 36 35
13 18 20 16 29 36 35 52 51 48 47 50 57 50 50 49 40 31 42 45 47 43 37 33 22 35 36 44 55 54 56 54 53 61 57 64 54 43 43 40 39 40 41 40 40 42 40 39 37
4 7 10 15 21 30 33 40 55 51 47 45 53 47 45 55 42 45 42 41 43 39 31 29 26 26 28 35 40 53 50 51 45 45 48 55 52 47 38 34 42 47 44 43 41 41 41 41 38
11 10 8 13 19 25 32 40 52 45 42 49 47 46 43 43 50 40 35 47 52 39 23 23 18 29 32 41 33 42 44 52 49 39 40 45 43 40 34 32 32 39 42 46 46 43 41 41 42
10 9 27 20 21 23 31 32 40 39 44 48 41 46 44 40 41 53 34 40 41 46 42 42 36 31 31 36 28 41 48 48 46 50 44 44 41 43 40 41 38 35 47 42 41 38 35 32 30
25 26 25 27 20 23 26 26 24 31 45 43 54 47 33 23 44 40 43 47 34 30 34 34 39 35 28 31 33 34 38 43 28 48 55 54 49 47 45 46 42 45 39 40 38 40 41 36 38
23 19 19 15 17 18 16 17 24 36 17 18 50 39 27 31 40 42 46 44 43 36 26 23 26 26 22 29 25 20 20 25 25 26 23 45 57 54 48 51 48 45 38 41 40 34 36 37 42
18 16 16 17 15 13 14 18 20 24 15 19 27 35 36 32 33 39 19 27 23 22 23 25 25 28 24 22 19 26 21 23 21 26 24 26 29 37 46 42 49 47 37 39 42 36 36 42 43
23 18 19 17 17 24 20 14 11 8 5 17 25 30 33 34 30 28 30 26 24 24 22 22 23 25 25 22 27 28 25 24 21 23 23 20 24 22 28 27 31 32 30 36 38 35 35 43 41
25 20 21 24 17 18 18 15 14 10 9 15 18 25 29 32 30 28 28 25 28 26 28 27 28 28 27 29 29 30 31 31 28 30 27 23 27 28 26 28 26 28 38 42 44 42 43 43 43
24 24 23 22 20 24 18 13 14 12 16 13 17 21 25 26 21 26 22 28 31 32 33 29 29 32 33 34 35 35 32 34 33 32 31 32 32 34 34 36 38 37 39 43 38 42 37 34 34
31 31 28 27 26 19 17 16 14 9 13 11 10 19 30 20 14 22 26 25 26 28 31 31 34 37 38 38 39 37 36 35 34 36 37 38 39 40 40 38 39 40 41 42 41 37 36 38 39
22 24 24 22 21 16 16 21 20 14 11 10 6 11 18 24 24 26 33 31 27 29 31 33 35 38 40 39 39 40 39 39 39 40 41 41 42 40 40 40 39 39 39 40 39 40 40 39 36

GFSSGP_500_spd_087.txt.gz
Wind_Speed
46 47 46 48 49 51 50 46 38 41 39 41 37 37 43 46 50 52 59 53 48 47 44 40 36 33 31 29 28 27 26 24 20 18 17 18 16 15 13 12 10 8 7 6 5 5 5 6 6
49 50 50 50 53 54 53 45 45 43 44 43 38 43 41 48 54 52 55 51 49 46 43 42 39 35 33 31 30 29 28 27 24 20 19 20 18 17 15 13 11 10 9 7 6 6 6 6 6
49 50 53 53 57 57 48 51 45 49 47 42 40 45 39 49 56 63 54 50 50 49 45 44 42 39 36 33 32 31 30 28 25 23 22 21 21 19 17 15 14 13 11 9 8 7 7 7 7
48 51 54 57 55 54 50 44 50 51 47 42 41 43 43 50 51 58 56 51 48 51 49 45 44 42 39 36 35 34 32 30 27 25 24 24 23 21 19 18 17 15 12 10 9 8 8 8 8
49 52 54 55 54 51 52 48 48 52 44 42 47 45 46 47 52 58 59 53 56 52 52 49 46 45 42 40 38 36 35 32 30 27 26 26 24 22 21 20 18 17 15 12 11 10 9 9 8
51 52 54 54 52 54 52 50 47 42 48 40 47 47 46 43 52 57 62 66 43 49 53 53 51 48 45 43 41 39 37 34 32 29 28 29 24 23 22 21 20 19 17 15 13 12 11 10 10
50 51 52 53 56 56 53 46 51 37 46 42 46 48 42 51 54 58 64 64 52 49 61 57 55 52 48 47 44 43 41 37 34 32 30 31 25 25 24 23 22 21 19 17 16 14 13 12 11
50 51 53 55 56 54 51 46 49 49 47 44 46 46 50 51 54 56 63 69 55 50 40 61 58 56 52 50 48 45 43 40 37 34 33 33 27 27 26 25 25 23 22 20 18 16 15 14 13
50 53 51 51 53 52 47 50 50 48 50 51 50 50 49 53 52 58 64 70 63 64 43 60 58 58 55 52 48 49 46 42 39 37 36 34 32 30 29 28 27 25 24 23 21 20 18 16 16
52 54 52 52 52 52 54 53 50 49 47 51 49 52 52 61 55 50 66 70 70 59 49 41 58 62 57 55 53 49 48 45 42 40 39 37 35 33 31 31 30 29 28 26 24 22 21 19 18
48 50 52 52 54 53 53 51 47 50 47 52 49 49 55 52 54 55 62 69 67 66 51 52 44 54 44 63 58 52 51 49 46 43 42 39 37 34 34 32 32 31 29 28 26 25 23 21 20
49 50 52 52 54 56 55 52 52 55 51 55 51 56 58 56 57 61 61 65 66 67 60 60 33 47 51 63 62 57 51 51 48 45 43 40 38 36 34 35 34 32 31 30 28 26 25 24 23
47 51 52 56 57 58 59 56 55 55 52 55 54 53 54 59 56 57 58 60 70 74 73 68 39 48 29 39 61 63 56 49 50 47 44 42 40 38 37 37 35 34 33 31 31 28 27 26 26
51 54 55 57 56 61 62 58 57 52 56 53 50 47 52 56 55 58 58 42 64 72 74 77 54 46 33 39 56 68 57 54 50 48 46 44 43 41 40 39 38 36 36 33 32 28 32 29 28
51 54 56 56 59 60 61 62 59 51 51 53 50 47 54 54 56 59 62 51 37 54 68 54 56 35 50 27 49 60 60 55 52 50 48 46 45 44 44 42 41 41 38 35 31 35 35 32 31
40 44 46 47 54 60 62 66 55 53 53 52 49 48 53 56 56 49 61 47 53 24 44 76 76 69 52 45 46 43 62 59 55 54 52 49 49 48 47 46 45 43 41 35 39 42 38 35 33
17 19 25 25 37 45 57 64 48 52 56 51 48 49 53 59 62 55 49 56 43 35 44 51 62 69 55 48 50 50 56 62 61 56 52 51 52 51 50 50 48 46 43 39 43 42 40 38 36
14 9 8 13 24 31 40 46 49 56 52 49 47 48 54 58 59 59 50 64 38 39 39 38 31 37 40 45 48 45 55 62 62 60 55 53 53 53 53 52 52 49 46 46 43 45 42 39 39
14 16 17 20 19 23 29 33 42 53 48 47 47 47 52 56 61 57 55 57 49 36 36 22 21 22 40 38 49 42 49 55 57 56 57 58 56 57 55 60 58 53 51 49 43 40 41 40 41
19 20 12 12 20 25 24 23 37 45 49 44 42 43 51 52 59 49 46 50 45 42 28 31 32 21 18 32 30 28 36 50 58 56 57 62 53 55 61 57 54 55 52 39 41 41 44 43 42
15 17 14 16 13 12 15 18 29 41 49 44 43 39 45 44 46 46 44 43 52 35 32 34 36 26 25 18 27 39 41 33 45 60 59 53 53 46 56 59 56 54 45 38 37 40 45 43 44
16 6 7 5 5 3 7 12 33 43 42 39 36 33 40 44 47 42 50 50 37 50 41 42 34 28 24 24 30 38 45 44 40 44 45 51 50 47 39 56 56 54 34 27 33 40 38 41 42
22 19 20 19 17 14 17 13 22 31 35 35 33 29 39 40 43 46 44 41 40 37 47 46 37 31 30 36 29 39 39 47 58 45 47 47 55 49 45 44 55 46 42 35 35 43 40 40 49
15 9 16 17 16 11 19 16 20 27 28 27 30 31 34 33 31 37 51 36 36 24 37 48 38 38 36 32 26 30 35 39 59 59 57 55 42 48 53 55 52 45 46 39 49 48 50 50 40
18 11 14 13 6 9 11 9 15 17 18 18 23 35 33 33 32 16 21 27 34 34 33 28 31 35 37 30 32 23 18 29 26 48 63 66 49 51 57 61 59 60 50 46 31 45 43 46 42
15 15 10 9 17 19 12 13 13 26 20 19 16 25 38 13 12 19 20 24 28 28 29 17 34 29 23 23 20 17 18 18 17 27 26 31 26 38 30 36 59 68 54 58 61 62 43 46 45
15 19 18 20 19 19 20 15 16 12 10 14 17 19 33 26 12 13 10 18 24 23 26 16 16 20 22 26 23 19 17 15 16 20 22 18 21 22 28 18 18 30 32 34 30 33 37 42 40
17 16 21 24 22 20 16 16 16 14 15 17 16 19 19 16 18 18 11 15 22 21 20 17 19 23 22 20 23 24 23 26 28 27 25 27 22 25 23 25 26 28 27 29 33 32 35 37 37
23 28 24 22 22 19 17 22 19 17 19 15 14 15 16 12 13 15 10 15 21 24 20 18 24 27 26 26 26 28 31 29 30 30 30 31 30 30 30 31 32 31 34 36 37 40 39 40 38
26 27 24 28 25 21 15 17 18 18 17 15 13 14 17 13 10 8 11 15 17 15 15 19 24 27 30 32 34 35 34 35 35 34 35 35 34 35 37 38 41 44 44 42 42 40 40 40 37

GFSSGP_500_spd_093.txt.gz
Wind_Speed
43 43 44 42 43 47 44 40 32 30 30 30 33 33 30 30 29 30 28 20 18 25 36 39 44 40 37 34 30 29 27 25 24 24 22 20 18 15 14 13 14 13 12 11 9 8 7 6 6
47 47 46 47 48 49 44 37 35 32 33 34 36 36 36 35 32 30 31 24 20 22 28 35 45 45 39 37 36 32 30 29 27 26 25 23 21 18 17 15 15 14 14 13 11 10 8 7 7
46 48 49 49 50 49 43 37 36 39 39 39 39 37 36 38 36 31 33 29 25 23 29 35 38 47 44 40 38 36 33 31 31 29 28 26 25 21 19 18 16 16 15 15 13 11 9 8 8
45 47 50 51 50 46 45 39 41 42 40 42 44 40 38 40 37 36 34 34 31 27 32 33 41 45 47 44 40 38 36 33 33 32 30 29 27 23 22 20 18 18 17 16 15 13 11 10 9
41 47 48 48 47 45 46 43 45 46 45 45 45 40 39 39 39 38 37 39 37 30 29 29 41 49 49 46 44 41 38 37 35 34 33 32 30 27 24 22 21 20 19 19 17 16 14 12 10
40 42 47 47 45 44 46 45 44 46 45 46 48 44 40 40 42 41 40 39 39 36 32 32 42 47 52 48 45 44 43 39 38 36 36 35 33 29 27 24 23 22 21 20 19 17 16 14 13
38 41 45 47 48 47 45 47 48 48 47 47 46 48 45 45 46 44 40 39 37 36 37 34 37 48 55 53 49 46 46 42 39 38 37 37 37 31 29 26 24 23 23 22 21 20 19 17 15
42 40 42 46 44 44 48 49 48 47 48 50 50 50 54 47 44 42 39 37 34 32 33 35 35 53 53 52 51 49 47 45 43 40 40 39 38 34 31 29 26 25 25 25 23 22 21 19 18
44 43 41 42 46 45 48 54 52 52 50 51 55 55 56 55 50 44 41 34 32 31 31 34 36 44 59 58 53 53 50 49 45 43 42 42 40 37 34 32 29 28 27 26 25 24 23 21 20
44 45 46 43 46 50 53 53 54 56 54 53 55 58 59 55 52 51 43 39 38 34 29 31 37 40 50 59 55 51 55 52 49 47 45 44 42 41 38 35 31 30 29 28 27 26 26 24 23
46 45 44 48 48 53 53 55 54 55 54 56 56 59 57 56 59 56 44 37 41 35 34 32 31 33 47 55 49 59 53 56 53 50 48 46 45 44 41 38 35 33 32 31 29 29 28 27 25
45 45 44 46 49 53 55 55 56 57 55 56 57 56 56 60 57 57 51 43 40 40 41 39 40 42 47 63 42 52 49 59 58 53 51 49 48 45 44 42 39 37 36 33 31 30 30 30 27
41 44 47 50 53 54 58 56 56 56 57 56 57 57 53 54 52 54 50 48 42 41 39 36 39 39 44 60 53 46 51 51 57 59 56 53 50 49 48 45 43 41 38 35 33 32 33 32 30
50 50 54 55 55 58 60 60 60 57 59 61 61 60 60 57 57 55 52 42 44 35 34 33 39 45 47 57 62 47 46 63 55 61 58 58 56 51 49 48 46 43 40 37 36 36 35 34 33
52 58 56 56 56 57 67 54 57 61 63 64 62 61 62 60 58 57 55 44 39 34 33 30 41 44 49 56 73 68 43 42 47 70 67 67 59 54 51 50 48 44 42 40 40 39 37 37 37
51 52 46 41 48 52 62 48 60 64 65 63 65 65 65 60 61 57 55 50 46 41 36 40 46 38 45 54 64 72 41 33 34 38 62 63 59 55 54 53 48 46 44 44 42 41 41 39 39
36 35 31 23 34 37 46 54 58 64 69 69 69 64 64 63 61 58 53 52 52 52 49 46 49 41 46 53 61 74 74 54 29 31 33 61 71 59 54 51 50 50 48 45 45 46 44 43 43
29 33 31 31 30 35 30 37 42 53 67 71 73 69 66 67 63 59 55 55 50 53 53 55 50 44 50 44 43 66 82 51 31 27 33 34 58 58 56 55 55 53 50 50 49 49 48 48 47
20 24 23 25 29 30 26 23 22 25 41 60 70 69 65 63 61 58 57 55 53 48 47 49 54 45 44 33 25 41 83 55 39 28 27 29 40 60 63 57 56 56 55 53 52 52 51 51 51
11 9 9 11 17 18 20 20 22 24 24 31 37 48 59 58 59 58 54 53 51 43 47 49 51 45 41 27 27 26 37 79 70 46 34 29 37 42 53 58 60 59 57 56 56 56 55 55 51
16 14 16 16 18 22 20 9 18 19 22 22 21 29 44 46 50 49 42 49 42 43 44 47 44 52 35 31 21 22 21 44 63 49 43 30 30 46 38 41 51 62 62 62 61 59 54 52 53
18 15 17 24 24 18 25 14 11 12 13 13 21 20 28 33 36 41 40 39 40 42 43 44 41 58 42 32 22 24 27 24 44 50 40 34 33 42 48 41 37 50 59 62 64 66 51 52 42
13 17 23 27 25 21 18 24 20 20 13 13 24 15 20 25 27 29 29 31 40 42 39 39 39 56 32 40 28 20 24 29 32 39 38 40 33 31 42 44 41 34 41 40 38 54 50 35 36
17 10 19 14 15 16 10 20 23 26 27 24 16 12 14 14 17 14 20 25 28 30 34 44 40 47 38 27 19 28 23 24 39 46 39 34 40 37 37 41 52 58 49 45 35 33 35 40 43
11 17 20 21 16 13 12 15 14 16 17 12 16 16 13 13 12 15 16 20 21 25 37 41 38 47 36 33 30 28 28 29 28 45 42 36 41 48 49 52 48 39 50 46 48 34 43 38 38
12 13 17 23 15 14 13 5 5 9 11 16 18 17 16 15 14 15 19 17 18 24 33 33 34 40 40 33 35 29 29 26 26 41 32 40 50 48 47 47 46 46 47 47 47 45 46 48 50
8 12 14 11 12 14 8 10 17 11 19 23 17 12 16 18 15 13 8 18 25 32 26 24 17 28 28 22 30 28 30 22 33 30 34 39 48 44 45 53 48 53 55 50 51 55 56 43 45
7 8 13 16 15 21 13 12 14 5 19 17 17 14 16 18 12 6 9 18 21 25 13 17 17 29 18 14 24 34 37 27 22 20 18 14 14 23 26 33 35 40 44 63 54 44 46 37 36
11 12 18 18 21 21 20 20 21 21 13 15 14 16 15 11 11 12 10 19 12 11 22 15 13 14 8 14 17 20 25 23 23 20 22 19 18 18 16 20 21 23 24 24 29 29 37 34 32
15 20 18 17 15 17 18 20 21 18 16 16 17 15 9 10 13 8 13 9 7 15 9 18 12 7 4 7 8 13 14 16 15 14 15 14 13 17 23 28 28 29 29 28 26 32 34 29 31

GFSSGP_500_spd_096.txt.gz
Wind_Speed
39 39 40 40 41 45 40 35 33 30 30 33 35 35 33 31 30 29 25 21 21 24 24 20 35 39 40 35 34 30 25 25 24 24 22 20 19 16 15 14 13 13 13 13 11 9 8 7 6
43 42 42 44 45 46 42 34 32 34 38 39 39 38 37 34 31 29 25 24 24 24 25 22 27 38 41 40 37 35 30 27 27 26 25 23 22 20 17 16 14 15 15 14 13 11 10 8 7
45 43 44 46 48 47 43 35 34 39 41 42 41 41 41 37 34 31 29 27 28 28 27 25 25 32 37 42 43 40 34 32 29 29 28 27 25 23 19 18 17 17 17 16 14 13 11 9 9
38 43 45 48 47 46 43 38 40 43 44 45 45 44 44 41 38 36 34 31 31 31 29 28 25 30 34 42 43 45 41 36 34 32 31 30 29 26 22 21 20 19 18 18 17 15 13 11 10
29 36 43 45 45 43 44 42 42 44 45 45 48 47 48 44 41 39 39 36 35 34 32 30 30 26 27 36 41 47 46 41 37 35 33 32 31 30 25 24 23 22 20 19 19 17 15 13 12
30 31 33 38 40 42 43 45 43 46 45 46 49 49 51 42 43 42 41 38 36 36 36 31 32 32 29 34 39 46 49 46 41 38 36 34 33 33 30 25 25 24 23 21 21 20 17 15 14
34 34 32 32 32 38 39 45 45 47 47 47 51 53 51 44 38 38 41 42 38 39 37 32 31 31 29 32 36 44 49 50 46 41 39 37 36 36 33 27 28 27 25 23 23 22 20 18 16
35 34 33 35 35 31 39 43 48 51 49 50 53 54 55 52 46 41 39 36 36 37 34 36 35 31 29 31 34 44 50 50 50 46 42 40 38 37 35 30 29 29 27 25 24 24 23 20 19
39 38 38 38 39 40 37 42 49 49 49 52 55 56 55 54 50 48 50 42 42 35 38 35 35 34 33 30 34 39 49 54 52 49 45 43 43 40 34 33 32 31 29 28 27 26 25 23 21
40 39 41 42 43 44 43 43 43 51 50 53 57 59 58 57 53 53 51 50 48 39 40 36 32 31 32 33 32 35 44 55 56 52 46 45 46 43 38 37 35 33 32 31 30 28 27 26 24
43 45 44 43 44 48 48 48 48 46 52 50 56 59 61 59 57 53 52 54 51 44 39 36 33 30 35 32 32 37 46 55 58 54 50 48 48 46 42 40 38 35 35 33 32 31 30 28 27
44 48 49 49 51 50 53 53 48 48 47 54 54 58 62 62 60 56 55 51 46 45 41 39 37 38 42 38 38 33 40 56 59 55 54 52 50 48 47 43 41 39 38 37 35 34 32 31 30
45 48 51 51 52 55 56 55 54 50 51 56 59 58 61 63 62 59 57 55 50 46 47 44 42 42 39 35 43 37 35 45 56 59 64 59 53 49 51 48 45 43 43 40 39 36 34 34 32
45 50 53 57 62 60 59 54 63 55 57 57 62 63 62 64 64 62 60 58 54 46 46 48 44 44 40 39 44 43 35 47 52 63 48 54 56 50 45 42 51 47 47 45 41 39 37 37 35
46 49 55 63 63 59 64 53 65 62 62 60 64 66 66 64 65 65 62 58 55 52 47 48 53 49 45 41 46 46 40 41 54 58 46 53 61 60 61 58 53 52 52 50 44 41 40 39 37
46 52 57 55 53 59 66 51 53 59 67 63 67 67 68 67 66 67 64 63 61 54 48 46 45 51 44 43 42 43 43 40 55 54 59 48 63 64 66 56 45 48 50 50 46 45 44 41 40
47 51 49 46 47 52 55 51 36 45 59 65 68 70 70 68 67 66 67 66 59 53 51 48 45 50 40 44 43 47 45 42 50 68 65 54 53 60 64 62 69 57 61 51 46 48 45 44 43
28 16 18 15 24 26 32 33 31 36 46 58 67 71 69 70 66 65 65 65 60 57 54 52 51 46 47 46 47 46 47 43 42 55 65 43 38 27 69 63 66 64 59 56 54 50 46 47 46
8 16 19 20 25 31 31 34 27 32 43 51 63 68 70 67 66 68 64 62 61 58 55 53 56 52 52 48 48 45 44 45 36 38 52 35 35 37 39 40 69 67 62 59 55 52 51 50 49
7 11 20 16 30 32 29 30 33 36 39 40 47 60 67 66 64 68 65 63 61 59 55 53 57 53 51 52 53 45 41 38 37 32 64 64 51 27 25 36 45 67 60 59 60 56 53 54 55
14 16 23 27 35 32 32 30 27 24 20 21 30 35 56 64 63 65 63 61 57 50 51 49 58 55 53 47 49 38 39 27 20 29 37 61 56 34 26 27 32 58 60 63 61 60 59 58 59
18 22 30 33 28 22 25 28 24 11 8 9 14 17 27 38 47 56 49 55 52 53 52 46 45 54 44 45 49 42 29 20 26 30 31 44 58 54 37 35 38 36 54 64 64 64 63 61 63
21 30 31 31 28 24 19 23 29 13 15 17 16 15 21 26 24 31 38 41 41 45 49 41 47 47 48 42 46 43 36 29 33 34 42 36 38 55 55 41 37 39 36 39 44 48 51 62 67
20 21 22 21 17 20 19 21 18 24 24 24 23 20 18 21 17 23 32 36 33 36 37 40 44 44 44 40 42 45 43 32 30 34 42 39 39 41 47 42 41 48 46 42 38 32 33 32 32
15 17 20 17 16 17 19 15 16 14 17 21 24 25 21 18 16 15 16 21 20 28 37 38 37 40 38 38 45 44 41 32 35 30 31 43 44 45 48 48 42 50 52 48 49 43 38 38 42
9 15 11 13 20 12 14 11 8 11 16 18 18 20 22 20 17 14 16 18 20 18 24 30 33 34 36 39 45 40 36 39 26 24 25 42 45 42 46 44 46 45 45 49 45 47 52 61 42
8 11 11 13 9 15 9 10 14 16 16 16 14 13 12 11 12 13 12 14 15 15 15 23 24 23 26 35 45 33 29 30 26 26 25 27 49 44 34 45 46 48 47 48 52 48 43 43 46
13 14 17 14 14 20 12 10 8 8 15 21 15 15 15 17 15 15 8 8 10 14 12 15 17 18 14 24 36 33 19 20 23 21 22 27 37 41 44 42 44 47 44 49 52 49 46 46 47
14 14 16 15 14 17 21 19 16 25 18 10 6 6 6 7 5 4 3 15 14 13 17 13 19 22 15 24 24 14 23 29 20 21 23 20 20 20 25 33 36 38 33 33 37 40 45 48 49
15 13 13 13 14 15 16 18 19 18 15 11 15 14 10 13 14 15 18 9 11 15 18 20 16 15 14 13 4 6 8 15 22 23 25 25 22 24 25 25 27 30 32 32 31 28 31 34 32

GFSSGP_500_spd_099.txt.gz
Wind_Speed
39 39 38 39 40 41 36 32 32 31 34 35 37 35 34 34 32 32 26 24 26 27 26 24 24 22 35 41 39 33 28 25 24 23 22 20 18 15 14 13 12 13 13 12 14 11 9 8 7
40 40 41 42 43 43 36 32 32 37 38 37 39 41 39 36 33 32 27 27 28 29 30 29 26 27 26 34 42 41 34 30 27 26 25 24 22 19 17 15 15 15 14 13 14 13 11 10 8
37 40 42 43 44 43 39 34 36 39 39 39 40 41 43 39 36 35 31 29 28 28 29 30 29 29 27 28 37 42 41 36 32 29 28 27 25 23 20 19 18 18 16 15 15 14 13 11 10
22 27 35 39 39 40 41 39 40 41 42 44 43 44 46 43 41 38 34 34 32 30 30 31 32 30 29 27 29 36 41 41 38 36 31 30 29 27 24 22 22 20 17 18 16 15 15 13 12
23 23 23 23 27 33 36 41 41 43 43 46 47 47 47 46 44 43 40 38 35 35 34 31 32 33 33 27 29 32 36 42 44 41 38 33 32 31 28 26 25 23 19 20 19 17 17 15 14
24 25 26 27 26 27 30 37 39 42 44 45 49 49 52 50 47 45 42 42 42 40 38 35 33 34 35 31 28 28 31 37 43 44 43 39 36 34 31 29 28 25 23 22 21 19 18 17 16
28 29 28 29 29 31 33 31 34 38 42 46 47 50 54 55 49 46 47 42 43 43 41 38 35 33 33 33 32 32 31 33 39 44 46 45 41 37 34 33 29 27 26 24 24 22 20 19 18
32 31 29 30 29 28 33 34 34 31 38 44 49 49 54 55 53 49 49 47 40 42 43 41 39 38 36 35 34 35 33 32 33 40 46 47 46 42 39 37 31 29 28 27 26 24 23 22 20
34 34 35 36 35 34 34 31 33 37 35 37 47 53 53 55 55 51 51 50 46 37 40 40 40 37 36 34 34 34 35 35 36 36 42 47 48 46 43 39 37 31 31 30 28 28 26 24 23
36 36 38 38 40 39 37 35 37 35 38 40 40 50 54 57 56 54 53 52 54 51 42 36 37 39 34 35 36 39 36 36 36 36 41 47 50 50 46 43 41 37 35 33 31 30 30 28 26
38 39 41 41 43 45 41 39 42 42 40 45 48 48 55 56 60 56 55 56 56 51 50 46 39 36 37 40 40 37 37 35 37 40 43 46 51 52 52 45 42 43 38 36 34 33 33 31 29
40 41 43 45 47 48 47 46 45 48 50 51 51 56 57 61 61 60 58 58 58 57 48 48 45 42 38 38 41 39 39 34 35 38 43 47 52 55 54 48 43 43 43 40 37 37 35 33 32
40 41 44 47 49 51 51 50 54 50 61 63 59 59 60 63 65 62 61 61 61 58 54 54 50 45 47 42 40 39 40 40 39 37 41 50 54 56 54 51 46 45 46 45 43 39 38 37 36
39 41 44 47 50 51 54 53 57 61 70 67 65 64 64 65 69 69 65 62 63 60 59 56 55 49 46 45 46 42 44 44 40 38 37 47 57 56 55 51 50 48 49 50 48 45 42 40 38
40 41 43 47 51 54 59 55 63 70 72 65 66 66 68 66 70 73 69 65 64 64 61 54 56 56 54 54 53 45 43 42 41 43 41 46 54 59 58 57 53 47 55 58 53 50 43 42 42
37 40 41 46 52 58 63 64 60 59 68 72 68 70 71 72 71 74 75 70 66 64 62 62 59 60 57 56 54 50 50 45 42 46 45 44 51 53 63 55 64 50 50 45 55 53 48 46 46
34 39 43 45 46 48 38 35 30 41 41 59 67 71 75 76 75 73 77 75 70 67 63 61 59 58 60 61 57 55 50 47 46 41 40 40 49 49 59 51 50 65 62 56 47 46 53 53 51
31 36 32 30 31 28 28 29 41 49 42 42 49 63 68 71 73 73 74 74 71 68 64 62 64 65 62 61 60 57 51 51 48 47 42 44 47 52 57 56 46 53 65 63 61 51 54 51 49
34 28 29 20 27 20 35 38 47 48 49 51 45 50 61 62 69 73 70 70 69 67 62 62 61 59 56 58 52 51 47 52 50 49 47 41 35 49 57 57 60 46 51 67 72 62 60 52 58
24 22 21 24 29 39 38 37 39 49 58 52 42 40 47 53 59 69 70 68 66 64 61 60 58 56 53 56 55 52 50 51 44 42 39 39 37 36 59 60 49 41 45 71 68 68 69 63 61
24 20 22 26 34 41 45 30 33 45 35 27 22 24 29 40 47 60 65 65 63 63 62 57 55 54 51 56 56 53 52 52 47 41 40 40 36 34 42 53 46 39 37 35 57 71 69 68 69
18 19 25 33 41 36 30 27 28 35 26 15 11 12 18 25 36 46 57 61 59 58 57 53 54 52 50 51 57 57 51 43 40 41 32 30 27 26 39 53 42 45 32 33 38 51 69 69 70
16 21 28 28 30 27 27 23 27 27 26 25 9 8 8 7 13 18 34 51 43 45 48 49 47 42 47 52 54 56 45 42 47 35 29 29 34 39 35 35 38 45 37 48 42 38 46 66 68
18 22 25 27 21 23 25 20 21 17 17 19 14 15 16 19 15 13 19 30 34 36 43 44 42 42 41 48 53 52 47 47 44 41 36 34 36 43 41 42 49 42 41 38 41 45 36 42 45
15 17 20 15 16 17 15 15 12 11 14 15 10 10 13 16 13 13 14 22 29 28 27 32 41 39 40 47 46 50 51 48 43 42 40 35 36 40 38 42 42 49 44 42 43 40 37 37 40
11 19 18 16 20 20 13 17 14 10 12 14 13 15 16 18 14 12 11 18 21 21 25 27 30 33 36 43 44 45 46 42 44 47 48 34 35 38 48 50 49 48 47 42 44 48 50 48 43
11 9 11 12 18 20 22 19 12 15 10 11 11 12 10 10 12 12 13 17 17 15 16 22 26 29 32 39 43 40 39 43 40 46 43 40 36 32 44 46 39 46 47 43 46 53 51 52 50
6 9 9 13 16 19 21 15 13 10 11 14 12 8 13 15 14 15 13 11 16 19 20 20 17 20 19 24 28 33 32 42 34 31 34 39 35 29 30 42 45 41 40 44 45 46 50 53 48
10 9 8 12 13 17 20 18 14 18 17 12 15 13 9 14 10 6 3 11 14 15 13 17 19 20 15 14 15 18 30 40 32 29 25 28 26 32 36 36 39 41 40 44 41 45 48 49 49
9 12 11 11 12 14 14 16 16 17 17 16 16 15 13 13 11 6 3 9 13 14 5 8 17 13 14 14 16 14 17 14 22 37 30 24 25 26 27 29 35 39 46 43 45 45 53 49 50

GFSSGP_500_spd_102.txt.gz
Wind_Speed
39 38 37 37 38 37 33 30 30 32 32 33 34 34 33 33 30 29 25 23 23 25 25 25 22 23 20 20 33 38 34 30 26 24 22 20 18 16 14 12 11 11 11 9 9 9 10 10 8
39 39 38 38 39 37 32 31 34 35 33 33 36 38 37 36 33 32 30 28 27 27 26 26 28 28 26 24 22 29 40 37 32 27 26 25 22 19 18 16 15 13 12 11 10 11 10 10 9
38 39 40 40 39 37 35 33 36 38 37 37 38 38 39 39 38 36 34 32 31 30 29 28 29 30 31 31 28 26 29 39 38 34 29 28 26 22 21 20 19 16 14 13 13 13 12 11 10
22 25 28 31 34 35 37 37 39 41 40 39 38 41 40 40 40 39 36 36 35 33 33 32 30 30 31 31 31 29 27 31 39 38 35 32 29 28 24 24 23 20 17 15 15 15 14 13 12
18 17 17 18 21 23 29 34 36 40 41 40 40 43 43 43 42 42 39 40 39 37 36 34 31 32 33 32 31 29 26 27 32 37 38 38 35 32 30 27 27 23 21 19 17 17 16 16 14
20 20 19 19 22 23 25 24 25 31 36 39 41 42 46 45 45 44 41 41 42 42 39 37 36 34 34 34 32 31 29 28 29 33 38 40 41 37 34 33 30 27 24 22 20 19 18 18 17
24 23 22 22 25 26 26 25 25 27 28 33 38 41 45 48 48 46 44 45 44 43 43 42 41 40 38 35 33 32 32 31 29 29 33 36 41 40 38 37 35 31 28 25 23 21 20 20 20
29 26 26 27 28 29 28 25 23 23 28 33 32 39 43 46 48 48 47 46 46 45 42 43 43 43 41 39 37 36 34 35 35 34 32 31 37 41 40 41 39 37 32 31 26 25 23 22 23
33 32 32 32 31 33 34 33 31 29 27 31 34 36 38 44 48 49 49 48 47 48 44 44 44 44 43 40 38 37 37 38 38 37 35 34 32 37 42 42 42 43 36 34 32 28 27 25 25
36 35 35 35 35 36 37 38 37 35 37 37 36 36 40 42 44 50 51 49 49 50 49 49 40 41 41 43 40 40 39 39 38 39 38 36 36 36 40 43 44 45 43 38 36 32 30 29 28
39 38 39 39 40 40 39 39 40 41 42 45 47 44 43 40 42 48 51 54 52 52 51 51 49 38 38 37 40 41 42 41 38 39 39 39 38 37 40 43 45 45 46 44 39 38 35 34 32
40 40 40 42 43 44 44 44 44 46 46 49 51 52 52 52 48 47 46 54 58 56 56 54 54 49 44 39 38 43 44 42 42 42 41 42 42 36 38 44 46 48 48 45 44 41 40 37 36
38 40 42 42 45 47 48 48 49 48 50 53 54 56 58 59 60 58 57 58 60 62 62 58 57 55 50 42 42 42 44 45 45 46 42 42 43 32 32 39 42 48 51 49 46 45 43 42 39
38 39 40 42 45 47 50 50 53 53 58 59 62 61 63 65 66 69 67 67 64 65 67 62 59 58 54 52 47 41 46 47 46 46 43 39 37 34 36 34 37 48 52 50 50 48 46 45 42
35 36 38 41 44 47 49 48 51 60 64 65 69 68 69 70 73 74 78 76 68 70 69 69 63 61 58 57 54 50 43 47 49 42 45 46 42 43 42 43 45 45 50 52 51 51 49 48 44
32 34 35 39 42 45 49 46 51 58 61 64 69 70 74 78 81 80 78 80 73 73 70 72 68 64 66 61 63 56 55 55 50 51 49 48 48 51 47 43 46 50 52 51 49 52 52 52 51
30 31 34 37 43 47 49 46 47 47 52 55 58 59 57 62 67 80 78 76 78 74 73 71 72 66 67 66 63 63 57 53 54 52 46 45 46 47 49 47 44 46 54 55 58 46 48 59 62
27 31 36 41 44 44 45 39 42 48 51 52 56 59 57 62 59 61 77 76 79 77 73 70 72 70 66 67 60 64 62 63 58 54 51 49 49 47 43 45 41 47 48 54 55 57 59 53 48
29 32 35 39 40 39 34 35 46 52 58 59 58 61 69 71 73 66 66 73 75 78 73 69 66 70 65 63 66 60 61 57 55 54 55 53 51 49 45 44 42 45 46 53 51 48 54 62 64
29 33 34 33 34 33 37 42 52 48 49 52 56 65 53 48 52 55 57 67 67 74 73 68 63 64 63 60 64 61 59 60 58 56 57 58 56 53 48 44 43 41 49 55 51 48 48 50 62
28 28 29 27 29 37 43 42 43 43 39 44 48 53 31 24 27 35 45 53 57 67 70 64 59 58 58 59 56 61 60 59 55 56 57 56 53 44 41 42 43 42 45 55 57 58 63 58 52
24 23 20 25 33 35 38 43 38 30 34 37 38 38 21 15 13 19 30 36 45 55 64 59 54 52 50 50 53 52 52 53 53 50 50 55 52 46 44 42 41 43 37 42 53 47 40 41 45
16 15 21 27 31 32 35 36 30 28 26 24 32 32 13 5 9 5 9 23 34 42 50 49 48 48 46 48 45 48 48 50 53 51 51 50 46 45 45 39 37 35 43 45 45 43 45 45 48
13 16 21 26 25 27 30 29 27 22 19 20 29 22 15 10 4 6 7 4 22 26 31 32 31 40 40 45 43 42 43 48 53 56 54 52 46 39 37 36 40 37 37 46 49 52 51 54 39
14 15 18 16 18 22 25 24 26 18 16 16 14 11 14 15 6 2 6 9 19 26 25 25 32 33 36 29 31 37 40 44 48 49 52 51 45 53 49 44 46 50 47 49 44 50 48 41 44
10 14 14 10 17 21 22 24 25 18 13 12 10 12 11 7 6 4 8 10 17 26 25 29 28 29 31 29 32 34 38 45 46 50 49 50 47 45 44 46 48 47 49 51 45 50 55 51 48
8 8 9 12 15 18 20 21 25 24 22 15 12 16 8 9 10 9 5 11 16 21 23 25 25 26 29 33 34 35 38 42 44 41 44 52 53 45 49 43 43 44 47 51 51 53 54 54 50
10 11 11 14 15 16 20 22 23 23 23 16 14 5 8 8 9 5 8 8 14 18 19 21 21 22 23 24 29 32 32 33 36 38 39 40 39 33 46 47 44 46 43 49 47 46 48 46 46
12 11 11 13 16 17 17 23 22 23 26 23 18 15 12 12 9 6 11 6 9 10 12 16 16 13 12 13 12 16 20 24 27 25 33 39 33 30 33 41 42 41 35 41 47 43 42 49 46
10 11 11 13 15 17 17 19 19 23 23 25 27 26 26 24 16 14 10 8 13 13 13 11 12 17 19 17 15 16 16 18 23 25 22 36 29 25 30 36 36 40 44 42 43 41 41 44 44

GFSSGP_500_spd_105.txt.gz
Wind_Speed
38 37 36 35 35 34 31 31 30 30 30 32 33 33 32 31 30 30 26 23 23 23 22 21 21 21 19 18 18 26 33 33 31 28 26 23 20 17 15 13 11 9 7 8 8 10 8 6 7
39 38 37 37 37 35 34 34 34 32 31 32 32 33 34 35 33 31 30 27 26 26 26 25 23 23 24 23 22 21 20 27 35 33 30 26 24 22 20 18 16 13 9 9 9 10 9 9 8
40 39 39 37 36 35 34 35 37 35 34 34 33 34 34 34 35 33 34 32 31 29 28 28 27 25 25 27 25 24 25 23 24 34 36 31 27 25 23 22 20 17 14 12 10 11 11 10 10
38 37 37 36 36 36 37 38 38 38 38 37 35 36 35 35 36 34 34 36 36 34 33 31 29 29 28 27 29 27 26 26 25 26 33 35 32 28 27 26 24 21 18 16 13 12 13 13 11
19 18 19 21 24 28 30 32 34 37 39 39 39 39 39 38 38 37 36 36 36 38 36 34 33 32 31 30 30 30 28 27 26 24 25 32 34 32 30 29 28 25 23 20 19 16 16 15 14
18 17 17 18 18 19 19 20 20 23 28 32 37 41 44 42 42 41 38 38 39 39 37 37 38 36 35 34 32 32 31 30 28 26 25 27 31 34 33 33 31 29 27 25 23 20 19 18 17
21 19 19 20 21 20 19 20 21 23 25 27 28 30 39 43 43 44 43 42 42 43 41 37 37 40 39 38 35 34 33 32 32 28 28 27 28 30 33 37 35 34 31 28 28 26 23 21 20
24 23 22 21 22 23 22 22 22 22 22 24 25 29 33 34 39 43 43 44 44 45 44 42 42 40 42 42 40 39 38 36 35 34 33 32 30 29 32 34 36 36 35 33 30 30 29 25 23
27 27 25 24 25 26 25 25 26 26 27 28 28 28 28 30 36 38 41 44 45 46 48 44 45 45 42 43 41 42 40 39 38 37 37 37 34 32 31 32 36 39 41 41 34 32 32 30 28
32 32 31 30 29 30 30 29 29 30 30 34 35 34 35 35 35 35 39 41 43 46 48 48 46 46 45 42 41 42 42 41 40 39 40 40 39 36 35 35 35 37 40 40 39 37 35 35 33
36 36 36 35 35 34 35 35 36 35 35 37 37 39 40 41 43 43 41 39 40 42 47 48 49 50 48 45 41 42 43 46 46 43 43 42 41 40 39 38 37 37 39 41 42 40 39 37 37
40 40 40 39 39 39 39 39 40 41 41 42 44 44 45 49 48 50 52 50 48 43 38 43 50 51 51 49 47 43 42 44 45 46 45 43 43 41 40 40 41 40 40 40 41 42 42 41 38
39 40 41 40 41 41 41 41 42 41 46 48 49 50 50 53 55 57 58 59 59 56 53 48 43 50 55 53 50 41 45 47 47 47 47 46 43 41 42 41 36 37 39 41 42 43 45 43 41
38 38 38 38 40 39 40 40 42 44 46 50 51 53 55 57 59 61 64 66 66 66 63 60 55 50 53 58 56 52 47 49 50 51 52 49 45 45 43 41 36 36 35 33 38 40 45 47 47
34 35 36 36 36 36 36 37 41 45 49 52 56 58 61 64 65 66 68 71 75 73 72 68 65 61 55 60 62 59 50 44 46 46 48 47 47 47 46 46 42 43 42 39 36 42 47 48 49
32 32 32 33 33 34 35 36 42 49 52 55 58 62 64 65 69 71 74 76 76 81 78 76 72 68 63 61 64 62 59 56 59 46 57 56 52 48 47 46 44 43 42 41 43 45 42 50 49
28 28 28 31 32 33 36 35 43 49 53 56 59 60 62 64 66 71 76 78 79 80 83 80 79 75 70 63 67 66 65 59 60 52 36 45 52 48 45 49 46 47 47 47 46 48 52 55 55
24 25 27 29 30 31 35 35 44 51 51 50 51 56 62 67 67 70 74 77 78 76 75 84 83 78 72 67 69 69 68 67 57 65 62 50 48 47 47 48 49 48 49 50 54 51 48 51 60
22 24 26 28 31 30 35 38 41 45 49 53 60 63 61 61 65 67 74 82 79 73 73 76 77 77 70 68 69 68 68 70 70 55 61 58 57 50 55 49 49 48 47 50 50 48 49 50 55
21 22 25 27 30 33 33 31 39 47 51 58 48 44 45 47 60 66 66 75 76 77 76 70 70 67 69 65 63 66 67 69 71 69 62 64 59 52 49 50 51 53 51 46 46 44 46 51 55
20 22 24 27 29 24 29 34 37 45 53 56 47 45 46 38 32 26 27 24 29 39 52 60 61 60 56 61 61 58 58 61 64 68 62 61 66 60 53 52 56 57 52 44 49 48 47 56 55
19 22 26 22 19 25 30 28 34 38 38 46 40 39 35 30 29 26 19 17 21 29 40 51 54 56 52 53 49 51 52 57 55 59 65 54 57 56 52 54 56 59 49 44 47 48 50 50 55
21 22 14 16 21 24 26 27 30 32 33 36 33 30 29 26 16 20 22 16 7 16 29 40 43 48 53 58 50 47 45 47 52 48 55 57 51 52 51 52 51 53 52 48 48 50 50 44 54
16 9 13 18 20 21 23 25 25 31 27 27 25 23 21 15 20 21 21 13 4 7 15 23 28 36 43 48 45 41 40 43 44 45 45 48 54 54 50 49 50 48 49 46 47 44 42 42 42
6 10 14 13 14 18 23 25 28 31 32 25 20 16 18 19 13 13 15 10 6 15 14 15 20 20 26 32 34 36 38 38 36 43 44 46 46 48 50 50 53 52 46 44 45 47 44 48 49
8 9 8 10 12 14 19 21 24 30 27 25 18 17 18 9 10 12 7 4 5 17 22 18 19 18 20 25 26 29 31 36 38 40 45 51 50 48 51 52 54 51 51 52 53 52 55 51 56
4 6 7 10 13 15 17 22 24 26 31 27 16 12 14 14 11 10 4 2 10 13 20 26 23 22 22 26 25 22 24 25 28 33 37 38 41 47 48 49 50 54 50 50 51 52 52 52 55
6 6 8 13 15 16 17 20 22 22 28 32 29 20 16 18 11 8 8 3 7 12 17 21 25 26 25 25 28 28 28 30 32 33 34 36 36 38 40 39 44 55 56 53 50 42 47 47 51
9 11 11 13 15 19 18 19 20 22 24 25 27 29 31 16 1 5 12 6 4 4 8 11 14 15 16 15 14 16 23 27 29 29 28 25 28 28 33 32 32 36 36 43 46 49 49 45 46
12 13 13 14 15 15 19 19 18 21 23 22 23 24 26 27 22 17 9 4 4 5 5 6 8 11 13 16 12 13 16 20 22 23 26 28 32 31 33 41 35 30 33 39 40 46 46 45 39

GFSSGP_500_spd_108.txt.gz
Wind_Speed
37 36 34 33 32 31 32 30 29 29 30 31 31 31 32 32 30 30 26 24 24 23 21 19 18 17 17 16 17 16 21 29 31 30 29 27 23 21 19 16 14 12 10 8 8 7 7 7 6
39 38 38 37 36 33 36 33 32 31 32 31 31 34 34 34 31 32 30 27 26 27 26 24 22 21 20 18 19 20 19 18 20 28 32 31 28 26 24 22 19 16 14 10 11 10 9 8 7
38 37 37 37 37 37 37 37 36 35 34 34 33 34 34 33 33 34 34 31 30 29 28 28 28 25 22 22 21 20 19 21 22 23 22 28 32 30 27 26 23 20 18 16 14 14 12 11 10
40 40 40 39 39 38 39 38 38 37 36 36 37 37 36 36 34 34 35 34 34 33 33 32 31 29 28 26 25 24 22 21 21 21 24 26 27 33 32 29 27 24 23 21 19 16 15 15 13
35 38 37 36 38 40 39 38 39 39 38 38 38 38 39 39 38 36 36 36 36 36 36 36 35 33 32 31 28 28 27 24 23 22 22 23 26 28 32 33 30 27 26 25 23 21 18 17 16
22 23 23 26 27 25 25 25 26 30 32 35 39 41 41 41 41 40 40 39 39 38 39 39 37 37 36 34 33 32 31 30 28 26 24 24 23 26 29 32 31 28 26 27 27 26 24 21 19
17 18 19 19 20 20 20 20 21 22 21 21 23 28 31 35 40 41 42 42 43 42 43 41 41 38 37 38 37 36 35 35 33 31 29 28 27 27 28 30 34 34 32 30 31 29 28 26 24
20 20 19 19 20 20 21 20 19 19 20 18 18 19 23 27 30 32 33 39 44 45 45 46 43 44 42 40 39 39 39 38 37 35 35 34 32 29 29 30 31 33 35 35 34 32 31 30 29
23 23 23 22 22 22 22 21 20 21 21 23 23 24 26 26 27 27 28 30 34 40 46 47 47 45 45 45 43 40 41 42 40 40 39 39 37 35 34 32 31 33 32 32 35 34 32 32 32
26 27 27 26 26 26 27 26 24 24 25 27 27 28 28 30 31 32 32 32 31 31 36 41 47 49 47 48 48 46 44 43 43 43 42 43 41 40 38 36 35 34 34 34 36 40 38 36 35
28 28 30 30 31 31 31 30 29 29 32 31 32 33 34 35 36 36 38 38 40 40 38 35 40 44 48 47 50 49 47 45 44 45 45 45 45 44 43 41 39 34 33 35 37 39 41 40 37
33 33 35 35 35 34 35 36 36 36 37 37 38 39 40 40 41 43 45 45 44 44 45 45 44 42 44 47 48 52 51 47 47 47 47 47 47 47 47 44 41 37 34 36 35 41 43 43 42
38 38 38 38 39 39 39 39 40 39 42 44 45 44 43 44 46 49 52 51 52 52 52 53 51 51 49 44 45 49 53 53 47 45 46 49 52 53 49 47 40 41 40 39 38 36 41 41 42
37 37 37 38 39 40 41 40 41 41 44 45 46 46 48 51 53 54 57 59 61 60 60 61 60 58 56 55 54 48 48 53 53 47 48 51 49 50 49 50 47 47 43 40 38 36 35 35 40
34 35 35 36 37 38 38 37 38 40 43 44 46 48 51 54 56 59 61 63 67 70 69 69 68 66 64 61 60 58 54 47 55 50 42 53 50 48 47 51 50 49 49 40 36 35 35 34 35
34 34 34 34 34 35 35 35 35 39 42 44 47 50 53 55 59 63 66 68 70 73 75 76 75 74 71 69 66 63 60 58 51 59 53 50 53 56 50 52 52 51 48 45 43 44 40 41 33
33 32 31 31 32 31 31 32 35 37 39 43 47 50 55 58 60 64 67 72 75 77 78 80 82 79 77 75 73 70 66 63 58 56 61 56 46 44 45 53 53 50 49 48 47 45 45 46 46
29 29 28 29 28 29 30 31 34 38 40 44 47 48 45 50 58 63 71 73 77 80 81 81 83 85 82 79 76 72 68 66 61 59 63 61 50 49 53 56 58 53 51 48 46 44 44 44 47
26 26 28 28 27 25 27 30 34 38 41 40 40 46 47 56 62 62 60 62 67 75 80 82 83 80 83 80 75 72 71 68 62 63 64 68 74 56 48 48 49 52 47 45 48 47 45 46 47
26 26 25 23 23 23 27 30 31 33 35 38 45 47 52 57 53 53 57 48 53 64 78 79 80 80 80 78 67 65 66 68 66 66 67 66 75 63 58 51 42 45 44 49 49 47 48 49 48
23 21 20 19 21 27 27 26 27 29 33 38 45 48 45 46 50 48 41 36 40 40 43 58 75 80 75 74 67 61 59 66 67 67 69 70 75 75 66 55 56 45 46 50 49 51 53 53 49
18 17 17 20 22 19 18 17 23 27 30 38 42 44 37 43 43 36 37 36 38 30 26 29 37 54 62 63 58 49 53 61 61 67 65 66 70 79 80 72 54 54 51 49 53 52 54 51 47
17 17 19 18 14 15 18 19 23 26 33 38 40 42 34 36 39 38 35 29 33 23 19 23 27 37 38 39 44 42 41 53 57 55 54 55 61 69 74 71 60 54 60 65 54 52 51 53 51
16 17 10 11 14 15 18 22 22 27 32 33 35 38 33 32 32 29 27 27 22 18 8 11 18 28 43 39 31 46 40 41 44 47 44 47 46 56 64 63 63 57 58 57 54 53 53 50 50
7 5 9 11 13 15 18 19 22 25 27 30 27 31 29 25 19 22 22 22 17 16 13 9 12 24 35 38 22 27 33 35 35 38 42 44 40 43 54 53 57 57 53 53 53 52 52 52 53
5 6 8 9 10 12 16 18 20 21 24 27 32 37 26 21 25 22 16 13 12 10 14 14 16 20 21 24 25 29 32 36 39 39 38 39 38 42 52 46 46 51 57 55 50 51 52 50 51
2 3 4 6 9 11 14 14 19 19 22 24 27 32 30 20 13 16 15 10 7 2 1 2 8 12 16 18 20 25 31 33 37 37 39 38 39 40 43 44 45 47 47 47 46 49 53 54 54
2 3 4 7 9 10 12 13 18 20 22 24 26 28 30 26 15 14 14 10 5 4 3 5 8 10 13 16 18 21 26 29 33 34 35 37 36 36 38 41 42 45 47 47 47 47 51 54 57
5 7 9 10 12 14 14 16 18 21 23 25 26 26 25 26 23 16 10 10 6 3 1 5 11 14 18 19 19 25 29 29 24 24 27 25 29 29 33 37 37 33 32 35 39 41 46 48 49
11 12 14 16 15 18 19 20 22 23 24 23 24 25 24 23 20 20 14 13 6 6 6 3 8 9 13 13 12 11 9 10 17 21 23 26 30 29 28 28 29 36 38 40 41 42 40 37 42

GFSSGP_500_spd_111.txt.gz
Wind_Speed
34 33 32 31 31 31 30 29 28 28 28 28 29 30 30 30 29 30 25 24 23 22 21 20 19 18 17 18 16 16 14 15 22 29 29 27 26 23 21 19 19 17 14 11 11 11 10 9 8
37 36 35 34 33 33 36 31 32 29 29 29 30 31 33 33 31 32 30 29 27 26 25 24 24 22 21 20 20 20 19 18 17 17 21 27 28 28 25 23 22 21 19 15 13 13 13 11 11
39 38 37 36 35 36 43 31 33 34 33 32 32 33 32 33 33 34 34 33 31 30 29 27 27 25 25 24 22 21 21 19 19 20 19 18 20 26 31 27 24 24 23 22 17 17 17 15 13
40 40 38 38 37 38 39 37 36 36 36 36 36 37 35 35 35 36 36 35 36 34 33 32 31 30 29 27 26 25 24 23 21 21 21 21 21 21 25 29 29 27 25 25 22 21 19 19 17
40 40 39 39 42 39 41 39 38 38 39 38 38 39 37 37 37 37 38 37 37 37 37 36 36 35 34 32 30 29 28 26 25 24 23 23 23 22 22 24 28 29 28 27 27 25 23 22 22
39 40 40 39 44 41 40 39 39 40 40 40 40 41 41 40 39 40 40 40 39 39 39 39 39 38 37 36 34 32 32 31 30 29 27 26 25 24 23 23 26 29 31 29 27 26 26 25 25
34 33 35 35 33 34 32 32 31 30 30 27 32 35 37 40 42 43 43 43 42 42 42 42 42 41 41 39 39 38 37 36 36 34 32 31 30 28 26 26 25 28 31 32 30 30 29 28 29
23 23 22 23 21 21 22 22 23 21 21 22 23 25 29 27 29 30 32 36 41 43 44 44 45 45 44 43 43 41 40 41 40 38 38 36 34 34 32 31 30 30 31 32 34 34 33 32 31
22 22 21 21 21 21 22 23 23 22 22 21 21 23 25 24 26 26 27 28 31 34 36 40 43 45 45 46 45 45 46 44 43 43 41 39 38 38 37 35 34 33 32 31 32 33 35 36 34
23 22 21 21 22 23 23 24 24 25 26 24 23 24 25 28 29 29 30 30 31 31 31 32 34 38 41 43 46 47 48 47 47 45 46 44 43 42 42 40 39 37 36 34 33 34 34 35 35
27 25 25 25 25 25 26 27 28 29 32 29 29 29 30 32 33 33 34 34 35 36 37 38 38 38 38 40 41 43 48 51 51 51 48 47 46 46 45 44 43 42 39 35 36 36 38 38 39
29 28 29 28 29 29 30 31 32 34 35 35 35 35 36 37 39 39 40 42 42 42 43 44 43 42 42 43 44 44 43 47 52 52 50 48 48 48 48 47 46 45 42 39 38 37 37 41 42
30 30 30 31 32 33 34 36 37 39 40 41 42 44 45 46 47 48 48 47 48 47 48 49 50 50 49 49 48 48 49 48 48 52 54 49 47 49 48 49 48 47 45 42 42 41 39 38 39
32 33 33 34 35 36 37 38 39 40 42 44 46 48 49 50 50 51 54 55 55 55 55 55 55 55 55 57 56 54 53 52 51 48 51 54 52 48 47 46 48 49 48 47 45 43 43 43 41
34 34 35 34 35 35 36 37 38 40 40 42 44 45 48 50 52 53 54 55 57 59 62 63 64 65 64 62 63 62 60 58 56 54 53 51 53 53 49 43 46 47 48 48 47 47 42 39 39
33 34 35 34 35 36 36 36 36 38 39 40 42 46 47 50 52 54 57 59 62 64 66 69 72 73 73 72 70 69 67 65 63 60 57 55 53 54 45 43 47 51 48 48 51 48 46 45 38
33 34 33 35 36 36 36 34 35 37 37 38 40 43 46 50 53 56 60 64 67 70 73 75 77 80 80 79 78 76 74 72 69 66 61 60 57 55 55 52 43 49 50 51 56 54 51 47 45
32 33 33 35 33 35 34 33 33 35 36 38 41 44 48 52 56 55 55 54 57 63 68 73 77 81 85 86 85 83 76 75 74 70 68 65 61 60 55 61 50 55 48 48 46 47 47 47 48
28 29 31 32 32 31 32 31 32 34 36 39 43 45 46 46 50 52 55 62 62 63 68 75 80 81 82 83 87 87 80 76 74 71 70 68 64 64 62 58 67 54 47 53 53 53 50 51 51
38 35 31 31 31 30 28 29 31 33 36 36 37 35 40 45 51 54 57 56 56 59 60 64 61 66 63 74 78 80 75 75 71 70 69 71 69 67 64 62 65 58 48 55 51 56 53 50 52
31 30 29 28 27 28 27 27 26 28 27 30 34 37 44 49 51 52 48 50 55 55 52 60 65 66 68 66 73 77 72 67 67 63 62 67 69 66 66 66 62 74 54 51 48 44 46 43 43
25 24 25 24 24 24 25 24 22 24 29 33 36 43 45 48 50 50 45 50 52 49 52 58 54 50 49 50 57 66 64 59 57 58 57 57 63 67 67 65 64 66 77 71 52 43 41 38 41
21 21 21 20 21 23 22 18 21 24 26 29 34 38 42 44 45 38 39 47 41 41 41 44 33 34 34 35 34 45 54 44 48 50 56 51 56 65 67 68 64 64 67 74 76 68 62 45 44
18 18 18 20 19 17 19 18 19 23 24 25 29 34 41 39 41 30 35 40 30 30 31 29 22 17 17 19 25 35 45 47 44 43 54 54 54 58 61 65 63 60 65 69 68 76 70 53 48
16 16 15 14 16 17 17 20 21 20 23 26 30 32 35 37 38 26 28 28 19 22 22 25 15 5 7 15 30 31 39 41 35 35 30 35 40 47 45 51 57 57 60 61 62 57 54 53 57
11 11 12 13 12 14 15 17 16 19 21 25 28 30 31 34 33 27 26 22 17 16 17 19 17 7 8 7 28 17 24 39 24 31 37 38 39 36 44 43 43 49 51 50 52 56 54 55 52
8 9 10 10 12 12 12 14 16 19 22 25 27 28 30 29 31 28 24 22 15 12 15 16 14 8 0 7 9 14 14 22 25 24 27 31 32 35 38 39 44 48 47 48 48 52 54 56 55
5 8 9 10 11 12 12 14 17 19 23 27 30 31 29 28 30 28 23 20 14 11 12 11 13 8 3 7 9 11 11 19 22 22 25 30 35 38 39 41 42 43 46 46 43 42 42 44 45
9 11 13 15 16 19 20 16 21 23 26 29 30 29 28 23 25 26 25 21 19 11 9 9 8 7 10 9 8 11 14 16 19 23 30 35 35 38 42 43 41 40 41 40 44 46 45 47 49
12 14 16 19 20 20 25 22 25 25 27 27 23 22 23 22 20 19 23 24 21 15 13 9 9 9 11 16 17 19 20 22 24 27 26 22 27 29 27 29 32 32 33 36 32 33 36 40 41

GFSSGP_500_spd_114.txt.gz
Wind_Speed
32 32 30 29 28 26 25 29 24 23 24 23 25 26 27 28 24 26 23 21 21 20 20 19 19 19 19 19 17 16 15 13 14 21 26 27 27 24 21 20 19 17 15 16 14 14 14 12 11
36 35 34 32 30 28 32 30 29 23 24 26 26 28 29 26 28 28 28 26 26 25 25 24 23 22 22 21 20 19 20 18 17 15 15 17 23 27 27 25 23 21 20 17 18 17 16 15 14
38 37 36 34 33 33 37 33 26 27 29 29 29 30 29 29 30 29 31 31 30 29 28 27 26 25 24 24 23 22 22 19 19 19 18 18 17 17 20 23 26 26 24 22 20 21 19 18 17
41 40 38 36 34 40 37 33 31 32 33 32 33 33 32 32 32 33 33 33 32 32 32 31 30 30 29 28 26 26 25 24 22 21 20 19 19 20 22 22 21 24 27 26 25 24 23 22 21
42 41 40 38 40 41 35 33 34 34 34 34 36 36 33 36 36 37 37 36 36 35 34 34 34 34 34 34 32 30 29 28 27 25 24 23 22 21 21 22 22 22 23 28 30 27 25 24 24
42 40 39 38 42 38 36 36 38 39 39 38 38 40 37 38 37 38 38 39 39 39 39 38 37 37 37 37 37 35 34 33 32 30 29 28 27 26 23 23 23 24 26 24 28 30 28 27 27
41 39 39 42 47 38 39 40 40 39 38 37 40 41 41 40 40 40 41 41 41 41 42 42 41 41 41 40 39 38 37 37 36 35 35 33 31 31 30 28 26 26 26 27 28 30 30 29 27
34 36 34 38 40 39 36 35 34 31 30 29 29 28 32 26 30 30 31 34 35 38 41 43 45 45 45 44 43 42 41 40 40 40 40 38 38 36 34 33 32 30 29 30 31 31 32 32 33
30 29 28 28 27 22 24 21 19 21 22 23 23 23 25 21 23 24 25 26 26 26 28 31 33 36 40 45 47 46 46 45 43 44 43 42 42 41 41 39 37 34 34 34 33 33 33 33 34
24 24 19 19 17 18 19 19 21 23 24 24 23 22 22 24 25 27 29 30 31 32 31 32 32 33 34 35 37 37 43 46 47 47 47 48 45 44 44 43 43 40 38 37 36 35 36 35 35
26 21 20 21 21 20 21 22 23 24 26 25 26 26 27 29 30 31 33 33 34 36 37 39 38 38 38 39 39 39 39 39 41 46 49 49 48 47 45 46 46 46 45 41 39 36 37 38 38
26 25 24 24 24 24 24 25 26 26 29 30 31 33 33 33 35 36 37 38 39 39 40 43 44 44 43 43 43 42 42 42 42 42 43 46 50 50 50 49 48 50 48 46 42 40 38 38 39
27 26 26 26 25 26 26 27 29 31 33 34 36 37 39 41 44 46 46 48 49 50 50 50 49 49 49 49 50 50 50 49 49 48 45 45 45 46 49 51 50 47 48 48 45 44 42 40 41
28 28 27 27 27 29 30 32 33 34 34 37 39 41 42 45 48 50 51 51 53 53 53 54 55 57 57 56 56 56 56 56 55 54 53 51 48 46 48 50 51 50 47 47 45 44 44 44 42
30 29 29 30 31 32 33 33 34 35 36 37 40 42 44 46 48 48 49 50 52 54 56 57 59 61 62 62 63 62 62 62 61 59 58 54 55 51 51 51 50 52 48 44 43 41 43 44 44
31 31 32 31 32 33 33 33 35 35 37 38 40 42 43 45 47 48 48 50 52 55 58 60 63 66 68 69 70 71 69 68 67 66 64 61 61 61 56 53 53 50 50 49 43 43 43 43 47
33 33 33 33 33 34 34 33 37 37 35 37 38 40 42 44 45 47 51 54 57 60 63 65 68 68 71 74 76 76 77 76 72 72 70 68 66 64 62 59 57 53 46 49 42 41 47 45 38
32 33 35 37 33 34 36 34 34 35 35 35 36 37 40 43 47 51 54 55 53 53 54 58 62 65 69 74 77 79 80 79 79 76 75 71 69 65 60 55 56 55 55 51 47 44 41 48 47
33 33 34 34 35 32 34 33 33 33 32 33 36 38 41 44 45 43 45 52 56 59 61 61 62 69 74 76 77 79 81 84 82 78 79 75 68 66 66 64 61 55 57 54 61 56 51 48 48
32 31 32 34 40 41 36 31 31 30 31 34 37 37 35 37 42 47 54 57 58 60 60 60 62 63 69 75 75 71 68 68 71 74 80 78 73 70 71 71 69 66 61 62 58 66 46 40 51
33 35 36 34 32 34 30 28 28 29 31 33 32 29 36 39 44 46 50 50 58 55 51 50 55 62 64 63 65 69 72 70 69 60 59 67 66 69 64 68 71 69 65 64 63 61 64 66 55
28 29 29 29 27 28 27 27 28 28 29 27 29 31 34 37 40 47 47 50 49 43 47 50 44 45 54 57 57 57 56 57 63 63 52 55 57 61 56 40 54 68 66 63 64 66 57 59 52
21 21 23 24 25 25 24 26 26 24 25 25 26 30 32 37 40 46 43 45 39 40 36 32 37 48 44 40 36 34 34 39 42 49 47 48 47 42 58 72 54 61 64 64 61 57 58 59 62
19 21 22 22 23 23 24 26 21 20 22 23 26 28 32 35 36 39 41 39 40 34 30 27 33 35 27 17 11 12 10 12 22 35 40 41 38 43 52 47 45 51 56 60 64 64 62 61 62
19 19 20 21 22 23 19 19 18 19 19 21 24 26 30 32 33 38 39 36 39 30 22 22 26 27 30 19 14 5 5 7 21 32 37 29 32 30 32 40 44 45 48 57 58 61 64 64 66
17 18 19 19 17 15 13 17 17 17 17 22 25 28 34 35 32 33 34 35 34 29 20 21 21 22 21 19 10 17 13 12 15 25 36 26 28 39 46 36 38 46 50 51 54 60 63 64 63
13 13 14 14 14 12 13 16 15 16 18 22 27 31 34 30 31 28 30 31 31 31 22 18 19 15 11 7 17 11 5 4 9 27 22 20 25 28 23 26 29 35 39 44 48 49 48 49 52
8 10 11 13 14 15 14 17 17 22 23 26 29 27 25 24 25 25 25 27 28 26 25 17 16 15 12 14 14 14 10 4 3 12 13 13 14 19 25 29 36 37 38 43 47 50 49 49 49
10 12 13 14 17 20 21 17 19 23 25 25 22 19 22 25 25 27 27 25 25 27 26 23 19 17 15 13 14 14 12 12 11 13 17 18 21 24 28 33 36 38 41 42 43 45 46 42 43
12 14 15 18 19 19 26 19 23 23 20 19 18 19 22 24 25 25 26 27 25 23 25 24 21 18 17 18 16 16 17 17 15 14 17 18 19 21 26 28 32 30 34 38 42 42 42 41 41

GFSSGP_500_spd_117.txt.gz
Wind_Speed
28 28 26 25 24 22 26 23 21 18 16 18 20 21 19 19 21 21 21 18 17 18 18 18 18 17 18 17 16 16 16 14 13 14 21 28 27 27 26 24 21 19 16 15 15 16 15 14 14
32 32 30 28 27 26 30 27 20 19 22 21 21 22 21 21 23 24 24 23 22 22 23 23 21 22 21 21 19 18 18 16 16 16 16 17 20 23 26 28 27 25 23 20 18 18 18 17 17
36 35 34 31 31 32 32 28 22 22 24 24 25 25 24 25 26 27 27 26 25 25 26 27 25 23 22 23 22 21 21 20 18 17 17 18 20 20 19 19 21 26 27 26 23 22 21 21 20
37 37 36 34 37 36 34 29 27 28 27 27 28 29 27 28 31 30 30 30 29 28 28 28 28 27 27 26 27 26 25 24 23 22 21 20 20 20 20 21 22 22 22 24 28 27 23 23 24
40 39 38 38 39 38 34 32 31 32 30 30 29 29 31 32 32 33 33 34 34 33 33 32 32 30 30 32 33 31 30 29 28 27 26 25 23 22 22 21 21 23 23 24 24 25 28 25 26
41 40 38 37 40 40 34 35 37 31 31 31 33 33 33 35 34 34 35 36 37 36 36 36 36 36 35 35 35 35 35 34 34 33 32 30 29 28 27 25 24 24 25 24 24 25 24 27 27
40 39 40 41 42 41 36 35 36 36 35 36 38 38 36 34 40 37 38 39 40 40 40 39 39 40 39 39 39 39 39 37 36 37 36 36 35 34 32 31 29 29 27 27 26 26 27 26 27
39 38 39 40 41 38 34 36 36 38 36 37 37 36 32 27 32 33 34 33 35 37 38 39 40 41 42 43 43 43 42 42 41 39 39 39 39 40 38 36 35 34 33 31 30 30 30 29 29
37 37 37 37 32 30 32 32 33 33 29 26 24 24 22 21 25 25 25 26 26 27 28 30 31 32 35 38 39 41 44 46 46 45 44 43 43 43 42 42 40 39 39 37 35 34 33 33 31
29 30 29 28 26 23 22 20 19 19 17 18 20 21 23 23 23 25 25 27 28 29 30 32 33 34 34 34 34 34 36 38 40 41 45 47 47 47 46 45 44 43 43 41 40 39 37 34 35
28 26 21 22 20 19 16 16 16 18 18 19 21 24 24 26 26 27 29 30 32 33 34 35 37 38 39 39 40 39 38 38 38 38 38 37 40 46 49 48 47 48 46 46 45 44 40 38 38
27 24 24 23 20 19 18 18 19 20 23 23 25 27 29 31 33 33 34 35 36 37 38 40 41 43 45 45 45 46 45 42 41 41 40 38 39 40 40 43 47 49 50 49 47 47 46 44 41
28 27 25 24 23 22 22 22 21 24 27 29 30 31 33 35 37 39 39 41 43 46 48 50 50 51 52 52 52 53 52 51 49 49 48 48 47 43 43 42 43 45 49 52 52 51 49 46 46
29 27 26 25 24 23 23 25 25 27 31 34 34 35 35 37 40 41 41 43 45 48 50 51 52 52 53 54 56 56 57 58 59 57 56 55 52 50 49 47 47 45 43 46 50 50 49 48 47
29 28 26 26 25 25 26 28 30 32 32 35 36 37 38 40 40 40 42 45 47 47 49 51 54 55 57 57 58 60 62 61 62 63 63 62 62 59 55 51 49 49 48 45 44 48 49 47 47
29 28 27 28 27 28 29 30 32 32 34 35 36 37 39 39 39 41 43 44 46 48 50 52 55 58 61 63 65 65 66 67 68 67 69 68 67 65 62 58 55 52 52 50 50 48 47 51 48
32 30 29 28 31 31 32 32 33 33 34 34 36 39 39 39 40 41 42 44 48 51 55 58 60 63 65 67 70 73 74 73 74 73 71 72 72 70 64 64 63 61 59 54 53 54 52 48 51
33 33 33 33 32 33 34 33 34 37 36 37 37 36 35 36 38 40 44 48 50 50 49 53 55 58 62 67 69 71 71 71 71 71 70 70 72 72 71 65 66 64 62 60 59 56 60 53 46
34 34 35 36 36 34 35 34 33 37 41 40 35 32 34 37 39 43 42 42 43 46 52 55 61 64 68 72 72 73 75 77 76 74 73 73 74 75 72 73 69 65 63 59 57 52 61 55 49
34 34 35 37 37 39 37 38 40 37 33 32 30 33 36 38 37 36 39 41 44 50 54 56 65 63 61 58 61 66 70 72 74 77 78 78 77 75 77 76 68 71 66 61 60 58 57 59 57
33 34 36 38 39 42 42 36 32 30 29 29 31 34 35 31 31 33 36 41 46 50 51 57 52 45 48 51 52 57 62 65 68 69 69 69 68 67 68 69 75 67 70 67 67 63 59 58 61
33 36 38 37 37 34 31 28 24 27 28 30 32 29 28 27 30 33 37 38 43 46 45 50 39 40 36 39 44 45 46 50 54 56 61 65 65 64 60 60 61 65 63 63 69 71 68 66 59
29 30 30 29 26 24 25 27 25 26 27 28 23 23 25 27 29 33 34 37 40 43 45 42 37 33 28 29 40 37 29 30 33 34 38 43 50 58 59 52 53 51 56 59 46 53 67 76 70
24 23 22 22 23 24 24 26 25 26 21 18 21 21 24 26 31 35 34 34 36 38 38 37 31 29 21 28 30 30 33 20 16 17 19 23 30 37 45 45 51 32 55 51 48 40 47 48 59
17 19 21 23 22 22 23 26 19 13 16 19 17 20 23 29 32 31 29 29 30 33 33 33 27 25 19 23 30 24 23 24 23 16 16 7 17 32 36 42 45 27 52 66 56 54 50 50 53
16 18 19 21 21 21 18 11 12 13 15 15 17 22 26 25 24 21 21 24 27 28 30 31 26 22 23 25 26 29 23 15 14 18 15 8 6 9 24 31 37 30 32 42 44 43 47 48 52
15 14 15 14 12 11 9 13 12 14 15 18 22 25 24 19 20 24 23 24 25 25 26 26 25 22 22 23 21 24 24 21 18 15 3 7 15 15 15 14 24 32 45 34 37 41 43 46 47
8 8 11 13 12 12 13 14 16 18 20 23 26 23 20 18 22 26 26 25 26 25 25 25 23 21 22 21 20 18 16 17 15 10 4 7 7 8 13 17 13 12 22 33 35 35 37 41 47
12 13 14 14 18 19 20 17 18 20 23 24 22 19 18 21 24 25 26 26 26 25 24 24 24 24 22 20 21 20 17 15 14 12 11 11 13 17 19 18 22 26 30 34 37 40 43 45 45
13 16 17 19 20 22 25 16 20 23 23 20 22 23 23 24 24 24 25 26 27 28 28 26 25 24 23 22 22 21 19 17 14 10 12 13 14 17 18 19 23 28 32 36 38 41 42 44 43

GFSSGP_500_spd_120.txt.gz
Wind_Speed
24 23 21 20 21 21 20 17 15 14 15 17 16 14 15 16 18 18 16 16 16 17 17 16 16 17 16 16 16 15 16 15 16 15 14 17 24 27 26 25 25 24 22 20 18 17 16 14 14
27 25 23 23 24 25 22 19 18 18 18 19 19 18 18 18 20 20 19 19 18 19 20 21 20 20 20 19 19 18 18 17 17 17 18 18 18 18 20 21 23 27 27 26 24 22 20 19 18
30 29 27 28 28 28 24 23 22 22 22 22 23 21 21 23 22 23 23 22 22 22 22 23 22 23 23 23 22 21 20 19 18 19 19 20 21 20 20 20 19 18 20 24 28 28 25 23 22
34 33 32 33 31 31 27 26 25 25 24 25 26 26 26 26 26 26 27 26 26 26 26 26 26 25 26 25 26 26 25 24 24 23 22 22 22 23 23 22 22 21 21 21 22 23 27 27 25
37 36 36 37 35 34 31 30 29 29 28 27 27 29 28 27 28 29 30 30 30 30 30 30 30 30 31 30 29 30 30 29 29 29 29 28 26 26 26 25 25 24 23 23 24 23 24 24 27
39 38 37 39 37 36 35 31 31 31 33 33 30 28 28 28 31 33 34 34 34 35 34 35 35 35 35 35 34 34 35 35 34 33 33 33 33 32 31 30 29 28 28 26 25 24 23 24 25
40 38 39 41 39 38 35 32 34 34 33 34 32 31 32 34 36 36 38 38 38 38 39 39 39 40 40 40 39 39 39 40 40 39 38 38 36 35 36 35 35 34 33 32 30 28 27 25 24
39 40 41 42 39 37 33 32 34 35 35 36 35 33 32 35 39 38 37 37 37 37 36 35 36 36 37 39 39 40 42 43 43 44 43 42 41 40 40 39 38 37 37 37 36 34 32 29 28
38 38 39 40 40 34 33 36 38 36 33 34 33 30 29 30 30 30 30 29 28 28 29 28 28 28 29 30 30 32 34 36 38 41 44 46 46 45 44 43 42 42 41 40 40 39 37 36 34
28 28 31 34 34 35 34 32 31 30 27 23 20 20 20 21 23 26 26 26 27 27 27 30 30 30 30 32 32 34 34 35 35 37 38 39 41 42 46 47 47 46 45 45 44 43 42 40 39
29 27 27 27 29 28 27 25 21 17 16 16 18 20 21 22 25 28 29 27 28 30 31 33 35 36 36 36 36 38 38 39 40 40 41 41 40 40 40 40 43 44 48 49 48 48 46 45 44
27 28 27 27 26 24 22 20 17 17 17 18 20 22 24 26 27 28 30 33 34 36 37 38 39 40 43 45 46 47 47 48 48 47 46 46 45 44 43 42 41 41 43 46 49 50 50 50 48
28 27 26 25 23 23 21 20 19 20 22 22 24 26 28 30 31 33 34 36 39 41 43 45 47 49 50 51 53 54 54 54 54 53 53 53 52 51 50 48 46 44 44 43 44 44 46 51 52
27 28 27 27 24 24 23 22 22 23 25 27 29 31 32 33 35 36 37 39 41 42 43 45 47 49 50 52 53 54 55 57 57 58 59 58 58 59 58 56 54 52 50 47 46 46 46 45 48
28 29 28 28 27 26 26 25 25 26 29 31 34 35 36 36 35 38 39 40 41 43 44 46 48 50 51 52 53 55 57 60 62 62 64 65 63 63 63 62 61 57 56 54 52 51 50 48 45
30 29 30 29 28 27 28 29 29 31 32 34 35 36 35 36 38 38 40 41 42 43 43 45 47 49 52 56 58 61 64 65 67 69 70 70 70 69 69 67 65 62 60 60 57 53 53 53 50
30 28 28 28 27 29 31 31 33 34 35 35 36 37 38 39 40 40 39 38 39 41 45 49 52 50 50 54 58 61 64 66 68 68 70 74 75 76 76 74 72 69 65 63 63 60 56 57 53
31 31 30 30 31 32 33 33 37 38 37 36 36 37 40 42 40 37 37 38 41 46 47 45 43 48 53 59 61 64 69 73 74 74 76 76 76 76 75 74 74 74 70 68 66 65 64 60 60
31 31 32 33 33 34 37 36 36 40 39 40 40 41 36 33 33 35 38 41 43 40 37 40 48 50 52 57 62 66 60 58 60 65 71 74 76 76 75 74 71 70 68 70 67 66 67 66 66
32 33 35 36 37 38 38 37 39 40 41 42 38 34 32 32 35 37 40 37 34 35 37 41 44 50 51 48 44 51 53 53 60 64 70 71 72 72 71 71 71 71 69 67 67 70 68 66 64
34 36 37 38 39 40 41 39 40 39 36 31 30 31 32 34 36 32 28 30 34 35 36 41 44 44 49 46 49 44 36 36 42 47 49 58 67 65 68 70 70 68 68 67 65 68 68 68 66
34 36 38 38 40 40 37 35 30 31 30 28 30 30 33 33 25 27 29 31 35 35 36 40 41 41 45 42 36 31 36 38 39 40 36 35 36 49 62 62 65 67 67 67 65 66 67 67 69
34 35 36 35 34 33 31 33 25 25 26 28 29 30 24 21 24 26 29 33 31 31 33 36 35 38 42 38 31 33 36 42 40 30 29 24 28 34 40 52 57 56 58 59 60 56 55 71 67
27 28 29 31 30 29 26 29 24 25 25 27 23 19 21 21 22 26 28 24 25 26 26 31 36 39 39 39 34 35 37 40 33 24 23 26 25 20 21 28 44 52 53 46 46 52 45 58 65
23 25 25 26 24 25 26 28 22 23 18 16 19 20 17 20 24 23 21 21 24 26 28 31 32 36 37 39 38 36 32 32 23 20 21 18 20 12 9 12 22 41 52 51 56 34 48 51 52
18 20 23 26 24 22 22 20 11 13 15 18 15 16 20 25 25 23 23 25 28 28 28 30 32 31 33 34 34 32 29 28 28 26 21 19 18 13 19 15 16 21 34 42 40 21 27 62 45
13 11 12 12 12 12 9 9 11 14 17 16 17 22 26 27 27 24 26 28 30 30 30 29 30 30 30 30 30 28 27 24 25 23 20 18 18 15 11 9 11 19 20 40 24 31 29 42 54
8 11 12 14 13 10 12 13 17 19 21 21 23 27 24 22 22 24 27 28 28 28 29 29 29 29 29 29 28 28 28 26 25 24 22 20 19 15 11 9 9 8 16 34 31 29 32 33 31
11 14 15 16 19 20 17 14 21 21 22 24 25 22 23 24 23 23 24 25 26 28 29 30 31 30 30 30 29 29 29 28 26 23 21 20 21 20 18 15 16 17 21 19 19 27 32 37 39
10 13 14 16 16 16 17 9 17 19 20 20 18 23 23 24 25 25 27 29 30 31 32 32 31 31 31 31 30 29 28 28 28 28 26 25 24 23 26 26 23 22 22 23 25 29 36 42 45